[[{"header":{"parameterUnit":"m.s-1","parameterCategory":1,"la1":30.6,"la2":29.2853,"lo1":-89.7004,"lo2":-87.6739,"dy":0.0162,"dx":0.0183,"nx":112,"ny":82,"refTime":"2024-06-04T18:00:00:Z","depth":0,"parameterNumber":2,"parameterNumberName":"U-component_of_WINDS"},"data":[0.0,0.0,0.0,0.0,0.0,0.0,0.0,0.0,0.0,0.0,0.0,0.0,0.0,0.0,0.0,0.0,0.0,0.0,0.0,0.0,0.0,0.0,0.0,0.0,0.0,0.0,0.0,0.0,0.0,0.0,0.0,0.0,0.0,0.0,0.0,0.0,0.0,0.0,0.0,0.0,0.0,0.0,0.0,0.0,0.0,0.0,0.0,0.0,0.0,0.0,0.0,0.0,0.0,0.0,0.0,0.0,0.0,0.0,0.0,0.0,0.0,0.0,0.0,0.0,0.0,0.0,0.0,0.0,0.0,0.0,0.0,0.0,0.0,0.0,0.0,0.0,0.0,0.0,0.0,0.0,0.0,0.0,0.0,0.0,0.0,0.0,0.0,0.0,0.0,0.0,-0.871,-0.935,-0.9823,-1.0105,-1.0105,-0.9854,-0.9106,-0.7696,0.0,0.0,0.0,0.0,0.0,0.0,0.0,0.0,0.0,0.0,0.0,0.0,0.0,0.0,0.0,0.0,0.0,0.0,0.0,0.0,0.0,0.0,0.0,0.0,0.0,0.0,0.0,0.0,0.0,0.0,0.0,0.0,0.0,0.0,0.0,0.0,0.0,0.0,0.0,0.0,0.0,0.0,0.0,0.0,0.0,0.0,0.0,0.0,0.0,0.0,0.0,0.0,0.0,0.0,0.0,0.0,0.0,0.0,0.0,0.0,0.0,0.0,0.0,0.0,0.0,0.0,0.0,0.0,0.0,0.0,0.0,0.0,0.0,0.0,0.0,0.0,0.0,0.0,0.0,0.0,0.0,0.0,0.0,0.0,0.0,0.0,0.0,0.0,0.0,0.0,0.0,0.0,0.0,0.0,0.0,0.0,0.0,0.0,0.0,0.0,0.0,0.0,0.0,0.0,-0.8805,-1.0311,-1.073,-1.0925,-1.0925,-1.0406,-0.9805,-0.9039,0.0,0.0,0.0,0.0,0.0,0.0,0.0,0.0,0.0,0.0,0.0,0.0,0.0,0.0,0.0,0.0,0.0,0.0,0.0,0.0,0.0,0.0,0.0,0.0,0.0,0.0,0.0,0.0,0.0,0.0,0.0,0.0,0.0,0.0,0.0,0.0,0.0,0.0,0.0,0.0,0.0,0.0,0.0,0.0,0.0,0.0,0.0,0.0,0.0,0.0,0.0,0.0,0.0,0.0,0.0,0.0,0.0,0.0,0.0,0.0,0.0,0.0,0.0,0.0,0.0,0.0,0.0,0.0,0.0,0.0,0.0,0.0,0.0,0.0,0.0,0.0,0.0,0.0,0.0,0.0,0.0,0.0,0.0,0.0,0.0,0.0,0.0,0.0,0.0,0.0,0.0,0.0,0.0,0.0,0.0,0.0,0.0,0.0,0.0,0.0,0.0,0.0,0.0,-0.8157,-0.919,-1.0737,-1.0902,-1.0856,-1.0775,-1.0704,-1.0167,-0.8944,-0.7725,0.0,0.0,0.0,0.0,0.0,0.0,0.0,0.0,0.0,0.0,0.0,0.0,0.0,0.0,0.0,0.0,0.0,0.0,0.0,0.0,0.0,0.0,0.0,0.0,0.0,0.0,0.0,0.0,0.0,0.0,0.0,0.0,0.0,0.0,0.0,0.0,0.0,0.0,0.0,0.0,0.0,0.0,0.0,0.0,0.0,0.0,0.0,0.0,0.0,0.0,0.0,0.0,0.0,0.0,0.0,0.0,0.0,0.0,0.0,0.0,0.0,0.0,0.0,0.0,0.0,0.0,0.0,0.0,0.0,0.0,0.0,0.0,0.0,0.0,0.0,0.0,0.0,0.0,0.0,0.0,0.0,0.0,0.0,0.0,0.0,0.0,0.0,0.0,0.0,0.0,0.0,0.0,0.0,0.0,0.0,0.0,0.0,0.0,0.0,0.0,0.0,0.0,-0.8883,-0.9612,-1.0908,-1.0956,-1.0848,-1.0723,-1.096,-1.056,-0.9213,-0.7753,0.0,0.0,0.0,0.0,0.0,0.0,0.0,0.0,0.0,0.0,0.0,0.0,0.0,0.0,0.0,0.0,0.0,0.0,0.0,0.0,0.0,0.0,0.0,0.0,0.0,0.0,0.0,0.0,0.0,0.0,0.0,0.0,0.0,0.0,0.0,0.0,0.0,0.0,0.0,0.0,0.0,0.0,0.0,0.0,0.0,0.0,0.0,0.0,0.0,0.0,0.0,0.0,0.0,0.0,0.0,0.0,0.0,0.0,0.0,0.0,0.0,0.0,0.0,0.0,0.0,0.0,0.0,0.0,0.0,0.0,0.0,0.0,0.0,0.0,0.0,0.0,0.0,0.0,0.0,0.0,0.0,0.0,0.0,0.0,0.0,0.0,0.0,0.0,0.0,0.0,0.0,0.0,0.0,0.0,0.0,0.0,0.0,0.0,0.0,0.0,0.0,0.0,-0.8879,-1.0041,-1.0837,-1.1233,-1.1426,-1.1426,-1.1279,-1.1095,-1.0915,-0.908,0.0,0.0,0.0,0.0,0.0,0.0,0.0,0.0,0.0,0.0,0.0,0.0,0.0,0.0,0.0,0.0,0.0,0.0,0.0,0.0,0.0,0.0,0.0,0.0,0.0,0.0,0.0,0.0,0.0,0.0,0.0,0.0,0.0,0.0,0.0,0.0,0.0,0.0,0.0,0.0,0.0,0.0,0.0,0.0,0.0,0.0,0.0,0.0,0.0,0.0,0.0,0.0,0.0,0.0,0.0,0.0,0.0,0.0,0.0,0.0,0.0,0.0,0.0,0.0,0.0,0.0,0.0,0.0,0.0,0.0,0.0,0.0,0.0,0.0,0.0,0.0,0.0,0.0,0.0,0.0,0.0,0.0,0.0,0.0,0.0,0.0,0.0,0.0,0.0,0.0,0.0,0.0,0.0,0.0,0.0,0.0,0.0,0.0,0.0,0.0,0.0,0.0,-0.9031,-0.999,-1.1139,-1.1286,-1.1256,-1.1134,-1.0611,-0.9996,-0.9383,0.0,0.0,0.0,0.0,0.0,0.0,0.0,0.0,0.0,0.0,0.0,0.0,0.0,0.0,0.0,0.0,0.0,0.0,0.0,0.0,0.0,0.0,0.0,0.0,0.0,0.0,0.0,0.0,0.0,0.0,0.0,0.0,0.0,0.0,0.0,0.0,0.0,0.0,0.0,0.0,0.0,0.0,0.0,0.0,0.0,0.0,0.0,0.0,0.0,0.0,0.0,0.0,0.0,0.0,0.0,0.0,0.0,0.0,0.0,0.0,0.0,0.0,0.0,0.0,0.0,0.0,0.0,0.0,0.0,0.0,0.0,0.0,0.0,0.0,0.0,0.0,0.0,0.0,0.0,0.0,0.0,0.0,0.0,0.0,0.0,0.0,0.0,0.0,0.0,0.0,0.0,0.0,0.0,0.0,0.0,0.0,0.0,0.0,0.0,0.0,0.0,0.0,-0.8432,-0.9212,-1.0102,-1.1307,-1.1239,-1.1093,-1.1015,-1.0347,-0.9468,-0.8454,0.0,0.0,0.0,0.0,0.0,0.0,0.0,0.0,0.0,0.0,0.0,0.0,0.0,0.0,0.0,0.0,0.0,0.0,0.0,0.0,0.0,0.0,0.0,0.0,0.0,0.0,0.0,0.0,0.0,0.0,0.0,0.0,0.0,0.0,0.0,0.0,0.0,0.0,0.0,0.0,0.0,0.0,0.0,0.0,0.0,0.0,0.0,0.0,0.0,0.0,0.0,0.0,0.0,0.0,0.0,0.0,0.0,0.0,0.0,0.0,0.0,0.0,0.0,0.0,0.0,0.0,0.0,0.0,0.0,0.0,0.0,0.0,0.0,0.0,0.0,0.0,0.0,0.0,0.0,0.0,0.0,0.0,0.0,0.0,0.0,0.0,0.0,0.0,0.0,0.0,0.0,0.0,0.0,0.0,0.0,0.0,0.0,0.0,0.0,0.0,0.0,0.0,-0.8317,-0.9445,-1.0483,-1.1227,-1.1077,-1.0996,-1.1284,-1.0683,-0.9822,0.0,0.0,0.0,0.0,0.0,0.0,0.0,0.0,0.0,0.0,0.0,0.0,0.0,0.0,0.0,0.0,0.0,0.0,0.0,0.0,0.0,0.0,0.0,0.0,0.0,0.0,0.0,0.0,0.0,0.0,0.0,0.0,0.0,0.0,0.0,0.0,0.0,0.0,0.0,0.0,0.0,0.0,0.0,0.0,0.0,0.0,0.0,0.0,0.0,0.0,0.0,0.0,0.0,0.0,0.0,0.0,0.0,0.0,0.0,0.0,0.0,0.0,0.0,0.0,0.0,0.0,0.0,0.0,0.0,0.0,0.0,0.0,0.0,0.0,0.0,0.0,0.0,0.0,0.0,0.0,0.0,0.0,0.0,0.0,0.0,0.0,0.0,0.0,0.0,0.0,0.0,0.0,0.0,0.0,0.0,0.0,0.0,0.0,0.0,0.0,0.0,0.0,0.0,-0.7775,-0.9201,-1.0493,-1.1227,-1.122,-1.1231,-1.1307,-1.0549,-0.9697,-0.8803,0.0,0.0,0.0,0.0,0.0,0.0,0.0,0.0,0.0,0.0,0.0,0.0,0.0,0.0,0.0,0.0,0.0,0.0,0.0,0.0,0.0,0.0,0.0,0.0,0.0,0.0,0.0,0.0,0.0,0.0,0.0,0.0,0.0,0.0,0.0,0.0,0.0,0.0,0.0,0.0,0.0,0.0,0.0,0.0,0.0,0.0,0.0,0.0,0.0,0.0,0.0,0.0,0.0,0.0,0.0,0.0,0.0,0.0,0.0,0.0,0.0,0.0,0.0,0.0,0.0,0.0,0.0,0.0,0.0,0.0,0.0,0.0,0.0,0.0,0.0,0.0,0.0,0.0,0.0,0.0,0.0,0.0,0.0,0.0,0.0,0.0,0.0,0.0,0.0,0.0,0.0,0.0,0.0,0.0,0.0,0.0,0.0,0.0,0.0,0.0,0.0,0.0,-0.8112,-0.9567,-1.0863,-1.1624,-1.1715,-1.165,-1.1559,-1.0873,-1.0006,-0.8976,0.0,0.0,0.0,0.0,0.0,0.0,0.0,0.0,0.0,0.0,0.0,0.0,0.0,0.0,0.0,0.0,0.0,0.0,0.0,0.0,0.0,0.0,0.0,0.0,0.0,0.0,0.0,0.0,0.0,0.0,0.0,0.0,0.0,0.0,0.0,0.0,0.0,0.0,0.0,0.0,0.0,0.0,0.0,0.0,0.0,0.0,0.0,0.0,0.0,0.0,0.0,0.0,0.0,0.0,0.0,0.0,0.0,0.0,0.0,0.0,0.0,0.0,0.0,0.0,0.0,0.0,0.0,0.0,0.0,0.0,0.0,0.0,0.0,0.0,0.0,0.0,0.0,0.0,0.0,0.0,0.0,0.0,0.0,0.0,0.0,0.0,0.0,0.0,0.0,0.0,0.0,0.0,0.0,0.0,0.0,0.0,0.0,0.0,0.0,0.0,0.0,0.0,-0.8961,-1.0267,-1.1422,-1.2241,-1.233,-1.224,-1.194,-1.1437,-1.0562,-0.9251,0.0,0.0,0.0,0.0,0.0,0.0,0.0,0.0,0.0,0.0,0.0,0.0,0.0,0.0,0.0,0.0,0.0,0.0,0.0,0.0,0.0,0.0,0.0,0.0,0.0,0.0,0.0,0.0,0.0,0.0,0.0,0.0,0.0,0.0,0.0,0.0,0.0,0.0,0.0,0.0,0.0,0.0,0.0,0.0,0.0,0.0,0.0,0.0,0.0,0.0,0.0,0.0,0.0,0.0,0.0,0.0,0.0,0.0,0.0,0.0,-0.5815,-0.5122,0.0,0.0,0.0,0.0,0.0,0.0,0.0,0.0,0.0,0.0,0.0,0.0,0.0,0.0,0.0,0.0,0.0,0.0,0.0,0.0,0.0,0.0,0.0,0.0,0.0,0.0,0.0,0.0,0.0,0.0,0.0,0.0,0.0,0.0,0.0,0.0,0.0,0.0,0.0,0.0,-0.867,-1.0136,-1.1497,-1.2519,-1.2597,-1.2525,-1.2234,-1.1546,-1.0725,-0.9787,-0.8759,0.0,0.0,0.0,0.0,0.0,0.0,0.0,0.0,0.0,0.0,0.0,0.0,0.0,0.0,0.0,0.0,0.0,0.0,0.0,0.0,0.0,0.0,0.0,0.0,0.0,0.0,0.0,0.0,0.0,0.0,0.0,0.0,0.0,0.0,0.0,0.0,0.0,0.0,0.0,0.0,0.0,0.0,0.0,0.0,0.0,0.0,0.0,0.0,0.0,0.0,0.0,0.0,0.0,0.0,0.0,0.0,0.0,0.0,0.0,-0.703,-0.6529,0.0,0.0,0.0,0.0,0.0,0.0,0.0,0.0,0.0,0.0,0.0,0.0,0.0,0.0,0.0,0.0,0.0,0.0,0.0,0.0,0.0,0.0,0.0,0.0,0.0,0.0,0.0,0.0,0.0,0.0,0.0,0.0,0.0,0.0,0.0,0.0,0.0,0.0,0.0,0.0,-0.8448,-1.0525,-1.2077,-1.2643,-1.2692,-1.2589,-1.2324,-1.1811,-1.1122,-1.0328,-0.9408,0.0,0.0,0.0,0.0,0.0,0.0,0.0,0.0,0.0,0.0,0.0,0.0,0.0,0.0,0.0,0.0,0.0,0.0,0.0,0.0,0.0,0.0,0.0,0.0,0.0,0.0,0.0,0.0,0.0,0.0,0.0,0.0,0.0,0.0,0.0,0.0,0.0,0.0,0.0,0.0,0.0,0.0,0.0,0.0,0.0,0.0,0.0,0.0,0.0,0.0,0.0,0.0,0.0,-0.9538,-0.9768,-0.9638,-0.941,-0.94,-0.9523,-0.8511,-0.8293,-0.8603,-0.7422,0.0,0.0,0.0,0.0,0.0,0.0,0.0,0.0,0.0,0.0,0.0,0.0,0.0,0.0,0.0,0.0,0.0,0.0,0.0,0.0,0.0,0.0,-0.9336,-0.9856,-1.0943,-1.1523,-1.0194,0.0,0.0,0.0,0.0,0.0,0.0,0.0,0.0,0.0,0.0,0.0,-0.8603,-1.1069,-1.2719,-1.2699,-1.2705,-1.2614,-1.2403,-1.2137,-1.1667,-1.0869,-1.013,-0.9326,0.0,0.0,0.0,0.0,0.0,0.0,0.0,0.0,0.0,0.0,0.0,0.0,0.0,0.0,0.0,0.0,0.0,0.0,0.0,0.0,0.0,0.0,0.0,0.0,0.0,0.0,0.0,0.0,0.0,0.0,0.0,0.0,-0.7307,-0.8429,0.0,0.0,0.0,0.0,0.0,0.0,0.0,0.0,0.0,0.0,0.0,0.0,0.0,-0.9565,-0.986,-1.1469,-1.1933,-1.1272,-1.2034,-1.2029,-1.1372,-1.1088,-1.1,-1.1016,-1.1098,0.0,-0.9439,-0.9186,0.0,0.0,0.0,0.0,0.0,0.0,0.0,0.0,0.0,0.0,0.0,0.0,0.0,0.0,0.0,0.0,0.0,0.0,0.0,0.0,0.0,0.0,-1.142,-1.1846,-1.2255,-1.2543,-1.246,-1.1162,-0.9765,-0.8867,-0.8248,-0.7504,0.0,0.0,0.0,0.0,0.0,0.0,-0.9683,-1.1519,-1.27,-1.2717,-1.2705,-1.2693,-1.2656,-1.2409,-1.1982,-1.1423,-1.0851,-1.0166,-0.9373,-0.9492,0.0,0.0,0.0,0.0,0.0,0.0,0.0,0.0,0.0,0.0,0.0,0.0,0.0,0.0,0.0,0.0,0.0,0.0,0.0,0.0,0.0,0.0,0.0,0.0,0.0,0.0,0.0,0.0,0.0,-0.6549,-0.7555,-0.8509,-0.8623,-0.8359,0.0,0.0,0.0,0.0,0.0,0.0,0.0,0.0,0.0,-0.9865,-1.0688,-1.1072,-1.0921,-1.1748,-1.1999,-1.171,-1.2214,-1.2265,-1.1915,-1.1927,-1.1906,-1.1957,-1.231,-1.2148,-1.1515,-1.072,-1.0129,-0.9659,0.0,0.0,0.0,0.0,-0.902,-0.9241,-1.0196,-1.0394,-1.0244,-1.0088,0.0,0.0,0.0,0.0,0.0,0.0,0.0,-0.9259,-1.0452,-1.1033,-1.1647,-1.2738,-1.3168,-1.3336,-1.3379,-1.3002,-1.2231,-1.1073,-1.0063,-0.8937,-0.7455,-0.7834,0.0,0.0,0.0,-0.9438,-1.0271,-1.1745,-1.2696,-1.2717,-1.2705,-1.2705,-1.2705,-1.2463,-1.2155,-1.1736,-1.12,-1.0617,-0.9979,-0.9749,-0.9106,0.0,0.0,0.0,0.0,0.0,0.0,0.0,0.0,0.0,0.0,0.0,0.0,0.0,0.0,0.0,0.0,0.0,0.0,0.0,0.0,0.0,0.0,0.0,0.0,0.0,0.0,0.0,0.0,-0.7887,-0.845,-0.8955,-0.9575,-0.9543,0.0,0.0,0.0,0.0,0.0,0.0,-1.1243,-1.1633,-1.1957,-1.2187,-1.244,-1.2488,-1.2246,-1.2276,-1.227,-1.2155,-1.2284,-1.2371,-1.2376,-1.2467,-1.2506,-1.2517,-1.3021,-1.3185,-1.3098,-1.207,-1.1628,-1.1525,-1.0562,-1.0195,-1.027,-1.0539,-1.0635,-1.0761,-1.182,-1.206,-1.1868,-1.1697,-1.131,-1.0755,-1.0027,0.0,0.0,0.0,0.0,-0.9973,-1.1312,-1.1559,-1.189,-1.3356,-1.3796,-1.3929,-1.3915,-1.4078,-1.3867,-1.2767,-1.167,-1.0419,-0.8811,-0.9197,0.0,-0.8393,-0.9461,-1.0509,-1.0968,-1.2005,-1.2721,-1.2687,-1.2705,-1.2705,-1.2705,-1.2524,-1.23,-1.2041,-1.1576,-1.1074,-1.0617,-1.0282,-0.9649,-0.8638,0.0,0.0,0.0,0.0,0.0,0.0,0.0,0.0,0.0,0.0,0.0,0.0,0.0,0.0,0.0,0.0,0.0,0.0,0.0,0.0,0.0,0.0,0.0,0.0,0.0,0.0,0.0,0.0,0.0,-1.0452,-1.1972,0.0,0.0,0.0,0.0,-1.186,-1.2908,-1.3608,-1.3617,-1.3303,-1.3749,-1.5156,-1.4173,-1.3939,-1.4555,-1.417,-1.3802,-1.3386,-1.3156,-1.3065,-1.306,-1.2883,-1.2797,-1.2791,-1.3292,-1.3485,-1.3428,-1.3147,-1.2697,-1.2205,-1.1898,-1.1633,-1.1441,-1.1706,-1.2149,-1.2614,-1.2952,-1.3011,-1.2999,-1.2981,-1.2289,-1.1489,-1.1682,-1.1244,0.0,0.0,-1.147,-1.1808,-1.2833,-1.2871,-1.2879,-1.3981,-1.425,-1.4285,-1.4253,-1.3878,-1.3404,-1.279,-1.222,-1.1558,-1.0707,0.0,-1.0321,-1.0497,-1.0815,-1.1321,-1.2109,-1.2506,-1.2693,-1.2705,-1.2705,-1.2705,-1.2705,-1.2693,-1.2572,-1.2312,-1.2035,-1.1718,-1.1441,-1.1546,-1.0919,-0.9474,-0.9553,0.0,0.0,0.0,0.0,0.0,0.0,0.0,0.0,0.0,0.0,0.0,0.0,0.0,0.0,0.0,0.0,0.0,0.0,0.0,0.0,0.0,0.0,0.0,0.0,0.0,0.0,0.0,0.0,-1.1647,-1.2726,0.0,-1.195,-1.2914,-1.3622,-1.3654,-1.4676,-1.5436,-1.5773,-1.5678,-1.5572,-1.559,-1.4917,-1.4328,-1.3921,-1.3492,-1.3281,-1.3226,-1.3133,-1.3165,-1.3373,-1.3462,-1.3418,-1.3272,-1.3975,-1.4169,-1.4002,-1.4158,-1.3963,-1.3568,-1.3302,-1.3139,-1.3073,-1.3163,-1.332,-1.3513,-1.3785,-1.3882,-1.3851,-1.3682,-1.3254,-1.2782,-1.2922,-1.2747,-1.2596,-1.2958,-1.2948,-1.2999,-1.3742,-1.3826,-1.3814,-1.422,-1.4298,-1.4322,-1.4285,-1.414,-1.396,-1.3767,-1.3025,-1.2228,-1.1561,-1.1697,-1.1775,-1.1489,-1.197,-1.253,-1.3025,-1.3169,-1.3163,-1.2994,-1.2976,-1.2904,-1.2717,-1.2548,-1.2337,-1.2077,-1.1778,-1.1507,-1.1236,-1.1126,-1.0633,-0.9781,-0.9629,-0.8767,0.0,0.0,0.0,0.0,0.0,0.0,0.0,0.0,0.0,0.0,0.0,0.0,0.0,0.0,0.0,0.0,0.0,0.0,0.0,0.0,0.0,0.0,0.0,0.0,0.0,-1.1559,-1.2781,-1.295,-1.4056,-1.4474,-1.367,-1.4667,-1.5426,-1.5515,-1.657,-1.7238,-1.7372,-1.7311,-1.6965,-1.6253,-1.5561,-1.4805,-1.4054,-1.3549,-1.332,-1.3362,-1.3367,-1.351,-1.3782,-1.3873,-1.3873,-1.3782,-1.444,-1.4593,-1.4434,-1.4677,-1.4678,-1.4448,-1.4274,-1.4256,-1.4304,-1.4214,-1.4177,-1.4189,-1.4268,-1.4298,-1.4268,-1.4093,-1.3918,-1.3779,-1.3779,-1.3779,-1.3815,-1.3984,-1.3932,-1.3868,-1.4202,-1.4298,-1.4298,-1.4298,-1.4298,-1.4298,-1.4298,-1.4298,-1.4298,-1.4298,-1.3652,-1.3,-1.265,-1.2807,-1.2831,-1.2349,-1.2856,-1.329,-1.3369,-1.3459,-1.3447,-1.3227,-1.3131,-1.3049,-1.2862,-1.2439,-1.2143,-1.2059,-1.1597,-1.1304,-1.1117,-1.0773,-1.031,-0.9787,-0.9336,-0.8648,-0.7708,0.0,0.0,0.0,0.0,0.0,0.0,0.0,0.0,0.0,0.0,0.0,0.0,0.0,0.0,0.0,0.0,0.0,0.0,0.0,0.0,0.0,0.0,0.0,-1.1671,-1.3591,-1.4834,-1.4455,-1.6028,-1.6732,-1.5682,-1.6975,-1.7767,-1.7352,-1.8534,-1.9018,-1.8356,-1.8179,-1.7839,-1.7358,-1.6134,-1.5373,-1.5152,-1.456,-1.4117,-1.3846,-1.3868,-1.4038,-1.4304,-1.4043,-1.4095,-1.4356,-1.461,-1.4718,-1.4718,-1.4802,-1.4847,-1.4847,-1.4835,-1.4943,-1.5077,-1.4823,-1.4733,-1.469,-1.4419,-1.4316,-1.431,-1.431,-1.4304,-1.4298,-1.4298,-1.4298,-1.4298,-1.4298,-1.4298,-1.4298,-1.4298,-1.4298,-1.4298,-1.4298,-1.4298,-1.4298,-1.4298,-1.4298,-1.4298,-1.4298,-1.4093,-1.3918,-1.3918,-1.3707,-1.3453,-1.32,-1.3381,0.0,-1.3149,-1.3381,-1.3538,-1.3519,-1.329,-1.3133,-1.3109,-1.2379,-1.2029,-1.2282,-1.1546,-1.1099,-1.1111,-1.0581,-1.0069,-0.9558,-0.8735,-0.8405,-0.8527,0.0,0.0,0.0,0.0,0.0,0.0,0.0,0.0,0.0,0.0,0.0,0.0,0.0,0.0,0.0,0.0,0.0,0.0,0.0,0.0,0.0,-1.1878,-1.3308,-1.3339,-1.5182,-1.6543,-1.6489,-1.7318,-1.7701,-1.7239,-1.7765,-1.8149,-1.8017,-1.8611,-1.8859,-1.8684,-1.8118,-1.7851,-1.794,-1.6289,-1.5511,-1.5776,-1.48,-1.4265,-1.417,-1.4175,-1.438,-1.466,-1.4824,-1.4877,-1.483,-1.5358,-1.5469,-1.5317,-1.5516,-1.5615,-1.5573,-1.5149,-1.505,-1.5101,-1.5192,-1.5111,-1.4992,-1.4914,-1.4763,-1.46,-1.46,-1.4467,-1.4298,-1.4298,-1.4298,-1.4298,-1.4298,-1.4298,-1.4298,-1.4298,-1.4298,-1.4298,-1.4298,-1.4298,-1.4298,-1.4298,-1.4298,-1.4298,-1.4298,-1.4238,-1.4189,-1.4189,-1.4129,-1.4057,-1.3984,-1.4039,-1.4057,-1.3984,-1.4039,-1.3936,-1.3556,-1.3447,-1.3248,-1.285,-1.227,-1.191,-1.2029,-1.1236,-1.0912,-1.1105,-1.0755,-1.0509,-1.0364,-0.9588,-0.915,0.0,0.0,0.0,0.0,0.0,0.0,0.0,0.0,0.0,0.0,0.0,0.0,0.0,0.0,0.0,0.0,0.0,0.0,0.0,0.0,0.0,0.0,-1.3642,-1.5237,-1.5841,-1.6693,-1.7488,-1.8112,-1.8232,-1.8286,-1.8378,-1.8444,-1.8518,-1.8518,-1.8851,-1.9058,-1.9058,-1.88,-1.8336,-1.7748,-1.6893,-1.6199,-1.5603,-1.5211,-1.4978,-1.4965,-1.4866,-1.494,-1.5238,-1.5357,-1.5363,-1.541,-1.5731,-1.5785,-1.569,-1.5838,-1.5891,-1.5861,0.0,0.0,0.0,0.0,-1.5311,-1.5107,-1.5107,-1.501,-1.4877,-1.4877,-1.4769,-1.4636,-1.4636,-1.4558,-1.4473,-1.4473,-1.4389,-1.4298,-1.4298,-1.4298,-1.4298,-1.4298,-1.4298,-1.4298,-1.4298,-1.4298,-1.4298,-1.4298,-1.4298,0.0,-1.4298,-1.4298,-1.4262,-1.4153,-1.4226,-1.4256,-1.4147,-1.4226,-1.4177,-1.3876,-1.3743,-1.355,-1.3236,-1.2518,0.0,0.0,0.0,-1.0852,-1.0785,-1.0497,0.0,0.0,0.0,0.0,0.0,-0.9892,0.0,0.0,-0.9567,-0.9841,0.0,0.0,0.0,0.0,0.0,0.0,0.0,0.0,0.0,0.0,0.0,0.0,0.0,0.0,0.0,0.0,-1.538,-1.7194,-1.853,-1.8053,-1.8012,-1.9211,-1.8828,-1.8614,-1.9109,-1.892,-1.8797,-1.8837,-1.9193,-1.9439,-1.9471,-1.975,0.0,0.0,0.0,-1.7148,-1.5327,-1.5765,-1.5998,-1.5897,-1.5636,-1.5583,-1.5838,-1.5583,-1.5636,-1.5838,-1.5891,-1.5891,-1.5891,-1.5891,-1.5891,-1.5891,-1.5891,-1.5891,-1.5861,-1.5626,-1.5396,-1.5197,-1.5197,0.0,0.0,-1.5155,-1.5131,-1.5107,-1.5107,-1.4944,-1.4763,-1.4763,-1.4582,-1.4383,-1.4352,-1.4346,-1.4334,-1.4304,-1.4298,-1.4298,-1.4298,-1.4298,-1.4298,-1.4298,-1.4298,-1.4298,-1.4298,-1.4298,-1.422,-1.3984,-1.4147,-1.4214,-1.3978,-1.4153,-1.4286,-1.4256,-1.4045,0.0,-1.3863,-1.2964,-1.2487,-1.2693,-1.1757,-1.0942,-1.0448,-1.0238,-1.0238,-1.0472,-1.0472,-1.0827,-1.1537,-1.1537,-1.1688,-1.1962,-1.0086,-1.0367,0.0,0.0,0.0,0.0,0.0,0.0,0.0,0.0,0.0,0.0,0.0,0.0,0.0,0.0,0.0,-1.4981,-1.6904,-1.8506,-1.9366,-1.9183,-1.8998,-1.9082,-1.9245,-1.9222,-1.8912,-1.8827,-1.8947,-1.9248,-1.9383,-1.9535,-1.9805,-1.9877,-1.9546,-1.8758,-1.8831,-1.8065,-1.6383,-1.6751,-1.659,-1.588,-1.5535,0.0,-1.541,-1.5363,-1.5422,-1.5589,-1.5791,-1.5891,-1.5891,-1.5891,-1.5891,-1.5891,-1.5891,-1.5891,-1.5885,-1.5831,-1.5783,-1.5741,-1.5741,-1.5602,-1.5421,-1.5421,-1.5282,-1.5107,-1.5107,-1.5071,0.0,-1.5034,-1.4992,-1.4902,-1.469,-1.4636,-1.4576,-1.4352,-1.4298,-1.4298,-1.4298,-1.4298,-1.4298,-1.4298,-1.4298,-1.4298,-1.4298,-1.4298,-1.428,-1.4226,-1.4262,-1.428,-1.4226,-1.4262,-1.4214,-1.4002,-1.3936,-1.3821,-1.361,-1.3206,-1.2892,-1.2711,-1.2113,-1.1585,-1.1273,-1.1417,-1.1525,-1.1573,-1.1573,-1.1651,-1.1808,-1.1808,-1.2089,-1.253,-1.1697,-1.2427,0.0,0.0,0.0,0.0,0.0,0.0,0.0,0.0,0.0,0.0,0.0,-0.9671,-1.1436,0.0,-1.4697,-1.6572,-1.8129,-1.9367,-1.9941,-1.992,-1.9695,-1.9352,-1.9372,-1.925,-1.8827,-1.8994,-1.9177,-1.936,-1.9685,-1.9955,-2.0122,-2.0297,-2.007,-1.9418,-1.9426,-1.8617,-1.6988,-1.7868,-1.7582,-1.6115,-1.6652,-1.6605,-1.6022,-1.588,-1.582,-1.5874,-1.5743,-1.5791,-1.5891,-1.5891,-1.5891,-1.5891,-1.5891,-1.5891,-1.5891,-1.5891,-1.5891,-1.5891,-1.5891,-1.5807,-1.5692,-1.5692,-1.5608,-1.5499,-1.5499,-1.5518,-1.5472,-1.5357,-1.5209,-1.5077,-1.4944,-1.4817,-1.4684,-1.4539,-1.4401,-1.4298,-1.4298,-1.4298,-1.4298,-1.4298,-1.4298,-1.4298,-1.4298,-1.4298,-1.4298,-1.4298,-1.4298,-1.4298,-1.4298,-1.4298,-1.425,-1.4117,-1.4099,-1.4051,-1.3918,-1.3664,-1.3344,-1.294,-1.2536,-1.2396,-1.2605,-1.2598,-1.2726,-1.2959,-1.2965,-1.2856,-1.2717,-1.2717,-1.2856,-1.3103,-1.2843,-1.3747,0.0,0.0,0.0,0.0,0.0,0.0,0.0,0.0,-0.8836,-0.999,-1.0374,-1.115,-1.3306,-1.4493,-1.5828,-1.7978,-1.915,-1.9905,-2.0249,-2.0292,-2.0119,-1.9679,-1.9387,-1.915,-1.8827,-1.9161,-1.9447,-1.9511,-2.0043,-2.0424,-2.0488,-2.0766,-2.0506,-1.9732,-1.968,-1.9018,-1.7543,-1.8783,-1.8616,-1.7001,-1.7987,-1.789,-1.6962,-1.652,-1.6307,-1.6289,-1.5772,-1.5684,-1.5838,-1.5838,-1.5838,-1.5891,-1.5891,-1.5891,-1.5891,-1.5891,-1.5891,-1.5891,-1.5891,-1.5891,-1.5891,-1.5891,-1.5891,-1.5891,-1.5891,-1.5917,-1.5863,-1.563,-1.5421,-1.5246,-1.5197,-1.5028,-1.4841,-1.4739,-1.4539,-1.4364,-1.431,-1.4298,-1.4298,-1.4298,-1.4298,-1.4298,-1.4298,-1.4298,-1.4298,-1.4298,-1.4298,-1.4298,-1.4298,-1.4298,-1.4298,-1.4298,-1.4298,-1.4298,-1.4298,-1.4057,-1.3725,-1.3258,-1.3012,-1.3193,-1.3929,-1.3572,-1.3706,-1.4457,-1.4087,-1.3854,-1.3779,-1.3604,-1.3544,-1.3592,-1.3592,-1.4611,-0.9044,-0.9482,-0.997,-1.048,-1.0223,-1.0279,0.0,0.0,-1.0791,-1.2164,-1.2323,-1.2975,-1.5423,-1.609,-1.7024,-1.9142,-1.9903,-2.0249,-2.0283,-2.0292,-2.0119,-1.9679,-1.9587,-1.935,-1.8827,-1.9161,-1.9542,-1.9837,-2.017,-2.0527,-2.0845,-2.0901,-2.0506,-1.9732,-1.968,-1.9389,-1.8814,-1.9217,-1.9413,-1.9514,-1.8576,-1.8056,-1.7896,-1.6819,-1.631,-1.6298,-1.5983,-1.5747,-1.5535,-1.5535,-1.569,-1.5891,-1.5891,-1.5891,-1.5891,-1.5891,-1.5891,-1.5891,-1.5891,-1.5891,-1.5891,-1.5891,-1.5891,-1.5891,-1.5891,-1.5927,-1.5902,-1.5849,-1.5825,-1.5753,-1.5517,-1.5433,-1.5294,-1.4829,-1.4696,-1.46,-1.4352,-1.4298,-1.4298,-1.4298,-1.4298,-1.4298,-1.4298,-1.4298,-1.4298,-1.4298,-1.4298,-1.4298,-1.4298,-1.4298,-1.4298,-1.4298,-1.4298,-1.4298,-1.4298,-1.4057,-1.3882,-1.3821,-1.3568,-1.3848,-1.4834,-1.3964,-1.4326,-1.6192,-1.448,-1.3988,-1.4847,-1.396,-1.3634,-1.3863,-1.3863,-1.4903,-1.1343,-1.1195,-1.096,-1.1655,-1.1742,-1.1752,-1.2249,-1.191,-1.1916,-1.328,-1.3375,-1.3809,-1.5784,-1.6588,-1.7461,-1.8941,-1.9819,-2.0292,-2.0292,-2.0155,-1.9936,-1.9633,-1.9479,-1.9196,-1.8827,-1.9336,-1.9765,-1.9901,-2.0384,-2.0766,-2.0909,-2.0925,-2.0447,-1.945,-1.9747,-1.9647,-1.9024,-2.0293,-2.0709,-2.0339,-2.0025,-1.9504,-1.8724,-1.7382,-1.6613,-1.629,-1.603,-1.5859,-1.5747,-1.554,-1.5636,-1.5891,-1.5891,-1.5891,-1.5891,-1.5891,-1.5891,-1.5891,-1.5891,-1.5891,-1.5891,-1.5891,-1.5891,-1.5891,-1.5891,-1.5891,-1.5891,-1.5891,-1.5891,-1.5861,-1.5759,-1.5614,-1.5403,-1.5034,-1.4829,-1.4642,-1.4358,-1.4298,-1.4298,-1.4298,-1.4298,-1.4298,-1.4298,-1.4298,-1.4298,-1.4298,-1.4298,-1.4298,-1.4298,-1.4298,-1.4298,-1.4298,-1.4298,-1.4298,-1.4298,-1.4195,-1.4135,-1.4135,-1.3835,-1.4099,-1.5099,-1.567,-1.6194,-1.6623,-1.5774,-1.5408,-1.5484,-1.4475,-1.4026,-1.4135,-1.4135,-1.492,-1.2792,-1.2716,-1.2468,-1.3,-1.3227,-1.3215,-1.2716,-1.2518,-1.2713,-1.3763,-1.3887,-1.4236,-1.5711,-1.6686,-1.7621,-1.864,-1.9629,-2.0292,-2.0292,-2.0065,-1.9845,-1.9633,-1.9342,-1.9096,-1.8827,-1.9376,-1.9813,-1.9901,-2.0432,-2.0821,-2.0917,-2.0925,-2.0395,-1.9391,-1.9926,-2.0089,-1.9742,-2.1331,-2.2048,-2.1808,-2.1707,-2.0966,-1.9768,-1.8026,-1.6942,-1.6396,-1.6207,-1.6048,-1.5901,-1.5664,-1.5696,-1.5891,-1.5891,-1.5891,-1.5891,-1.5891,-1.5891,-1.5891,-1.5891,-1.5891,-1.5891,-1.5891,-1.5891,-1.5891,-1.5891,-1.5891,-1.5891,-1.5891,-1.5891,-1.5945,-1.5998,-1.5858,-1.5646,-1.5378,-1.5111,-1.4844,-1.4467,-1.4352,-1.4298,-1.4298,-1.4298,-1.4298,-1.4298,-1.4298,-1.4298,-1.4298,-1.4298,-1.4298,-1.4298,-1.4298,-1.4298,-1.4298,-1.4298,-1.4298,-1.4298,-1.4298,-1.4298,-1.4298,-1.4064,-1.4465,-1.5716,-1.673,-1.7402,-1.769,-1.6868,-1.6376,-1.6217,-1.4908,-1.4298,-1.4298,-1.4298,-1.486,-1.2333,-1.345,-1.4441,-1.4689,-1.474,-1.4668,-1.4388,-1.3784,-1.3365,-1.363,-1.3909,-1.4408,-1.5499,-1.6526,-1.7568,-1.864,-1.9629,-2.0292,-2.0292,-2.0065,-1.9845,-1.9633,-1.9342,-1.9096,-1.8827,-1.9169,-1.9566,-1.9893,-2.0202,-2.0559,-2.0901,-2.0925,-2.0506,-1.9732,-2.0286,-2.0879,-2.1533,-2.2228,-2.3312,-2.4684,-2.3488,-2.2281,-2.0959,-1.8558,-1.7205,-1.6667,-1.6661,-1.6378,-1.5918,-1.5906,-1.5916,-1.5891,-1.5891,-1.5891,-1.5891,-1.5891,-1.5891,-1.5891,-1.5891,-1.5891,-1.5891,-1.5891,-1.5891,-1.5891,-1.5891,-1.5891,-1.5891,-1.5891,-1.5891,-1.5945,-1.6217,-1.6264,-1.619,-1.5925,-1.5692,-1.5306,-1.4806,-1.4491,-1.4298,-1.4298,-1.4298,-1.4298,-1.4298,-1.4298,-1.4298,-1.4298,-1.4298,-1.4298,-1.4298,-1.4298,-1.4298,-1.4298,-1.4298,-1.4298,-1.4298,-1.4298,-1.4298,-1.4298,-1.4292,-1.5175,-1.7142,-1.6337,-1.7228,-2.0138,-1.7328,-1.6304,-1.725,-1.5283,-1.4298,-1.4298,-1.4298,-1.486,-1.3469,-1.4376,-1.5015,-1.5227,-1.5057,-1.4731,-1.4283,-1.4018,-1.3895,-1.418,-1.3965,-1.3906,-1.4381,-1.5762,-1.6952,-1.7242,-1.8999,-2.0292,-2.0292,-1.9936,-1.9671,-1.9633,-1.9204,-1.892,-1.8827,-1.9161,-1.9558,-1.9885,-2.0194,-2.0551,-2.0901,-2.0181,-1.9657,-1.9391,-1.9587,-2.0232,-2.1318,-2.234,-2.3494,-2.4821,-2.4373,-2.282,-2.028,-2.0014,-1.9367,-1.8423,-1.8059,-1.7427,-1.6645,-1.6298,-1.6178,-1.6151,-1.6151,-1.6042,-1.5891,-1.5891,-1.5891,-1.5891,-1.5891,-1.5891,-1.5891,-1.5891,-1.5891,-1.5891,-1.5891,-1.5891,-1.5891,-1.5891,-1.5891,-1.5945,-1.5998,-1.6051,-1.5984,-1.5722,-1.5582,-1.539,-1.5034,-1.4769,-1.4576,-1.4576,-1.4425,-1.4298,-1.4298,-1.4298,-1.4298,-1.4298,-1.4298,-1.4298,-1.4298,-1.4298,-1.4298,-1.4298,-1.4298,-1.4298,-1.4298,-1.4298,-1.4298,-1.4298,-1.5118,-1.5825,-1.6264,-1.7899,-1.8937,-1.9309,-1.8326,-1.7623,-1.7296,-1.594,-1.4956,-1.4298,-1.4298,-1.486,-1.5056,-1.5806,-1.6016,-1.5954,-1.5713,-1.5253,-1.4203,-1.4046,-1.4108,-1.4061,-1.3652,-1.3346,-1.3361,-1.4601,-1.5569,-1.5547,-1.7546,-1.9134,-1.9296,-1.9264,-1.9237,-1.9455,-1.9178,-1.9026,-1.9026,-1.9344,-1.9686,-1.9893,-2.0194,-2.0551,-2.0901,-2.0233,-1.9754,-1.971,-2.0284,-2.0946,-2.1666,-2.2974,-2.4049,-2.4812,-2.4215,-2.3157,-2.1603,-2.0357,-1.9723,-1.9455,-1.8557,-1.7804,-1.7207,-1.6798,-1.6508,-1.6416,-1.632,-1.6175,-1.6018,-1.5928,-1.5891,-1.5891,-1.5891,-1.5891,-1.5891,-1.5891,-1.5891,-1.5891,-1.5891,-1.5891,-1.5891,-1.5891,-1.5891,-1.5945,-1.5998,-1.6051,-1.6009,-1.5838,-1.5728,-1.5561,-1.5288,-1.504,-1.4829,-1.4739,-1.457,-1.4419,-1.4316,-1.4298,-1.4298,-1.4298,-1.4298,-1.4298,-1.4298,-1.4298,-1.4298,-1.4298,-1.4298,-1.4298,-1.4298,-1.4298,-1.4298,-1.4298,-1.5445,-1.6204,-1.6311,-1.8551,-1.9645,-1.9355,-1.898,-1.8326,-1.7296,-1.6311,-1.5283,-1.4298,-1.4298,-1.4675,-1.6862,-1.7541,-1.7449,-1.6886,-1.6731,-1.6206,-1.423,-1.3942,-1.3933,-1.3374,-1.2988,-1.2689,0.0,0.0,-1.3645,-1.381,-1.5613,-1.7165,-1.7656,-1.8159,-1.8647,-1.9177,-1.9349,-1.9423,-1.9447,-1.9742,-1.9941,-1.9941,-2.0202,-2.0551,-2.0933,-2.0897,-2.0833,-2.0733,-2.211,-2.2789,-2.2686,-2.4064,-2.4739,-2.4611,-2.2963,-2.3008,-2.4465,-1.986,-1.8551,-1.9798,-1.8311,-1.7591,-1.7492,-1.7238,-1.696,-1.6694,-1.6429,-1.6314,-1.6272,-1.6024,-1.5934,-1.5928,-1.5916,-1.5897,-1.5891,-1.5891,-1.5891,-1.5891,-1.5891,-1.5891,-1.5891,-1.5891,-1.5891,-1.5945,-1.6217,-1.6271,-1.6271,-1.6271,-1.6079,-1.5836,-1.5575,-1.5312,-1.5059,-1.4805,-1.4739,-1.463,-1.4364,-1.4304,-1.4298,-1.4298,-1.4298,-1.4298,-1.4298,-1.4298,-1.4298,-1.4298,-1.4298,-1.4298,-1.4298,-1.4298,-1.4298,-1.4298,-1.5235,-1.6217,-1.7203,-1.8226,-1.9209,-2.0147,-1.9263,-1.828,-1.7196,-1.6264,-1.5283,-1.4298,-1.4298,-1.4346,-1.7165,-1.8155,-1.8635,-1.784,-1.7188,-1.6412,-1.5228,-1.4317,-1.3567,-1.304,-1.2288,-1.1611,-1.1137,-1.2247,-1.3545,-1.4474,-1.6544,-1.8306,-1.9208,-1.929,0.0,-1.9816,0.0,-1.9574,-2.0031,-2.0206,-2.0257,-2.0257,-2.0337,-2.0865,-2.1906,-2.0924,-2.0967,-2.2286,-2.2357,-2.2753,-2.3469,-2.4348,-2.3855,-2.203,-1.9787,-1.9884,-2.2006,-2.1434,-2.0679,-1.9856,-1.9444,-1.8629,-1.7505,-1.7441,-1.7231,-1.6984,-1.6911,-1.6767,-1.6585,-1.6519,-1.6495,-1.6465,-1.6254,-1.6054,-1.5891,-1.5891,-1.5891,-1.5891,-1.5891,-1.5891,-1.5891,-1.5891,-1.5891,-1.5945,-1.5998,-1.5998,-1.5998,-1.5998,-1.5949,-1.5895,-1.5789,-1.5584,-1.5378,-1.5312,-1.4986,-1.4592,-1.4355,-1.4279,-1.4298,-1.4298,-1.4298,-1.4298,-1.4298,-1.4298,-1.4298,-1.4298,-1.4298,-1.4298,-1.4298,-1.4298,-1.4298,-1.4298,-1.5235,-1.5934,-1.617,-1.7855,-1.8557,-1.8087,-1.8557,-1.7948,-1.617,-1.594,-1.5283,-1.4298,-1.4298,-1.5092,-1.8247,-1.8926,-1.902,-1.7835,-1.7056,-1.6085,-1.4327,-1.3331,-1.2587,-1.1797,-1.1056,-1.0403,-0.9842,-1.0943,-1.2119,0.0,0.0,0.0,-1.7987,-1.8909,-1.9621,0.0,-2.0014,0.0,-2.0484,-2.0574,-2.0724,-2.0968,-2.102,-2.1396,-2.2061,-2.1629,-2.1975,-2.3261,-2.3018,-2.3308,-2.4213,-2.4629,-2.3777,-2.1632,-1.8851,-1.8753,-2.1075,-2.0492,-2.0282,-2.0382,-1.9334,-1.8311,-1.7485,-1.7485,-1.7394,-1.7249,-1.7135,-1.7002,-1.6857,-1.6742,-1.67,-1.6676,-1.6519,-1.6368,-1.6205,-1.597,-1.5891,-1.5891,-1.5891,-1.5891,-1.5891,-1.5891,-1.5891,-1.5891,-1.5891,-1.5891,-1.5891,-1.5891,-1.5891,-1.5891,-1.5891,-1.5777,-1.5632,-1.5465,-1.5116,-1.4742,-1.4356,-1.4423,-1.4437,-1.4316,-1.4298,-1.4298,-1.4298,-1.4298,-1.4298,-1.4298,-1.4298,-1.4298,-1.4298,-1.4298,-1.4298,-1.4298,-1.5235,-1.5798,-1.5798,-1.7296,-1.7902,-1.7296,-1.7855,-1.739,-1.5798,-1.5798,-1.5283,-1.4298,-1.4298,-1.514,-1.9448,-1.9582,-1.8968,-1.7464,-1.6755,-1.5642,-1.2804,-1.1927,-1.1388,-1.0208,-0.9642,-0.9219,-0.8728,-0.9508,-1.0302,-1.0522,0.0,-1.5303,-1.6021,-1.8111,-1.9641,-1.9872,-2.0435,-2.0799,-2.0848,-2.0886,-2.107,-2.1573,-2.177,-2.1953,-2.2151,-2.2699,-2.3278,-2.3918,-2.3926,-2.4204,-2.4812,-2.4575,-2.3553,-2.1732,-1.8846,-1.8616,-2.0554,-1.8459,-1.8648,-2.0496,-1.8401,-1.7485,-1.7485,-1.7485,-1.7485,-1.7461,-1.7231,-1.7141,-1.7117,-1.6887,-1.6803,-1.6797,-1.6767,-1.673,-1.6616,-1.6109,-1.5946,-1.594,-1.5903,-1.5891,-1.5891,-1.5891,-1.5891,-1.5891,-1.5891,-1.5891,-1.5891,-1.5891,-1.5891,-1.5891,-1.5891,-1.5891,-1.5819,-1.5531,-1.5285,-1.4969,-1.4483,-1.4523,-1.4618,-1.434,-1.4298,-1.4298,-1.4298,-1.4298,-1.4298,-1.4298,-1.4298,-1.4298,-1.4298,-1.4298,-1.4298,-1.4298,-1.514,-1.5609,-1.5609,-1.6593,-1.7055,-1.6922,-1.7016,-1.6593,-1.5609,-1.5609,-1.514,-1.4298,-1.4298,-1.4908,-1.9246,-1.9452,-1.9231,-1.7907,-1.7025,-1.5844,-1.3443,-1.2102,0.0,0.0,-0.8959,-0.8468,-0.7847,-0.8557,-0.9812,-1.1563,-1.3784,-1.588,-1.7705,-1.9293,-2.0356,0.0,-2.0688,-2.0905,-2.1204,-2.1038,-2.0917,-2.1019,-2.1562,-2.2314,-2.3343,-2.3555,-2.3934,-2.4599,-2.4608,-2.4697,-2.4821,-2.348,-2.1338,-1.8332,-1.7745,-1.7707,-1.8096,-1.7667,-1.7726,-1.8089,-1.7667,-1.7485,-1.7485,-1.7485,-1.7485,-1.7479,-1.7436,-1.7412,-1.7406,-1.7364,-1.7346,-1.7316,-1.7098,-1.6881,-1.6646,-1.632,-1.6223,-1.6193,-1.5964,-1.5891,-1.5891,-1.5891,-1.5891,-1.5891,-1.5891,-1.5891,-1.5891,-1.5891,-1.5891,-1.5891,-1.5891,-1.5891,-1.5873,-1.5831,-1.5608,-1.5291,-1.4806,-1.4698,-1.4618,-1.434,-1.4298,-1.4298,-1.4298,-1.4298,-1.4298,-1.4298,-1.4298,-1.4298,-1.4298,-1.4298,-1.4298,-1.4298,-1.4484,-1.458,-1.458,-1.5514,-1.5656,-1.486,-1.5656,-1.5561,-1.458,-1.458,-1.4484,-1.4298,-1.4298,-1.5283,-1.9328,-1.9371,-1.9007,-1.7911,-1.6636,-1.5033,-1.2583,0.0,0.0,0.0,-0.7786,-0.7568,-0.7059,-0.7978,0.0,-1.038,-1.2551,-1.4758,-1.658,-1.8635,-2.0105,-2.0433,-2.0941,-2.1283,-2.131,-2.107,-2.0968,-2.1121,-2.1614,-2.2294,-2.3224,-2.395,-2.4459,-2.4812,-2.4821,-2.4821,-2.4821,-2.4005,-2.1979,-1.872,-1.7896,-1.7477,-1.7485,-1.7485,-1.7485,-1.7485,-1.7485,-1.7485,-1.7485,-1.7485,-1.7485,-1.7485,-1.7485,-1.7485,-1.7485,-1.7485,-1.7485,-1.7443,-1.7183,-1.7008,-1.6833,-1.6416,-1.6193,-1.6066,-1.5934,-1.5891,-1.5891,-1.5891,-1.5891,-1.5891,-1.5891,-1.5891,-1.5891,-1.5891,-1.5891,-1.5891,-1.5891,-1.5891,-1.5891,-1.5891,-1.5789,-1.5561,-1.5182,-1.5095,-1.4986,-1.4576,-1.4515,-1.4461,-1.4316,-1.4298,-1.4298,-1.4298,-1.4298,-1.4298,-1.4298,-1.4298,-1.4298,-1.4298,-1.4298,-1.4298,-1.4298,-1.4765,-1.4813,-1.4298,-1.4765,-1.4765,-1.4298,-1.4298,-1.4298,-1.4292,-1.486,-1.5893,-1.9217,-1.9066,-1.8519,-1.7473,-1.589,-1.3954,-1.1276,-0.9648,0.0,-0.6928,-0.6771,-0.6808,-0.6542,0.0,-0.837,0.0,-1.1158,-1.3397,-1.5154,-1.7715,-1.962,0.0,-2.1031,0.0,-2.1216,-2.1019,-2.0976,-2.1224,-2.1614,-2.2274,-2.3074,-2.4171,-2.4765,-2.471,-2.4774,-2.4783,-2.4783,-2.4811,-2.3162,-1.9882,-1.8293,-1.7485,-1.7485,-1.7485,-1.7485,-1.7485,-1.7485,-1.7485,-1.7485,-1.7485,-1.7485,-1.7485,-1.7485,-1.7485,-1.7485,-1.7485,-1.7449,-1.737,-1.7165,-1.7014,-1.6851,-1.6423,-1.6139,-1.5964,-1.5903,-1.5891,-1.5891,-1.5891,-1.5891,-1.5891,-1.5891,-1.5891,-1.5891,-1.5891,-1.5891,-1.5891,-1.5891,-1.5891,-1.5891,-1.5891,-1.5891,-1.5801,-1.5483,-1.5493,-1.5318,-1.4793,-1.4714,-1.4618,-1.4334,-1.4298,-1.4298,-1.4298,-1.4298,-1.4298,-1.4298,-1.4298,-1.4298,-1.4298,-1.4298,-1.4298,-1.4298,-1.4298,-1.4298,-1.4298,-1.4298,-1.4298,-1.4298,-1.4298,-1.4298,-1.4346,-1.5092,-1.6123,-1.8454,-1.8241,-1.7655,-1.6231,-1.4838,-1.3092,-1.0269,0.0,-0.8211,-0.6811,-0.6493,-0.6462,-0.6483,-0.6645,-0.7205,-0.8536,-1.0673,-1.2919,-1.4993,-1.7522,-1.9393,-2.0135,0.0,0.0,-2.0944,-2.0917,-2.0917,-2.0917,-2.1518,-2.2433,-2.3657,-2.4425,-2.471,-2.4432,-2.4641,-2.4778,-2.4778,-2.4805,-2.3136,-1.9882,-1.8293,-1.7485,-1.7485,-1.7485,-1.7485,-1.7485,-1.7485,-1.7485,-1.7485,-1.7485,-1.7485,-1.7485,-1.7485,-1.7485,-1.7485,-1.7485,-1.7334,-1.7123,-1.7098,-1.6767,-1.6344,-1.6296,-1.6266,-1.6199,-1.5964,-1.5891,-1.5891,-1.5891,-1.5891,-1.5891,-1.5891,-1.5891,-1.5891,-1.5891,-1.5891,-1.5891,-1.5891,-1.5891,-1.5891,-1.5891,-1.5891,-1.5807,-1.5541,-1.5499,-1.5318,-1.4793,-1.4714,-1.4618,-1.4334,-1.4298,-1.4298,-1.4298,-1.4298,-1.4298,-1.4298,-1.4298,-1.4298,-1.4298,-1.4298,-1.4298,-1.4298,-1.4298,-1.4298,-1.4298,-1.4298,-1.4298,-1.4298,-1.4298,-1.4298,-1.4298,-1.4388,-1.5466,-1.6696,-1.7033,-1.7046,-1.5831,-1.4113,-1.231,-1.0692,0.0,-0.7676,-0.6539,-0.6361,-0.6389,-0.6334,-0.6347,-0.6677,-0.77,-0.9138,-1.0868,-1.2999,-1.5428,-1.7506,-1.8907,-1.9902,-2.0603,-2.0869,-2.0925,-2.0925,-2.0925,-2.1143,-2.1803,-2.2889,-2.3603,-2.4085,-2.4376,-2.42,-2.4136,-2.4239,-2.3165,-2.1181,-1.8459,-1.7836,-1.7485,-1.7485,-1.7485,-1.7485,-1.7485,-1.7485,-1.7485,-1.7485,-1.7485,-1.7485,-1.7485,-1.7485,-1.7485,-1.7485,-1.7485,-1.7316,-1.7068,-1.6911,-1.6604,-1.6254,-1.6097,-1.6048,-1.6024,-1.5922,-1.6365,-1.6895,-1.6895,-1.6895,-1.6895,-1.6895,-1.6418,-1.5891,-1.5891,-1.5891,-1.5891,-1.5891,-1.5891,-1.5891,-1.5891,-1.5891,-1.5855,-1.5753,-1.5734,-1.5608,-1.524,-1.5185,-1.5034,-1.4606,-1.4552,-1.4485,-1.4316,-1.4298,-1.4298,-1.4298,-1.4298,-1.4298,-1.4298,-1.4298,-1.4298,-1.4298,-1.4298,-1.4298,-1.4298,-1.4298,-1.4298,-1.4298,-1.4298,-1.4298,-1.4346,-1.5561,-1.6546,-1.5199,-1.5615,-1.5784,-1.4986,-1.3172,-1.1365,-1.0513,-0.8896,-0.7272,-0.6321,-0.6212,-0.626,-0.6163,-0.6184,-0.6417,-0.7056,-0.8158,-0.9681,-1.1741,-1.3899,-1.5915,-1.7763,-1.8694,-1.947,-2.0384,-2.0742,-2.0925,-2.0925,-2.0877,-2.1377,-2.247,-2.2707,-2.3209,-2.4136,-2.3792,-2.3536,-2.3351,-2.1881,-2.005,-1.8033,-1.7674,-1.7485,-1.7485,-1.7485,-1.7713,-1.8058,-1.8058,-1.8058,-1.8058,-1.8058,-1.7824,-1.7485,-1.7485,-1.7436,-1.737,-1.737,-1.7147,-1.6827,-1.664,-1.6398,-1.6133,-1.5946,-1.5891,-1.5945,-1.6311,-1.6948,-1.7529,-1.7213,-1.7107,-1.7107,-1.7107,-1.6524,-1.5891,-1.5891,-1.5891,-1.5891,-1.5891,-1.5891,-1.5891,-1.5891,-1.5891,-1.5891,-1.5891,-1.5891,-1.5801,-1.5535,-1.5499,-1.5336,-1.489,-1.4769,-1.4642,-1.4443,-1.4346,-1.4298,-1.4298,-1.4298,-1.4298,-1.4298,-1.4298,-1.4298,-1.4298,-1.4298,-1.4298,-1.4298,-1.4298,-1.4298,-1.4298,-1.4298,-1.4298,-1.434,-1.6082,-1.7203,-1.4174,-1.3977,-1.3567,-1.3351,-1.1793,-1.0088,-0.9205,-0.8183,-0.713,-0.6201,-0.5997,-0.5997,-0.5997,-0.6113,-0.6337,-0.6751,-0.8196,-0.9959,-1.1838,-1.3419,-1.512,0.0,-1.6786,-1.7199,-1.9233,-2.0321,-2.0925,-2.0925,-2.0925,-2.1493,-2.2819,-2.1941,-2.2049,-2.344,-2.3545,-2.3135,-2.2135,-2.1427,-2.0506,-1.9261,-1.8058,-1.7485,-1.7485,-1.7485,-1.8175,-1.9267,-1.9267,-1.9267,-1.9267,-1.9267,-1.8577,-1.7485,-1.7485,-1.7322,-1.7092,-1.7092,-1.6754,-1.629,-1.629,-1.6115,-1.5891,-1.5891,-1.5891,-1.6105,-1.7265,-1.7582,-1.7371,-1.6258,-1.5945,-1.5945,-1.5945,-1.5891,-1.5891,-1.5891,-1.5891,-1.5891,-1.5891,-1.5891,-1.5891,-1.5891,-1.5891,-1.5891,-1.5891,-1.5891,-1.5801,-1.5535,-1.5499,-1.5403,-1.5137,-1.4877,-1.4714,-1.4714,-1.4461,-1.4298,-1.4298,-1.4298,-1.4298,-1.4298,-1.4298,-1.4298,-1.4298,-1.4298,-1.4298,-1.4298,-1.4298,-1.4298,-1.4298,-1.4298,-1.4298,-1.4346,-1.5324,-1.6875,-1.1487,-1.1708,-1.1791,-1.088,-0.9756,-0.8705,-0.8176,-0.7364,-0.6487,-0.5695,-0.5777,-0.5906,-0.5572,-0.5744,-0.6202,-0.7007,-0.7815,-0.9057,-1.1137,0.0,0.0,-1.7054,-1.8604,-1.9756,-2.035,-2.0726,-2.0925,-2.0925,-2.0925,-2.1195,-2.1857,-2.1578,-2.194,-2.304,-2.2697,-2.2575,-2.2696,-2.0979,-1.9847,-1.9307,-1.8073,-1.7485,-1.7485,-1.7485,-1.7713,-1.8117,-1.8919,-1.9325,-1.9325,-1.9325,-1.9094,-1.8616,-1.7627,-1.7165,-1.7068,-1.6887,-1.6592,-1.6278,-1.6278,-1.6109,-1.5891,-1.5891,-1.6418,-1.7107,-1.7477,-1.8101,-1.861,-1.8237,-1.8185,-1.7825,-1.6311,-1.5891,-1.5891,-1.5891,-1.5891,-1.5891,-1.5891,-1.5891,-1.5891,-1.5891,-1.5891,-1.5891,-1.5891,-1.5891,-1.5861,-1.5777,-1.5765,-1.5674,-1.5409,-1.5149,-1.4914,-1.4739,-1.4467,-1.4298,-1.4298,-1.4298,-1.4298,-1.4298,-1.4298,-1.4298,-1.4298,-1.4298,-1.4298,-1.4298,-1.4298,-1.4298,-1.4298,-1.4298,-1.5003,-1.6358,-1.6687,-1.7902,0.0,-0.989,-1.0096,-0.9283,-0.8569,-0.796,-0.7541,-0.6864,-0.6163,-0.5581,-0.569,-0.5804,-0.5512,-0.5765,-0.6225,-0.6863,-0.7522,-0.8732,-1.0911,0.0,0.0,-1.668,-1.8973,-2.0219,-1.9954,-2.0488,-2.0976,-2.1138,-2.0976,-2.1012,-2.1211,-2.119,-2.151,-2.2103,-2.2044,-2.2007,-2.2064,-2.0287,-1.9164,-1.8765,-1.76,-1.7122,-1.7334,-1.7334,-1.768,-1.8227,-1.8866,-1.9388,0.0,-1.9203,-1.8985,-1.8807,-1.7458,-1.6881,-1.6767,-1.6604,-1.6368,-1.6133,-1.6133,-1.6024,-1.5891,-1.5891,-1.6942,-1.8199,-1.8199,-1.8475,-1.89,-1.9435,-1.8788,-1.7615,-1.6258,-1.5891,-1.5891,-1.5891,-1.5891,-1.5891,-1.5891,-1.5891,-1.5891,-1.5891,-1.5891,-1.5891,-1.5891,-1.5891,-1.5891,-1.5891,-1.5891,-1.5831,-1.5668,-1.533,-1.5046,-1.4883,-1.4521,-1.4298,-1.4298,-1.4298,-1.4298,-1.4298,-1.4298,-1.4298,-1.4298,-1.4298,-1.4298,-1.4298,-1.4298,-1.4298,-1.4298,-1.4675,-1.5704,-1.7296,-1.7716,-1.8821,0.0,-0.8416,-0.8433,-0.8415,-0.8037,-0.7553,-0.718,-0.6603,0.0,-0.5723,-0.568,-0.5712,-0.5723,-0.6078,-0.6396,-0.6482,-0.7448,-0.8957,0.0,-1.2477,0.0,-1.6322,-1.8319,-1.9239,-1.8607,-2.0004,-2.1138,-2.1512,-2.1189,-2.0952,-2.0955,-2.0944,-2.0952,-2.0955,-2.1573,-2.1518,-2.0676,-1.9571,-1.8644,-1.8014,-1.6906,-1.6651,-1.7062,-1.7062,-1.7816,-1.9072,-1.8921,-1.9471,-2.0339,-1.9036,-1.8437,-1.8278,-1.7117,-1.6513,-1.6278,-1.626,-1.6097,-1.5891,-1.5891,-1.5891,-1.5945,-1.6099,-1.7562,-1.9332,-1.9435,-1.8952,-1.8643,-1.9836,-1.8209,-1.6099,-1.5939,-1.5891,-1.5891,-1.5891,-1.5891,-1.5891,-1.5891,-1.5891,-1.5891,-1.5891,-1.5891,-1.5891,-1.5891,-1.5891,-1.5891,-1.5891,-1.5891,-1.5891,-1.5891,-1.5451,-1.5125,-1.5113,-1.4642,-1.4322,-1.4298,-1.4298,-1.4298,-1.4298,-1.4298,-1.4298,-1.4298,-1.4298,-1.4298,-1.4298,-1.4298,-1.4346,-1.4394,-1.5324,-1.6358,-1.7436,-1.8365,-1.9551,-0.6307,0.0,-0.6838,-0.6543,-0.6355,-0.6231,0.0,-0.593,-0.5701,0.0,0.0,0.0,-0.5825,-0.5995,-0.6406,-0.7322,-0.8334,-0.9706,-1.1655,-1.4656,-1.7021,-1.8121,-1.959,-2.0606,-2.0752,-2.1128,-2.1503,-2.1877,-2.1648,-2.1522,-2.1505,-2.1522,-2.1522,-2.1505,-2.148,-2.1394,-2.119,-2.0278,-1.9535,-1.8954,-1.8014,-1.716,-1.6503,-1.6503,-1.6702,-1.7039,-1.7914,-1.8544,-1.8967,-1.8623,-1.8486,-1.8355,-1.6943,-1.6338,-1.626,-1.6054,-1.594,-1.5891,-1.5891,-1.5891,-1.6205,-1.7871,-1.9376,-2.068,-2.1556,-2.1674,-2.113,-1.9159,-1.8496,-1.8028,-1.6365,-1.5891,-1.5891,-1.5891,-1.5891,-1.5891,-1.5891,-1.5891,-1.5891,-1.5891,-1.5891,-1.5891,-1.5891,-1.5891,-1.5891,-1.5891,-1.5891,-1.5891,-1.5891,-1.5608,-1.533,-1.5131,-1.4817,-1.4527,-1.4316,-1.4298,-1.4298,-1.4298,-1.4298,-1.4298,-1.4298,-1.4298,-1.4298,-1.4298,-1.4298,-1.4675,-1.5466,-1.5656,-1.6687,-1.8465,-1.8696,-1.9551,-0.5378,-0.5901,-0.6356,-0.6213,-0.6068,-0.5991,-0.6013,0.0,0.0,0.0,0.0,0.0,0.0,0.0,0.0,-0.804,-0.9414,-1.1116,0.0,-1.6006,-1.8033,-1.8694,-1.9886,-2.081,-2.131,-2.1511,-2.1699,-2.2004,-2.1902,-2.1843,-2.1818,-2.1843,-2.1843,-2.1818,-2.1623,-2.1415,-2.1358,-2.0241,-1.9382,-1.8697,-1.7664,-1.6704,-1.5896,-1.6069,-1.6456,-1.7049,-1.7754,-1.8728,-1.9722,-1.9102,-1.9152,-1.9398,-1.7595,-1.6791,-1.6611,-1.5946,-1.5945,-1.6205,-1.5844,-1.5791,-1.6152,-1.7713,-1.902,-2.0012,-2.0518,-2.1573,-2.2257,-2.0604,-1.8952,-1.7402,-1.6221,-1.5902,-1.5878,-1.5879,-1.5891,-1.5891,-1.5891,-1.5891,-1.5891,-1.5891,-1.5891,-1.5891,-1.5891,-1.5891,-1.5891,-1.5891,-1.5891,-1.5891,-1.5891,-1.5662,-1.5445,-1.5306,-1.5052,-1.4835,-1.4684,-1.4558,-1.4437,-1.4304,-1.4298,-1.4298,-1.4298,-1.4717,-1.5188,-1.5656,-1.5656,-1.5934,-1.6499,-1.6969,-1.7762,-1.8842,-1.948,-2.0234,-0.506,-0.5771,-0.6401,-0.6457,-0.6316,-0.6179,-0.6248,0.0,0.0,0.0,0.0,0.0,0.0,-0.7265,0.0,0.0,-1.0742,-1.297,-1.5225,-1.6908,-1.8073,-1.8623,-1.9565,-2.0411,-2.0982,-2.1395,-2.176,-2.2173,-2.2105,-2.2105,-2.2064,-2.2105,-2.2105,-2.2114,-2.1869,-2.1623,-2.1377,-2.0115,-1.9079,-1.8251,-1.7298,-1.647,-1.589,-1.6169,-1.6934,-1.8057,-1.8097,-1.9213,-2.0872,-1.965,-1.9694,-2.0372,-1.8461,-1.7575,-1.7193,-1.6264,-1.6371,-1.6836,-1.6164,-1.6211,-1.6677,-1.7345,-1.8342,-1.9183,-1.8961,-2.038,-2.2079,-2.2233,-1.945,-1.6483,-1.6842,-1.6599,-1.6194,-1.6187,-1.6051,-1.5891,-1.5891,-1.5891,-1.5891,-1.5891,-1.5891,-1.5891,-1.5891,-1.6045,-1.6152,-1.6152,-1.6311,-1.6411,-1.6411,-1.6212,-1.6056,-1.6012,-1.58,-1.565,-1.5607,-1.5357,-1.5108,-1.495,-1.4671,-1.458,-1.4765,-1.5561,-1.6452,-1.7296,-1.7296,-1.739,-1.7529,-1.8373,-1.8912,-1.916,-2.034,-2.1105,-0.5303,-0.5914,-0.6313,-0.5991,-0.598,-0.597,-0.57,0.0,0.0,0.0,0.0,0.0,0.0,-0.7344,-0.8142,0.0,-1.2625,-1.5036,-1.6804,-1.773,-1.8211,-1.8208,-1.9002,-1.9757,-2.032,-2.0924,-2.1637,-2.2467,-2.2502,-2.2502,-2.2493,-2.2502,-2.2502,-2.2493,-2.2182,-2.1928,-2.1623,-2.1208,-2.0447,-1.9465,-1.925,-1.8743,-1.7932,-1.7984,-1.8268,-1.8671,-1.8674,-1.8974,-1.9502,-1.9049,-1.8982,-1.9086,-1.852,-1.8265,-1.8153,-1.8003,-1.8055,-1.8108,-1.8003,-1.8624,-1.9502,-1.9606,-2.038,-2.1259,-2.1208,-2.0523,-1.984,-2.047,-1.9694,-1.914,-2.1063,-1.9663,-1.7707,-1.743,-1.6577,-1.5891,-1.5891,-1.5891,-1.5891,-1.5891,-1.5891,-1.5891,-1.5891,-1.6683,-1.7318,-1.7318,-1.8087,-1.8708,-1.8708,-1.8665,-1.8537,-1.8324,-1.8253,-1.816,-1.7931,-1.7581,-1.7495,-1.7744,-1.6402,-1.594,-1.6781,-1.7008,-1.7149,-1.7296,-1.7296,-1.7716,-1.8557,-1.8742,-1.9426,-2.0594,-2.0802,-2.1251,-0.5072,-0.548,-0.5819,-0.6145,-0.6501,-0.6774,-0.6836,0.0,0.0,0.0,0.0,0.0,0.0,0.0,-1.0497,-1.3413,-1.5204,-1.6487,-1.7294,-1.7647,-1.7872,-1.8068,-1.8348,-1.8918,-1.9903,-2.0772,-2.1492,-2.2028,-2.2053,-2.2238,-2.2585,-2.2594,-2.2544,-2.2342,-2.2182,-2.1928,-2.1479,-2.1377,-2.0644,-1.945,-1.9606,-1.9124,-1.8171,-1.8335,-1.8805,-1.9524,-1.9487,-1.9901,-2.0526,-2.0431,-2.038,-2.0277,-1.9613,-1.919,-1.902,-1.8878,-1.8565,-1.8258,-1.8893,-1.9153,-1.9146,-1.9034,-1.9709,-2.0593,-2.0577,-2.0546,-2.0259,-1.8887,-1.7967,-1.8226,-2.1683,-2.0362,-1.8276,-1.8936,-1.7925,-1.6842,-1.6842,-1.6311,-1.5891,-1.5891,-1.5891,-1.6099,-1.6736,-1.7265,-1.7786,-1.8356,-1.8864,-1.9176,-1.9176,-1.9176,-1.9169,-1.9023,-1.9008,-1.8877,-1.859,-1.8436,-1.8243,-1.7853,-1.7244,-1.7297,-1.8095,-1.8087,-1.8365,-1.8934,-1.8934,-1.9163,-1.9592,-1.9836,-2.0268,-2.0891,-2.1293,-2.167,-0.4985,-0.5205,-0.5471,-0.6384,0.0,-0.7208,-0.777,-0.7598,0.0,0.0,0.0,0.0,0.0,-1.0095,-1.2748,-1.5913,-1.7041,-1.7534,-1.771,-1.7749,-1.7851,-1.8232,-1.8132,-1.8458,-1.9469,-2.0404,-2.1082,-2.136,-2.1377,-2.1626,-2.2239,-2.2256,-2.2198,-2.2021,-2.203,-2.1674,-2.1011,-2.1224,-2.0644,-1.9339,-1.9797,-1.9472,-1.8485,-1.8961,-1.9635,-2.0467,-2.0483,-2.0952,-2.1725,-2.1623,-2.1623,-2.1522,-2.0652,-2.0122,-1.9901,-1.9642,-1.9235,-1.8826,-1.9672,-1.9517,-1.8938,-1.8722,-1.925,-1.9983,-1.9908,-2.0518,-2.0708,-1.8358,-1.7179,-1.7447,-2.1092,-2.0203,-1.8733,-2.0088,-1.8981,-1.7582,-1.7582,-1.6895,-1.6311,-1.6311,-1.6518,-1.6935,-1.7838,-1.8199,-1.8662,-1.9487,-1.9849,-2.0004,-2.0004,-2.0004,-2.0004,-2.0004,-2.0004,-1.9867,-1.9482,-1.9628,-1.9277,-1.8338,-1.8263,-1.8502,-1.9134,-1.9163,-1.9579,-2.0429,-2.0429,-2.0472,-2.0557,-2.0857,-2.1054,-2.1156,-2.173,-2.2038,-0.5391,-0.5513,-0.5608,-0.6486,-0.6387,0.0,-0.7388,-0.727,0.0,-0.798,0.0,0.0,0.0,-1.1027,-1.3226,-1.5333,-1.7031,-1.8192,-1.8647,-1.8702,-1.871,-1.8742,-1.8758,-1.8776,-1.8855,-1.9517,-2.0132,-2.0725,-2.075,-2.0899,-2.1296,-2.1313,-2.142,-2.1717,-2.1725,-2.1208,-2.0181,-2.0909,-2.0755,-1.9672,-2.0704,-2.0747,-1.9975,-2.1003,-2.1522,-2.1564,-2.1573,-2.1623,-2.1674,-2.142,-2.1326,-2.1326,-2.0968,-2.0814,-2.0814,-2.0763,-2.0763,-2.0712,-2.0771,-2.0763,-2.0712,-2.0712,-2.0763,-2.0822,-2.0814,-2.0328,-1.979,-1.9849,-1.9258,-1.8902,-2.0164,-1.9792,-1.9428,-2.0577,-1.919,-1.7582,-1.7582,-1.7529,-1.7477,-1.7477,-1.8297,-1.8968,-1.9072,-1.9952,-2.068,-2.0783,-2.1666,-2.2342,-2.2342,-2.2342,-2.2342,-2.2342,-2.2342,-2.2189,-2.1775,-2.2104,-2.1968,-2.1179,-1.9971,-1.9552,-2.0164,-2.0192,-2.0417,-2.0831,-2.0886,-2.1002,-2.1328,-2.1353,-2.1559,-2.1919,-2.197,-2.2184,-0.5398,-0.5609,-0.5828,-0.652,-0.68,0.0,0.0,-0.8366,-0.8527,-0.9289,-0.9583,0.0,-1.0923,-1.283,-1.486,-1.6836,-1.7925,-1.8615,-1.8765,-1.8781,-1.8781,-1.8781,-1.8781,-1.8821,-1.8815,-1.901,-1.9458,-2.0107,-2.014,-2.0335,-2.0842,-2.0907,-2.0876,-2.0818,-2.0818,-2.062,-2.0166,-2.073,-2.0525,-1.9613,-2.0754,-2.1216,-2.1105,-2.1318,-2.1471,-2.142,-2.1267,-2.1224,-2.1173,-2.107,-2.107,-2.1019,-2.0917,-2.0925,-2.0925,-2.0925,-2.0925,-2.0925,-2.0925,-2.0925,-2.0925,-2.0925,-2.0925,-2.0917,-2.1121,-2.1054,-2.0834,-2.0431,-2.0218,-2.021,-2.0573,-2.0447,-2.0526,-2.1717,-2.0783,-1.965,-1.965,-1.9079,-1.861,-1.861,-1.8916,-1.9435,-2.0158,-2.0629,-2.114,-2.1869,-2.2333,-2.2594,-2.2594,-2.2594,-2.2594,-2.2594,-2.2388,-2.2294,-2.2379,-2.2252,-2.2081,-2.179,-2.1069,-2.0651,-2.0668,-2.066,-2.0728,-2.0921,-2.1097,-2.1276,-2.1413,-2.1653,-2.185,-2.2004,-2.2285,-2.2465,-0.5648,-0.5863,-0.616,0.0,0.0,0.0,-0.9019,-0.9386,-0.9726,-1.0595,-1.1078,-1.1634,-1.2823,-1.4172,-1.5726,-1.7691,-1.8434,-1.8781,-1.8781,-1.8781,-1.8781,-1.8781,-1.8781,-1.8781,-1.8781,-1.8781,-1.8977,-1.9458,-1.9475,-1.973,-2.0287,-2.0303,-2.0256,-2.0176,-2.0176,-2.0022,-1.9722,-2.0254,-2.0111,-1.9349,-2.0356,-2.0947,-2.1062,-2.1224,-2.1275,-2.1173,-2.0968,-2.0925,-2.0925,-2.0925,-2.0925,-2.0925,-2.0925,-2.0925,-2.0925,-2.0925,-2.0925,-2.0925,-2.0925,-2.0925,-2.0925,-2.0925,-2.0925,-2.0917,-2.1121,-2.1377,-2.1471,-2.1003,-2.1046,-2.1293,-2.1404,-2.1191,-2.1191,-2.2333,-2.1717,-2.0885,-2.0885,-2.0313,-1.9746,-1.9746,-2.0004,-2.0526,-2.1293,-2.1454,-2.1717,-2.2493,-2.2594,-2.2594,-2.2594,-2.2594,-2.2594,-2.2594,-2.2371,-2.2319,-2.2577,-2.2371,-2.2175,-2.2175,-2.1807,-2.1379,-2.09,-2.0883,-2.0934,-2.1045,-2.1285,-2.1525,-2.1773,-2.2038,-2.2175,-2.2175,-2.2474,-2.2594,-0.6274,-0.6352,-0.6582,0.0,0.0,0.0,-0.9759,-1.0092,-1.0409,-1.1803,-1.2817,-1.3687,-1.4659,-1.4869,-1.5576,-1.7518,-1.8367,-1.8781,-1.8781,-1.8781,-1.8781,-1.8781,-1.8781,-1.8781,-1.8781,-1.8781,-1.8781,-1.8781,-1.8781,-1.8986,-1.9352,-1.9368,-1.9566,-1.9893,-1.9901,-1.9455,-1.8614,-1.9462,-1.9609,-1.8992,-1.9609,-1.9836,-1.9724,-2.0806,-2.1173,-2.0925,-2.0925,-2.0925,-2.0925,-2.0925,-2.0925,-2.0925,-2.0925,-2.0925,-2.0925,-2.0925,-2.0925,-2.0925,-2.0925,-2.0925,-2.0925,-2.0925,-2.0925,-2.0925,-2.0925,-2.107,-2.1377,-2.1623,-2.1869,-2.2182,-2.2493,-2.1759,-2.12,-2.2333,-2.1717,-2.0936,-2.0936,-2.0936,-2.0936,-2.0936,-2.1818,-2.2594,-2.2594,-2.2594,-2.2594,-2.2594,-2.2594,-2.2594,-2.2594,-2.2594,-2.2594,-2.2594,-2.2594,-2.2594,-2.2594,-2.2594,-2.2594,-2.2594,-2.2251,-2.1662,-2.0917,-2.0891,-2.1062,-2.1413,-2.1422,-2.179,-2.2594,-2.2594,-2.2594,-2.2594,-2.2594,-2.2594,-0.6983,-0.7017,0.0,-0.7461,0.0,0.0,0.0,-1.0106,0.0,0.0,-1.4394,-1.5461,-1.5362,-1.6323,-1.7451,-1.8371,-1.8685,-1.8781,-1.8781,-1.8781,-1.8781,-1.8781,-1.8781,-1.8781,-1.8781,-1.8781,-1.8781,-1.8781,-1.8781,-1.8829,-1.8978,-1.8994,-1.9034,-1.9129,-1.9137,-1.9082,-1.9028,-1.9573,-1.9702,-1.9495,-1.995,-2.0262,-2.0493,-2.0594,-2.0737,-2.0925,-2.0925,-2.0925,-2.0925,-2.0925,-2.0925,-2.0925,-2.0925,-2.0925,-2.0925,-2.0925,-2.0925,-2.0925,-2.0925,-2.0925,-2.0925,-2.0925,-2.0925,-2.0925,-2.0925,-2.107,-2.1377,-2.1623,-2.1869,-2.2182,-2.2493,-2.2333,-2.2182,-2.2544,-2.2342,-2.208,-2.208,-2.208,-2.208,-2.208,-2.2392,-2.2594,-2.2594,-2.2594,-2.2594,-2.2594,-2.2594,-2.2594,-2.2594,-2.2594,-2.2594,-2.2594,-2.2594,-2.2594,-2.2594,-2.2594,-2.2594,-2.2594,-2.2827,-2.2607,-2.1719,-2.167,-2.1713,-2.1824,-2.2073,-2.2371,-2.2594,-2.332,-2.366,-2.366,-2.4433,-2.4393,-0.7587,-0.7821,0.0,-0.878,-0.9533,-1.0367,-1.1528,0.0,0.0,0.0,-1.5545,-1.6653,-1.6448,-1.7414,-1.8332,-1.8734,-1.8825,-1.8781,-1.8781,-1.8781,-1.8781,-1.8781,-1.8781,-1.8781,-1.8781,-1.8781,-1.8781,-1.8781,-1.8781,-1.8781,-1.8781,-1.8781,-1.8781,-1.8781,-1.8781,-1.8874,-1.905,-1.9275,-1.9379,-1.9333,-1.9597,-1.9894,-2.0232,-2.0221,-2.0297,-2.0504,-2.0504,-2.0583,-2.071,-2.071,-2.0798,-2.0925,-2.0925,-2.0925,-2.0925,-2.0925,-2.0925,-2.0925,-2.0925,-2.0925,-2.0925,-2.0925,-2.0925,-2.0925,-2.0925,-2.1019,-2.1224,-2.1573,-2.1827,-2.203,-2.2493,-2.2594,-2.2594,-2.2594,-2.2594,-2.2594,-2.2594,-2.2594,-2.2594,-2.2594,-2.2594,-2.2594,-2.2594,-2.2594,-2.2594,-2.2594,-2.2594,-2.2594,-2.2594,-2.2594,-2.2594,-2.2594,-2.2594,-2.2594,-2.2594,-2.2987,-2.322,-2.322,-2.3682,-2.3825,-2.3505,-2.3157,-2.3018,-2.3229,-2.3156,-2.3224,-2.3395,-2.4005,-2.4289,-2.4298,-2.5286,-2.5353,-0.8017,0.0,0.0,-1.0903,-1.1123,0.0,-1.4035,-1.4407,-1.4475,-1.5261,-1.6529,-1.7584,-1.7871,-1.8231,-1.8582,-1.8864,-1.892,-1.8874,-1.8874,-1.8827,-1.8781,-1.8781,-1.8781,-1.8781,-1.8781,-1.8781,-1.8781,-1.8781,-1.8781,-1.8781,-1.8781,-1.8781,-1.8781,-1.8781,-1.8781,-1.8781,-1.8781,-1.8781,-1.8781,-1.8781,-1.8781,-1.9002,-1.9336,-1.9718,-1.9885,-1.9917,-1.9917,-2.01,-2.0345,-2.0345,-2.0535,-2.0821,-2.0821,-2.0821,-2.0829,-2.0861,-2.0869,-2.0877,-2.0909,-2.0925,-2.0925,-2.0925,-2.0925,-2.0925,-2.0925,-2.0925,-2.1019,-2.1573,-2.1725,-2.1869,-2.24,-2.2551,-2.2534,-2.25,-2.2551,-2.2594,-2.2594,-2.2594,-2.2594,-2.2594,-2.2594,-2.2594,-2.2594,-2.2594,-2.2594,-2.2594,-2.2594,-2.2594,-2.2594,-2.2594,-2.2594,-2.2594,-2.2619,-2.2693,-2.2693,-2.357,-2.4144,-2.4181,-2.467,-2.5261,-2.5828,-2.4957,-2.4619,-2.5067,-2.4396,-2.419,-2.4497,-2.4592,-2.4659,-2.4755,-2.5516,-2.5857,-0.7795,-0.8696,0.0,0.0,-1.1328,-1.2466,-1.4097,-1.523,-1.6342,-1.7743,-1.8862,-1.9645,-1.972,-1.9807,-1.9881,-1.9957,-1.9691,-1.9417,-1.9417,-1.9058,-1.8781,-1.8781,-1.8781,-1.8781,-1.8781,-1.8781,-1.8781,-1.8781,-1.8781,-1.8781,-1.8781,-1.8781,-1.8781,-1.8781,-1.8781,-1.8781,-1.8781,-1.8781,-1.8781,-1.8781,-1.8781,-1.8867,-1.8955,-1.932,-1.967,-1.9917,-2.0087,-2.0078,-2.0028,-2.0207,-2.019,-2.014,-2.014,-2.014,-2.0172,-2.0408,-2.0512,-2.0551,-2.0821,-2.0925,-2.0925,-2.0925,-2.0925,-2.0925,-2.0925,-2.107,-2.1275,-2.1623,-2.1869,-2.2013,-2.2085,-2.2115,-2.2038,-2.1722,-2.2156,-2.2594,-2.2594,-2.2594,-2.2594,-2.2594,-2.2594,-2.2594,-2.2594,-2.2594,-2.2594,-2.2594,-2.2594,-2.2594,-2.2594,-2.2594,-2.2594,-2.2594,-2.2964,-2.3219,-2.3219,-2.3804,-2.4315,-2.4698,-2.5259,-2.5982,-2.6815,-2.5535,-2.479,-2.4697,-2.4554,-2.4212,-2.3758,-2.4597,-2.5275,-2.5886,-2.6837,-2.7149,-0.801,0.0,0.0,-1.1418,0.0,-1.3974,-1.5439,-1.6667,-1.7903,-1.9318,-1.9964,-2.0292,-2.0292,-2.0175,-2.0121,-2.0283,-2.0226,-2.0044,-1.9646,-1.9371,-1.9104,-1.8827,-1.8781,-1.8781,-1.8781,-1.8781,-1.8781,-1.8781,-1.8781,-1.8781,-1.8781,-1.8781,-1.8781,-1.8781,-1.8781,-1.8781,-1.8781,-1.8781,-1.8781,-1.8781,-1.8781,-1.8781,-1.8835,-1.9026,-1.9209,-1.9368,-1.9478,-1.9582,-1.9678,-1.979,-1.9838,-1.9917,-1.9917,-1.9917,-1.9933,-2.0124,-2.0138,-2.017,-2.0353,-2.0416,-2.044,-2.0615,-2.067,-2.0702,-2.1022,-2.1173,-2.1369,-2.1776,-2.1971,-2.2097,-2.204,-2.1996,-2.1901,-2.1508,-2.1713,-2.2105,-2.2294,-2.2328,-2.2388,-2.256,-2.2594,-2.2594,-2.2594,-2.2594,-2.2594,-2.2594,-2.2594,-2.2594,-2.2594,-2.2594,-2.2676,-2.2982,-2.321,-2.3485,-2.3748,-2.4744,-2.5391,-2.5668,-2.6401,-2.7091,-2.7568,-2.649,-2.5987,-2.6062,-2.5776,-2.5223,-2.451,-2.5062,-2.5544,-2.5962,-2.7139,-2.7586,-0.8057,0.0,-1.0564,-1.2842,-1.4241,0.0,-1.698,-1.7971,-1.8924,-2.0138,-2.0411,-2.0459,-2.0459,-2.0251,-2.0232,-2.051,-2.0698,-2.0579,-1.9837,-1.9646,-1.9417,-1.8874,-1.8781,-1.8781,-1.8781,-1.8781,-1.8781,-1.8781,-1.8781,-1.8781,-1.8781,-1.8781,-1.8781,-1.8781,-1.8781,-1.8781,-1.8781,-1.8781,-1.8781,-1.8781,-1.8781,-1.8781,-1.8781,-1.8781,-1.8781,-1.8781,-1.8781,-1.9002,-1.928,-1.928,-1.9439,-1.9734,-1.9734,-1.9734,-1.9742,-1.9805,-1.9829,-1.9837,-1.9893,-1.9917,-1.9972,-2.0281,-2.0392,-2.0506,-2.1119,-2.1318,-2.1471,-2.1979,-2.208,-2.2055,-2.1946,-2.185,-2.1704,-2.1311,-2.1216,-2.1345,-2.1799,-2.1944,-2.209,-2.2439,-2.2551,-2.2594,-2.2594,-2.2594,-2.2594,-2.2594,-2.2594,-2.2594,-2.2594,-2.2685,-2.2918,-2.3363,-2.3647,-2.3975,-2.445,-2.5819,-2.6685,-2.6769,-2.7449,-2.7858,-2.7945,-2.7309,-2.7067,-2.7334,-2.68,-2.6142,-2.5405,-2.5405,-2.549,-2.5628,-2.68,-2.739,0.0,0.0,-1.1821,0.0,-1.5095,-1.6174,0.0,0.0,-1.8854,-1.9784,-2.0513,-2.0973,-2.0973,-2.1254,-2.1454,-2.1508,-2.1195,-2.0781,-2.0292,-1.9874,-1.9417,-1.8874,-1.8781,-1.8781,-1.8781,-1.8781,-1.8781,-1.8781,-1.8781,-1.8781,-1.8781,-1.8781,-1.8781,-1.8781,-1.8781,-1.8781,-1.8781,-1.8781,-1.8781,-1.8781,-1.8781,-1.8781,-1.8781,-1.8781,-1.8781,-1.8781,-1.8781,-1.8805,-1.8899,-1.8899,-1.8931,-1.897,-1.897,-1.897,-1.9002,-1.932,-1.9487,-1.9527,-1.9813,-1.9917,-1.9972,-2.0281,-2.0392,-2.0506,-2.1119,-2.1471,-2.1725,-2.2021,-2.2063,-2.1929,-2.1585,-2.1259,-2.0925,-2.0531,-2.0446,-2.0634,-2.1336,-2.1756,-2.2013,-2.2064,-2.2379,-2.2594,-2.2594,-2.2594,-2.2594,-2.2594,-2.2594,-2.2594,-2.2594,-2.2996,-2.3341,-2.3384,-2.4641,-2.5498,-2.5583,-2.6591,-2.7365,-2.7776,-2.7374,-2.7331,-2.7707,-2.7106,-2.6466,-2.5885,-2.5777,-2.5384,-2.4633,-2.4633,-2.4959,-2.5607,-2.5777,-2.6229,-0.8312,-1.0124,-1.2049,0.0,-1.5178,-1.6184,-1.7187,-1.807,-1.8825,-1.9451,-2.0044,-2.0585,-2.1025,-2.1431,-2.1697,-2.1704,-2.1553,-2.123,-2.0781,-2.0501,-2.0093,-1.9325,-1.9234,-1.9142,-1.8827,-1.8781,-1.8781,-1.8781,-1.8781,-1.8781,-1.8781,-1.8781,-1.8781,-1.8781,-1.8781,-1.8781,-1.8781,-1.8781,-1.8781,-1.8781,-1.8781,-1.8781,-1.8781,-1.8781,-1.8781,-1.8781,-1.8781,-1.8781,-1.8781,-1.8781,-1.8781,-1.8781,-1.8781,-1.8781,-1.8797,-1.901,-1.9066,-1.909,-1.9233,-1.928,-1.9344,-1.9701,-2.0053,-2.0474,-2.1063,-2.156,-2.1979,-2.2283,-2.2178,-2.1901,-2.1508,-2.1148,-2.078,-2.0386,-2.0292,-2.0386,-2.0711,-2.1088,-2.1499,-2.1919,-2.2295,-2.2594,-2.2594,-2.2594,-2.2594,-2.2594,-2.2594,-2.2594,-2.2594,-2.309,-2.3616,-2.4173,-2.5195,-2.6034,-2.6583,-2.7288,-2.7608,-2.7453,-2.7417,-2.7175,-2.6719,-2.6294,-2.579,-2.5218,-2.5471,-2.5256,-2.4497,-2.4497,-2.4686,-2.5013,-2.5676,-2.6173,0.0,0.0,-1.1552,-1.3687,-1.4949,-1.5982,0.0,-1.8053,-1.8738,-1.9219,-1.9549,-1.9939,-2.0677,-2.1114,-2.1432,-2.152,-2.1531,-2.1435,-2.1069,-2.0997,-2.0628,-1.9729,-1.9592,-1.9371,-1.8874,-1.8781,-1.8781,-1.8781,-1.8781,-1.8781,-1.8781,-1.8781,-1.8781,-1.8781,-1.8781,-1.8781,-1.8781,-1.8781,-1.8781,-1.8781,-1.8781,-1.8781,-1.8781,-1.8781,-1.8781,-1.8781,-1.8781,-1.8781,-1.8781,-1.8781,-1.8781,-1.8781,-1.8781,-1.8781,-1.8781,-1.8781,-1.8781,-1.8781,-1.8781,-1.8781,-1.8891,-1.9256,-1.9742,-2.0273,-2.0999,-2.157,-2.2064,-2.2467,-2.2259,-2.1782,-2.149,-2.1071,-2.0651,-2.036,-2.0292,-2.0317,-2.042,-2.0746,-2.1208,-2.1867,-2.2295,-2.2594,-2.2594,-2.2594,-2.2594,-2.2594,-2.2594,-2.266,-2.2807,-2.3362,-2.4136,-2.5014,-2.588,-2.6674,-2.7401,-2.7738,-2.7702,-2.721,-2.7162,-2.677,-2.5847,-2.5492,-2.5141,-2.4786,-2.512,-2.5044,-2.4497,-2.4497,-2.454,-2.4711,-2.5583,-2.6097,0.0,-0.9423,0.0,-1.3018,-1.4532,-1.5701,-1.7169,-1.7951,-1.8574,-1.918,-1.932,-1.9467,-1.9866,-2.0301,-2.0686,-2.1071,-2.1135,-2.1098,-2.1033,-2.0997,-2.0628,-1.9729,-1.9592,-1.9371,-1.8874,-1.8781,-1.8781,-1.8781,-1.8781,-1.8781,-1.8781,-1.8781,-1.8781,-1.8781,-1.8781,-1.8781,-1.8781,-1.8781,-1.8781,-1.8781,-1.8781,-1.8781,-1.8781,-1.8781,-1.8781,-1.8781,-1.8781,-1.8781,-1.8781,-1.8781,-1.8781,-1.8781,-1.8781,-1.8781,-1.8781,-1.8781,-1.8781,-1.8781,-1.8781,-1.8781,-1.8891,-1.9256,-1.9565,-1.9932,-2.0917,-2.1403,-2.1752,-2.2399,-2.2062,-2.143,-2.1413,-2.0874,-2.0317,-2.0292,-2.0292,-2.0394,-2.0771,-2.1131,-2.1508,-2.1919,-2.2295,-2.2594,-2.2594,-2.2594,-2.2594,-2.2594,-2.2594,-2.2757,-2.3311,-2.4231,-2.5051,-2.57,-2.7043,-2.7913,-2.7958,-2.7798,-2.7718,-2.7685,-2.6411,-2.5704,-2.5607,-2.4928,-2.456,-2.4497,-2.4518,-2.4528,-2.4497,-2.4497,-2.4743,-2.5158,-2.5221,-2.5486,0.0,0.0,0.0,-1.2184,-1.3382,-1.454,-1.599,-1.6807,-1.7541,-1.8695,-1.9136,-1.9332,-1.9506,-1.982,-2.0232,-2.0668,-2.0943,-2.1076,-2.1082,-2.1291,-2.1096,-2.0147,-2.0056,-1.9737,-1.8874,-1.8781,-1.8781,-1.8781,-1.8781,-1.8781,-1.8781,-1.8781,-1.8781,-1.8781,-1.8781,-1.8781,-1.8781,-1.8781,-1.8781,-1.8781,-1.8781,-1.8781,-1.8781,-1.8781,-1.8781,-1.8781,-1.8781,-1.8781,-1.8781,-1.8781,-1.8781,-1.8781,-1.8781,-1.8781,-1.8781,-1.8781,-1.8781,-1.8781,-1.8781,-1.8781,-1.8805,-1.8978,-1.945,-2.0007,-2.0357,-2.0942,-2.1508,-2.1782,-2.1456,-2.1071,-2.1071,-2.0686,-2.0292,-2.0292,-2.0292,-2.0508,-2.1274,-2.1704,-2.191,-2.1638,-2.2456,-2.2916,-2.2341,-2.2439,-2.2517,-2.2227,-2.2448,-2.2798,-2.3332,-2.4032,-2.4927,-2.6141,-2.6657,-2.7159,-2.7766,-2.7368,-2.6843,-2.639,-2.5874,-2.5394,-2.4918,-2.4623,-2.4497,-2.4497,-2.4786,-2.4956,-2.4956,-2.4956,-2.5211,-2.5644,-2.5904,-2.6113,-0.8077,0.0,0.0,0.0,-1.1949,-1.2939,-1.4969,-1.5839,-1.6603,-1.8017,-1.8739,-1.9112,-1.9111,-1.9439,-1.9802,-2.0052,-2.0325,-2.0641,-2.1019,-2.1171,-2.0998,-2.0365,-2.0155,-1.9737,-1.8874,-1.8781,-1.8827,-1.892,-1.8874,-1.8827,-1.892,-1.8827,-1.8781,-1.8781,-1.8781,-1.8781,-1.8781,-1.9142,-1.9317,-1.9317,-1.9317,-1.9317,-1.9271,-1.8958,-1.8781,-1.8781,-1.8781,-1.8781,-1.8781,-1.8781,-1.8781,-1.8781,-1.8781,-1.8781,-1.8781,-1.8781,-1.8781,-1.8781,-1.8781,-1.8781,-1.8781,-1.8781,-1.9311,-1.9951,-2.0066,-2.0651,-2.1259,-2.1379,-2.1156,-2.0883,-2.0883,-2.0583,-2.0292,-2.0292,-2.0555,-2.0952,-2.157,-2.2025,-2.2171,-2.1778,-2.2521,-2.2886,-2.1936,-2.2004,-2.218,-2.2174,-2.2397,-2.2846,-2.3636,-2.4195,-2.495,-2.6163,-2.639,-2.6689,-2.7302,-2.6713,-2.6131,-2.5628,-2.5373,-2.5024,-2.4507,-2.4658,-2.4743,-2.4743,-2.5211,-2.5496,-2.5653,-2.5496,-2.5675,-2.6093,-2.6362,-2.6569,0.0,0.0,0.0,-0.9922,-1.0315,-1.1103,-1.4075,-1.507,-1.5752,-1.7157,-1.8082,-1.865,-1.8649,-1.9017,-1.9274,-1.9268,-1.9299,-1.9727,-2.0909,-2.0699,-2.0369,-2.026,-1.9886,-1.9384,-1.8858,-1.8812,-1.8904,-1.9188,-1.8966,-1.892,-1.9188,-1.8966,-1.8781,-1.8781,-1.8781,-1.8827,-1.8827,-1.9803,-2.0294,-2.0339,-2.0339,-2.0348,-2.0257,-1.9271,-1.8827,-1.8781,-1.8827,-1.8827,-1.8827,-1.8827,-1.8827,-1.8827,-1.8827,-1.8827,-1.8827,-1.8827,-1.8827,-1.8781,-1.8781,-1.8781,-1.8781,-1.8781,-1.9166,-1.9653,-1.9984,-2.0474,-2.0981,-2.1276,-2.1131,-2.0903,-2.0912,-2.0583,-2.0292,-2.0337,-2.1042,-2.1739,-2.1784,-2.2106,-2.2355,-2.2318,-2.2621,-2.2548,-2.1627,-2.1453,-2.1683,-2.2425,-2.2528,-2.2991,-2.4222,-2.4821,-2.5284,-2.5824,-2.6372,-2.666,-2.667,-2.5992,-2.5586,-2.5586,-2.4918,-2.4497,-2.4497,-2.4946,-2.52,-2.52,-2.5675,-2.6093,-2.6487,-2.6093,-2.6135,-2.6528,-2.6528,-2.6745,-0.7431,0.0,0.0,0.0,0.0,0.0,-1.1652,-1.2941,-1.4344,-1.564,-1.6374,-1.7106,-1.8091,-1.8813,-1.9166,-1.8786,-1.9294,-1.9857,-2.0177,-2.0376,-2.0211,-1.96,-1.9391,-1.9098,-1.8512,-1.8446,-1.864,-1.9171,-1.9142,-1.9096,-1.9188,-1.8966,-1.8781,-1.8781,-1.8781,-1.9142,-1.9903,-2.0158,-2.0656,-2.1329,-2.1329,-2.097,-2.0303,-2.0031,-1.9492,-1.8827,-1.9583,-1.9894,-1.9849,-1.9096,-1.9225,-1.9894,-1.9894,-1.9894,-1.9894,-1.9894,-1.9409,-1.8781,-1.8781,-1.8781,-1.8781,-1.8781,-1.9012,-1.9358,-1.9649,-2.04,-2.1084,-2.0704,-2.1018,-2.1338,-2.0629,-2.0377,-2.0464,-2.1168,-2.1516,-2.2094,-2.3444,-2.3804,-2.3775,-2.3387,-2.3405,-2.329,-2.2833,-2.2432,-2.2344,-2.2797,-2.3057,-2.3511,-2.4312,-2.4506,-2.4937,-2.5793,-2.5592,-2.5526,-2.5864,-2.5246,-2.4812,-2.4812,-2.4612,-2.4658,-2.4988,-2.5115,-2.5369,-2.5675,-2.6124,-2.6404,-2.6487,-2.6404,-2.658,-2.7015,-2.7015,-2.7097,-0.7749,-0.8232,-0.89,-0.863,0.0,0.0,-1.0985,-1.2056,-1.3259,-1.4675,-1.5473,-1.6221,-1.7176,-1.8018,-1.8443,-1.8117,-1.8841,-1.95,-1.9838,-1.9911,-1.9784,-1.9239,-1.899,-1.8677,-1.8145,-1.8081,-1.8301,-1.886,-1.8787,-1.8815,-1.8961,-1.8795,-1.8722,-1.8781,-1.8781,-1.9271,-2.0303,-2.0709,-2.1373,-2.2262,-2.2262,-2.1996,-2.1454,-2.106,-2.0574,-2.0039,-2.0619,-2.0881,-2.0836,-2.0266,-2.0348,-2.0881,-2.0881,-2.0881,-2.0881,-2.0881,-2.0529,-1.9994,-1.9994,-1.9994,-1.9994,-1.9994,-2.0266,-2.0574,-2.0727,-2.1382,-2.1952,-2.1561,-2.1872,-2.2183,-2.1606,-2.1472,-2.1606,-2.2129,-2.257,-2.3183,-2.4274,-2.4797,-2.4881,-2.4186,-2.3983,-2.3708,-2.3175,-2.2745,-2.2647,-2.3143,-2.3361,-2.3754,-2.4341,-2.4432,-2.4661,-2.5237,-2.4953,-2.4848,-2.5129,-2.4738,-2.4497,-2.4497,-2.4658,-2.4903,-2.52,-2.5527,-2.5874,-2.6135,-2.658,-2.6787,-2.6787,-2.6787,-2.6921,-2.719,-2.719,-2.719,-0.8372,-0.8496,-0.8863,-0.9136,-0.9197,0.0,-1.1206,-1.181,-1.2424,-1.377,-1.4732,-1.5423,-1.5774,-1.6547,-1.7147,-1.7101,-1.7889,-1.8815,-1.9637,-1.9457,-1.9188,-1.9092,-1.8649,-1.8177,-1.7802,-1.7759,-1.7991,-1.8465,-1.83,-1.8316,-1.8552,-1.8568,-1.8595,-1.8756,-1.8864,-1.9413,-2.0439,-2.1418,-2.2403,-2.328,-2.3313,-2.327,-2.3052,-2.2217,-2.1784,-2.1695,-2.1828,-2.1872,-2.1872,-2.1961,-2.1961,-2.1872,-2.1872,-2.1872,-2.1872,-2.1872,-2.1784,-2.1695,-2.1695,-2.1695,-2.1695,-2.1695,-2.2006,-2.235,-2.2394,-2.279,-2.3226,-2.3226,-2.3183,-2.3096,-2.3096,-2.3096,-2.3139,-2.3226,-2.3887,-2.4541,-2.4627,-2.5327,-2.5644,-2.4807,-2.4413,-2.3983,-2.3193,-2.279,-2.2799,-2.3493,-2.3634,-2.3851,-2.4411,-2.4497,-2.4497,-2.4497,-2.4497,-2.454,-2.4583,-2.4583,-2.4583,-2.4668,-2.5041,-2.5285,-2.5316,-2.6113,-2.6528,-2.6569,-2.7015,-2.719,-2.719,-2.719,-2.719,-2.719,-2.719,-2.719,-1.0052,-1.0029,-0.9986,-0.9357,-1.0109,0.0,-0.9706,-1.0589,-1.1544,-1.1326,-1.2089,-1.2832,-1.2917,-1.4094,-1.4983,-1.4673,-1.6092,-1.766,-1.8788,-1.914,-1.9008,-1.8327,-1.8131,-1.7879,-1.7435,-1.7536,-1.7896,-1.8448,-1.8611,-1.8601,-1.8529,-1.8319,-1.8262,-1.839,-1.9109,-2.0136,-2.1418,-2.2736,-2.3681,-2.4229,-2.4594,-2.4188,-2.3096,-2.2921,-2.2394,-2.1739,-2.2482,-2.2833,-2.2877,-2.3647,-2.3517,-2.2833,-2.2833,-2.2833,-2.2833,-2.2833,-2.235,-2.1695,-2.1695,-2.1695,-2.1695,-2.1695,-2.1863,-2.2129,-2.235,-2.3096,-2.3963,-2.4188,-2.3661,-2.3096,-2.3096,-2.3096,-2.327,-2.4059,-2.437,-2.4712,-2.5464,-2.577,-2.5812,-2.5433,-2.485,-2.4498,-2.4712,-2.4059,-2.3714,-2.4229,-2.4282,-2.4368,-2.4497,-2.4497,-2.4497,-2.4497,-2.4497,-2.4658,-2.5031,-2.5073,-2.5211,-2.5601,-2.5728,-2.5926,-2.6238,-2.6404,-2.6663,-2.7056,-2.7149,-2.719,-2.719,-2.719,-2.719,-2.719,-2.719,-2.719,-1.1378,-1.1028,-1.0855,-1.0696,-1.0763,0.0,0.0,-1.056,-1.0985,-1.1253,-1.1559,-1.1929,-1.2325,-1.3231,-1.3837,-1.3626,-1.5111,-1.6376,-1.6587,-1.7834,-1.8445,-1.7826,-1.7922,-1.7866,-1.7416,-1.7549,-1.7772,-1.8079,-1.8313,-1.8356,-1.8201,-1.8498,-1.8658,-1.8685,-1.9549,-2.0678,-2.2038,-2.2988,-2.3931,-2.4871,-2.5073,-2.485,-2.4145,-2.3897,-2.3681,-2.3444,-2.3681,-2.394,-2.4155,-2.4401,-2.4229,-2.382,-2.382,-2.382,-2.382,-2.382,-2.3507,-2.3115,-2.3115,-2.3115,-2.3115,-2.3236,-2.3444,-2.3661,-2.393,-2.4456,-2.502,-2.5158,-2.485,-2.4498,-2.4498,-2.4498,-2.4627,-2.5105,-2.52,-2.5285,-2.5686,-2.5728,-2.5686,-2.5464,-2.5115,-2.4893,-2.5031,-2.4562,-2.4219,-2.4454,-2.4497,-2.4497,-2.4497,-2.4497,-2.4497,-2.4497,-2.4497,-2.47,-2.5158,-2.52,-2.5422,-2.5853,-2.6093,-2.629,-2.6487,-2.6704,-2.6974,-2.719,-2.719,-2.719,-2.719,-2.719,-2.719,-2.719,-2.719,-2.719,-1.2861,-1.2187,-1.1874,-1.2062,-1.1435,-1.0824,0.0,0.0,0.0,-1.1467,-1.1384,-1.1357,-1.2,-1.2459,-1.269,-1.2608,-1.4011,-1.4857,-1.4153,-1.597,-1.7314,-1.7079,-1.7601,-1.7823,-1.7282,-1.7371,-1.7528,-1.7752,-1.778,-1.7831,-1.7788,-1.8648,-1.9114,-1.8991,-1.9946,-2.1132,-2.2526,-2.3168,-2.4127,-2.5327,-2.5411,-2.5369,-2.52,-2.4828,-2.4786,-2.5031,-2.4743,-2.4786,-2.5031,-2.4743,-2.4583,-2.4497,-2.4497,-2.4497,-2.4497,-2.4497,-2.4497,-2.4497,-2.4497,-2.4497,-2.454,-2.4828,-2.5073,-2.5338,-2.5601,-2.578,-2.5895,-2.5895,-2.5895,-2.5895,-2.5895,-2.5895,-2.5895,-2.5895,-2.5853,-2.5822,-2.5654,-2.5559,-2.5433,-2.52,-2.5158,-2.5073,-2.4946,-2.4743,-2.454,-2.4497,-2.4497,-2.4497,-2.4497,-2.4583,-2.4615,-2.4615,-2.4711,-2.4956,-2.5411,-2.5454,-2.5664,-2.6104,-2.6467,-2.661,-2.661,-2.7015,-2.719,-2.719,-2.719,-2.719,-2.719,-2.719,-2.719,-2.719,-2.719,-2.719,-1.5179,-1.4321,-1.3452,-1.2437,-1.231,-1.1972,-1.0291,0.0,-1.068,-1.0089,0.0,-0.9932,-1.0024,0.0,0.0,-1.0171,-1.1752,-1.2883,-1.2431,-1.3836,-1.5006,-1.5346,-1.6795,-1.7452,-1.6674,-1.6552,-1.6955,-1.7884,-1.7493,-1.7283,-1.7465,-1.847,-1.8873,-1.8581,-2.0198,-2.1722,-2.3032,-2.4312,-2.525,-2.5812,-2.6166,-2.5946,-2.52,-2.5158,-2.4914,-2.4583,-2.4946,-2.4903,-2.4625,-2.4988,-2.4871,-2.4497,-2.4497,-2.4497,-2.4497,-2.4497,-2.4497,-2.4497,-2.4497,-2.4497,-2.454,-2.4828,-2.5211,-2.5601,-2.5812,-2.5895,-2.5895,-2.5895,-2.5895,-2.5895,-2.5895,-2.5895,-2.5895,-2.5895,-2.577,-2.5644,-2.5601,-2.5422,-2.52,-2.4988,-2.4946,-2.4946,-2.4903,-2.4861,-2.4775,-2.454,-2.4497,-2.4497,-2.4497,-2.4871,-2.5115,-2.5115,-2.5506,-2.5895,-2.6321,-2.6362,-2.6539,-2.7015,-2.7108,-2.7108,-2.7108,-2.719,-2.719,-2.719,-2.719,-2.719,-2.719,-2.719,-2.719,-2.719,-2.719,-2.719,-1.5616,-1.5312,-1.5073,-1.3942,-1.2479,-1.1196,-1.0732,-1.0349,-1.0088,-1.005,0.0,0.0,0.0,0.0,0.0,0.0,-1.1341,-1.2135,-1.1485,-1.2978,-1.4198,-1.4388,-1.526,-1.6002,-1.6355,-1.6863,-1.7405,-1.7952,-1.7551,-1.7412,-1.7717,-1.9113,-1.9811,-1.9645,-2.1338,-2.2765,-2.3838,-2.4687,-2.5495,-2.6249,-2.6404,-2.6321,-2.5946,-2.5706,-2.5633,-2.5653,-2.5622,-2.5633,-2.5653,-2.5327,-2.5073,-2.4871,-2.4625,-2.4497,-2.4497,-2.4497,-2.4497,-2.4497,-2.4497,-2.4497,-2.4583,-2.4946,-2.538,-2.577,-2.5853,-2.5895,-2.5895,-2.5895,-2.5895,-2.5895,-2.5895,-2.5895,-2.5853,-2.5728,-2.5644,-2.5517,-2.5253,-2.5126,-2.5031,-2.5073,-2.5073,-2.5158,-2.5422,-2.5242,-2.5115,-2.5306,-2.5084,-2.4999,-2.5264,-2.5253,-2.5285,-2.5591,-2.577,-2.6052,-2.6487,-2.6487,-2.6704,-2.719,-2.719,-2.719,-2.719,-2.719,-2.719,-2.719,-2.719,-2.719,-2.719,-2.719,-2.719,-2.719,-2.719,-2.719,-1.658,-1.6597,-1.6733,-1.562,-1.2864,-1.0523,-1.0877,-1.0623,-1.0365,-1.0586,-1.0634,0.0,0.0,0.0,-1.0601,-1.0489,0.0,-1.1873,-1.1156,-1.2428,-1.3377,-1.3252,-1.3775,-1.4535,-1.5601,-1.6295,-1.6936,-1.7441,-1.7215,-1.727,-1.7821,-1.9541,-2.0482,-2.0361,-2.2071,-2.347,-2.437,-2.4753,-2.5374,-2.6298,-2.6434,-2.6419,-2.6296,-2.6152,-2.6177,-2.6332,-2.6135,-2.6135,-2.6166,-2.5622,-2.5242,-2.4988,-2.4615,-2.4497,-2.4497,-2.4497,-2.4497,-2.4497,-2.4497,-2.4583,-2.4743,-2.5073,-2.5506,-2.5895,-2.5895,-2.5937,-2.599,-2.599,-2.6032,-2.6104,-2.6104,-2.6021,-2.5937,-2.5728,-2.5601,-2.5422,-2.5115,-2.5031,-2.5073,-2.5327,-2.5369,-2.5549,-2.5968,-2.5675,-2.5506,-2.5853,-2.5591,-2.5506,-2.5864,-2.5717,-2.5706,-2.601,-2.6188,-2.6385,-2.6663,-2.6704,-2.6839,-2.719,-2.719,-2.719,-2.719,-2.719,-2.719,-2.719,-2.719,-2.719,-2.719,-2.719,-2.719,-2.719,-2.719,-2.719,-1.891,-1.8596,-1.8521,-1.7321,-1.3882,-1.0655,-1.0158,-1.1227,-1.2151,-1.1582,-1.2287,-1.2692,-1.1734,-1.1565,-1.1396,-1.0956,-1.1619,0.0,0.0,-1.1873,-1.2005,-1.1623,-1.2507,-1.3408,-1.4109,-1.4214,-1.4749,-1.6074,-1.6135,-1.6533,-1.7378,-1.9443,-2.0399,-1.993,-2.1913,-2.3466,-2.4381,-2.4392,-2.4853,-2.5723,-2.6255,-2.6246,-2.5827,-2.6285,-2.629,-2.5937,-2.6332,-2.6093,-2.5465,-2.5738,-2.5348,-2.4497,-2.4497,-2.4497,-2.4497,-2.4497,-2.4497,-2.4497,-2.4497,-2.4786,-2.52,-2.52,-2.5506,-2.5895,-2.5895,-2.6032,-2.6199,-2.6199,-2.6396,-2.6561,-2.6561,-2.6396,-2.6157,-2.5937,-2.5549,-2.5242,-2.5454,-2.5327,-2.5327,-2.5812,-2.5895,-2.6021,-2.6404,-2.6135,-2.5895,-2.5895,-2.5906,-2.5895,-2.5895,-2.6249,-2.6445,-2.6487,-2.688,-2.7149,-2.719,-2.719,-2.719,-2.719,-2.719,-2.719,-2.719,-2.719,-2.719,-2.719,-2.719,-2.719,-2.719,-2.719,-2.719,-2.719,-2.719,-2.719,-1.8955,-1.8476,-1.8085,-1.6854,-1.3487,-1.0751,-1.18,-1.2374,-1.2426,-1.1665,-1.2636,-1.332,-1.2301,-1.2137,-1.1951,-1.1388,-1.1818,-1.2023,0.0,-1.1564,-1.167,-1.1568,-1.2509,-1.3135,-1.3055,-1.3956,-1.5107,-1.6406,-1.6243,-1.6812,-1.843,-2.0058,-2.1098,-2.1418,-2.2948,-2.4098,-2.4725,-2.4736,-2.5245,-2.6249,-2.6048,-2.6245,-2.6723,-2.6582,-2.6615,-2.6779,-2.688,-2.6809,-2.6573,-2.6385,-2.6124,-2.579,-2.5506,-2.5433,-2.5391,-2.5084,-2.4786,-2.454,-2.47,-2.4946,-2.5242,-2.5422,-2.5644,-2.5937,-2.6063,-2.6157,-2.624,-2.6396,-2.652,-2.6603,-2.6603,-2.652,-2.6354,-2.599,-2.5884,-2.5779,-2.5527,-2.5591,-2.5801,-2.6207,-2.629,-2.6456,-2.6891,-2.685,-2.6768,-2.6768,-2.6509,-2.6415,-2.6727,-2.6622,-2.661,-2.6921,-2.7097,-2.719,-2.719,-2.719,-2.719,-2.719,-2.719,-2.719,-2.719,-2.719,-2.719,-2.719,-2.719,-2.719,-2.719,-2.719,-2.719,-2.719,-2.719,-2.719,-2.0391,-2.0163,-1.979,-1.7786,-1.534,-1.3488,-1.3658,-1.4054,-1.4134,-1.3384,-1.3907,-1.4443,-1.4126,-1.3371,-1.2624,-1.2163,-1.2392,-1.2476,0.0,-1.1793,-1.1689,-1.1579,-1.1986,-1.2228,-1.2135,-1.3066,-1.4238,-1.5604,-1.568,-1.6514,-1.845,-2.0035,-2.1236,-2.1939,-2.3426,-2.4349,-2.4659,-2.4659,-2.4992,-2.5697,-2.5497,-2.5865,-2.6651,-2.6531,-2.6749,-2.719,-2.719,-2.7213,-2.7165,-2.6674,-2.6467,-2.6376,-2.6032,-2.5895,-2.5853,-2.5369,-2.4914,-2.454,-2.4828,-2.5031,-2.5242,-2.5601,-2.5853,-2.6074,-2.6271,-2.6396,-2.6479,-2.6644,-2.6768,-2.6809,-2.6809,-2.6768,-2.6603,-2.6218,-2.6166,-2.6155,-2.5904,-2.5999,-2.626,-2.6663,-2.6745,-2.6828,-2.7149,-2.719,-2.719,-2.719,-2.6921,-2.6839,-2.7149,-2.6921,-2.688,-2.719,-2.719,-2.719,-2.719,-2.719,-2.719,-2.719,-2.719,-2.719,-2.719,-2.719,-2.719,-2.719,-2.719,-2.719,-2.719,-2.719,-2.719,-2.719,-2.719,-2.719]},{"header":{"parameterUnit":"m.s-1","parameterCategory":1,"la1":30.6,"la2":29.2853,"lo1":-89.7004,"lo2":-87.6739,"dy":0.0162,"dx":0.0183,"nx":112,"ny":82,"refTime":"2024-06-04T18:00:00:Z","depth":0,"parameterNumber":3,"parameterNumberName":"V-component_of_WINDS"},"data":[0.0,0.0,0.0,0.0,0.0,0.0,0.0,0.0,0.0,0.0,0.0,0.0,0.0,0.0,0.0,0.0,0.0,0.0,0.0,0.0,0.0,0.0,0.0,0.0,0.0,0.0,0.0,0.0,0.0,0.0,0.0,0.0,0.0,0.0,0.0,0.0,0.0,0.0,0.0,0.0,0.0,0.0,0.0,0.0,0.0,0.0,0.0,0.0,0.0,0.0,0.0,0.0,0.0,0.0,0.0,0.0,0.0,0.0,0.0,0.0,0.0,0.0,0.0,0.0,0.0,0.0,0.0,0.0,0.0,0.0,0.0,0.0,0.0,0.0,0.0,0.0,0.0,0.0,0.0,0.0,0.0,0.0,0.0,0.0,0.0,0.0,0.0,0.0,0.0,0.0,-2.6125,-2.7744,-3.188,-3.4528,-3.4528,-3.3808,-3.1625,-2.7518,0.0,0.0,0.0,0.0,0.0,0.0,0.0,0.0,0.0,0.0,0.0,0.0,0.0,0.0,0.0,0.0,0.0,0.0,0.0,0.0,0.0,0.0,0.0,0.0,0.0,0.0,0.0,0.0,0.0,0.0,0.0,0.0,0.0,0.0,0.0,0.0,0.0,0.0,0.0,0.0,0.0,0.0,0.0,0.0,0.0,0.0,0.0,0.0,0.0,0.0,0.0,0.0,0.0,0.0,0.0,0.0,0.0,0.0,0.0,0.0,0.0,0.0,0.0,0.0,0.0,0.0,0.0,0.0,0.0,0.0,0.0,0.0,0.0,0.0,0.0,0.0,0.0,0.0,0.0,0.0,0.0,0.0,0.0,0.0,0.0,0.0,0.0,0.0,0.0,0.0,0.0,0.0,0.0,0.0,0.0,0.0,0.0,0.0,0.0,0.0,0.0,0.0,0.0,0.0,-2.5846,-3.15,-3.3396,-3.4257,-3.4257,-3.3642,-3.1456,-2.7312,0.0,0.0,0.0,0.0,0.0,0.0,0.0,0.0,0.0,0.0,0.0,0.0,0.0,0.0,0.0,0.0,0.0,0.0,0.0,0.0,0.0,0.0,0.0,0.0,0.0,0.0,0.0,0.0,0.0,0.0,0.0,0.0,0.0,0.0,0.0,0.0,0.0,0.0,0.0,0.0,0.0,0.0,0.0,0.0,0.0,0.0,0.0,0.0,0.0,0.0,0.0,0.0,0.0,0.0,0.0,0.0,0.0,0.0,0.0,0.0,0.0,0.0,0.0,0.0,0.0,0.0,0.0,0.0,0.0,0.0,0.0,0.0,0.0,0.0,0.0,0.0,0.0,0.0,0.0,0.0,0.0,0.0,0.0,0.0,0.0,0.0,0.0,0.0,0.0,0.0,0.0,0.0,0.0,0.0,0.0,0.0,0.0,0.0,0.0,0.0,0.0,0.0,0.0,-2.4827,-2.7365,-3.3045,-3.4059,-3.43,-3.4305,-3.3692,-3.1526,-2.7323,-2.5169,0.0,0.0,0.0,0.0,0.0,0.0,0.0,0.0,0.0,0.0,0.0,0.0,0.0,0.0,0.0,0.0,0.0,0.0,0.0,0.0,0.0,0.0,0.0,0.0,0.0,0.0,0.0,0.0,0.0,0.0,0.0,0.0,0.0,0.0,0.0,0.0,0.0,0.0,0.0,0.0,0.0,0.0,0.0,0.0,0.0,0.0,0.0,0.0,0.0,0.0,0.0,0.0,0.0,0.0,0.0,0.0,0.0,0.0,0.0,0.0,0.0,0.0,0.0,0.0,0.0,0.0,0.0,0.0,0.0,0.0,0.0,0.0,0.0,0.0,0.0,0.0,0.0,0.0,0.0,0.0,0.0,0.0,0.0,0.0,0.0,0.0,0.0,0.0,0.0,0.0,0.0,0.0,0.0,0.0,0.0,0.0,0.0,0.0,0.0,0.0,0.0,0.0,-2.7856,-2.9694,-3.4078,-3.4616,-3.467,-3.4668,-3.3856,-3.1561,-2.7337,-2.4588,0.0,0.0,0.0,0.0,0.0,0.0,0.0,0.0,0.0,0.0,0.0,0.0,0.0,0.0,0.0,0.0,0.0,0.0,0.0,0.0,0.0,0.0,0.0,0.0,0.0,0.0,0.0,0.0,0.0,0.0,0.0,0.0,0.0,0.0,0.0,0.0,0.0,0.0,0.0,0.0,0.0,0.0,0.0,0.0,0.0,0.0,0.0,0.0,0.0,0.0,0.0,0.0,0.0,0.0,0.0,0.0,0.0,0.0,0.0,0.0,0.0,0.0,0.0,0.0,0.0,0.0,0.0,0.0,0.0,0.0,0.0,0.0,0.0,0.0,0.0,0.0,0.0,0.0,0.0,0.0,0.0,0.0,0.0,0.0,0.0,0.0,0.0,0.0,0.0,0.0,0.0,0.0,0.0,0.0,0.0,0.0,0.0,0.0,0.0,0.0,0.0,0.0,-2.9269,-3.259,-3.5308,-3.5491,-3.5429,-3.5429,-3.408,-3.144,-2.7272,-2.4046,0.0,0.0,0.0,0.0,0.0,0.0,0.0,0.0,0.0,0.0,0.0,0.0,0.0,0.0,0.0,0.0,0.0,0.0,0.0,0.0,0.0,0.0,0.0,0.0,0.0,0.0,0.0,0.0,0.0,0.0,0.0,0.0,0.0,0.0,0.0,0.0,0.0,0.0,0.0,0.0,0.0,0.0,0.0,0.0,0.0,0.0,0.0,0.0,0.0,0.0,0.0,0.0,0.0,0.0,0.0,0.0,0.0,0.0,0.0,0.0,0.0,0.0,0.0,0.0,0.0,0.0,0.0,0.0,0.0,0.0,0.0,0.0,0.0,0.0,0.0,0.0,0.0,0.0,0.0,0.0,0.0,0.0,0.0,0.0,0.0,0.0,0.0,0.0,0.0,0.0,0.0,0.0,0.0,0.0,0.0,0.0,0.0,0.0,0.0,0.0,0.0,0.0,-2.8752,-3.1685,-3.5193,-3.5126,-3.5033,-3.5584,-3.4172,-3.1704,-2.8042,0.0,0.0,0.0,0.0,0.0,0.0,0.0,0.0,0.0,0.0,0.0,0.0,0.0,0.0,0.0,0.0,0.0,0.0,0.0,0.0,0.0,0.0,0.0,0.0,0.0,0.0,0.0,0.0,0.0,0.0,0.0,0.0,0.0,0.0,0.0,0.0,0.0,0.0,0.0,0.0,0.0,0.0,0.0,0.0,0.0,0.0,0.0,0.0,0.0,0.0,0.0,0.0,0.0,0.0,0.0,0.0,0.0,0.0,0.0,0.0,0.0,0.0,0.0,0.0,0.0,0.0,0.0,0.0,0.0,0.0,0.0,0.0,0.0,0.0,0.0,0.0,0.0,0.0,0.0,0.0,0.0,0.0,0.0,0.0,0.0,0.0,0.0,0.0,0.0,0.0,0.0,0.0,0.0,0.0,0.0,0.0,0.0,0.0,0.0,0.0,0.0,0.0,-2.6442,-2.9329,-3.2284,-3.5591,-3.551,-3.5453,-3.6029,-3.411,-3.1458,-2.8091,0.0,0.0,0.0,0.0,0.0,0.0,0.0,0.0,0.0,0.0,0.0,0.0,0.0,0.0,0.0,0.0,0.0,0.0,0.0,0.0,0.0,0.0,0.0,0.0,0.0,0.0,0.0,0.0,0.0,0.0,0.0,0.0,0.0,0.0,0.0,0.0,0.0,0.0,0.0,0.0,0.0,0.0,0.0,0.0,0.0,0.0,0.0,0.0,0.0,0.0,0.0,0.0,0.0,0.0,0.0,0.0,0.0,0.0,0.0,0.0,0.0,0.0,0.0,0.0,0.0,0.0,0.0,0.0,0.0,0.0,0.0,0.0,0.0,0.0,0.0,0.0,0.0,0.0,0.0,0.0,0.0,0.0,0.0,0.0,0.0,0.0,0.0,0.0,0.0,0.0,0.0,0.0,0.0,0.0,0.0,0.0,0.0,0.0,0.0,0.0,0.0,0.0,-2.6785,-3.1383,-3.5109,-3.6721,-3.695,-3.6974,-3.6907,-3.3883,-3.057,0.0,0.0,0.0,0.0,0.0,0.0,0.0,0.0,0.0,0.0,0.0,0.0,0.0,0.0,0.0,0.0,0.0,0.0,0.0,0.0,0.0,0.0,0.0,0.0,0.0,0.0,0.0,0.0,0.0,0.0,0.0,0.0,0.0,0.0,0.0,0.0,0.0,0.0,0.0,0.0,0.0,0.0,0.0,0.0,0.0,0.0,0.0,0.0,0.0,0.0,0.0,0.0,0.0,0.0,0.0,0.0,0.0,0.0,0.0,0.0,0.0,0.0,0.0,0.0,0.0,0.0,0.0,0.0,0.0,0.0,0.0,0.0,0.0,0.0,0.0,0.0,0.0,0.0,0.0,0.0,0.0,0.0,0.0,0.0,0.0,0.0,0.0,0.0,0.0,0.0,0.0,0.0,0.0,0.0,0.0,0.0,0.0,0.0,0.0,0.0,0.0,0.0,0.0,-2.6785,-3.1313,-3.5004,-3.6721,-3.6416,-3.631,-3.6839,-3.3843,-3.0754,-2.8025,0.0,0.0,0.0,0.0,0.0,0.0,0.0,0.0,0.0,0.0,0.0,0.0,0.0,0.0,0.0,0.0,0.0,0.0,0.0,0.0,0.0,0.0,0.0,0.0,0.0,0.0,0.0,0.0,0.0,0.0,0.0,0.0,0.0,0.0,0.0,0.0,0.0,0.0,0.0,0.0,0.0,0.0,0.0,0.0,0.0,0.0,0.0,0.0,0.0,0.0,0.0,0.0,0.0,0.0,0.0,0.0,0.0,0.0,0.0,0.0,0.0,0.0,0.0,0.0,0.0,0.0,0.0,0.0,0.0,0.0,0.0,0.0,0.0,0.0,0.0,0.0,0.0,0.0,0.0,0.0,0.0,0.0,0.0,0.0,0.0,0.0,0.0,0.0,0.0,0.0,0.0,0.0,0.0,0.0,0.0,0.0,0.0,0.0,0.0,0.0,0.0,0.0,-2.7276,-3.204,-3.581,-3.715,-3.6875,-3.667,-3.6801,-3.4355,-3.1496,-2.836,0.0,0.0,0.0,0.0,0.0,0.0,0.0,0.0,0.0,0.0,0.0,0.0,0.0,0.0,0.0,0.0,0.0,0.0,0.0,0.0,0.0,0.0,0.0,0.0,0.0,0.0,0.0,0.0,0.0,0.0,0.0,0.0,0.0,0.0,0.0,0.0,0.0,0.0,0.0,0.0,0.0,0.0,0.0,0.0,0.0,0.0,0.0,0.0,0.0,0.0,0.0,0.0,0.0,0.0,0.0,0.0,0.0,0.0,0.0,0.0,0.0,0.0,0.0,0.0,0.0,0.0,0.0,0.0,0.0,0.0,0.0,0.0,0.0,0.0,0.0,0.0,0.0,0.0,0.0,0.0,0.0,0.0,0.0,0.0,0.0,0.0,0.0,0.0,0.0,0.0,0.0,0.0,0.0,0.0,0.0,0.0,0.0,0.0,0.0,0.0,0.0,0.0,-2.7995,-3.3194,-3.7069,-3.7814,-3.7949,-3.7671,-3.6885,-3.52,-3.2507,-2.8579,0.0,0.0,0.0,0.0,0.0,0.0,0.0,0.0,0.0,0.0,0.0,0.0,0.0,0.0,0.0,0.0,0.0,0.0,0.0,0.0,0.0,0.0,0.0,0.0,0.0,0.0,0.0,0.0,0.0,0.0,0.0,0.0,0.0,0.0,0.0,0.0,0.0,0.0,0.0,0.0,0.0,0.0,0.0,0.0,0.0,0.0,0.0,0.0,0.0,0.0,0.0,0.0,0.0,0.0,0.0,0.0,0.0,0.0,0.0,0.0,-2.0966,-1.8706,0.0,0.0,0.0,0.0,0.0,0.0,0.0,0.0,0.0,0.0,0.0,0.0,0.0,0.0,0.0,0.0,0.0,0.0,0.0,0.0,0.0,0.0,0.0,0.0,0.0,0.0,0.0,0.0,0.0,0.0,0.0,0.0,0.0,0.0,0.0,0.0,0.0,0.0,0.0,0.0,-2.7923,-3.3153,-3.7026,-3.7826,-3.7923,-3.7844,-3.7652,-3.5535,-3.3008,-3.0233,-2.7158,0.0,0.0,0.0,0.0,0.0,0.0,0.0,0.0,0.0,0.0,0.0,0.0,0.0,0.0,0.0,0.0,0.0,0.0,0.0,0.0,0.0,0.0,0.0,0.0,0.0,0.0,0.0,0.0,0.0,0.0,0.0,0.0,0.0,0.0,0.0,0.0,0.0,0.0,0.0,0.0,0.0,0.0,0.0,0.0,0.0,0.0,0.0,0.0,0.0,0.0,0.0,0.0,0.0,0.0,0.0,0.0,0.0,0.0,0.0,-2.4926,-2.2957,0.0,0.0,0.0,0.0,0.0,0.0,0.0,0.0,0.0,0.0,0.0,0.0,0.0,0.0,0.0,0.0,0.0,0.0,0.0,0.0,0.0,0.0,0.0,0.0,0.0,0.0,0.0,0.0,0.0,0.0,0.0,0.0,0.0,0.0,0.0,0.0,0.0,0.0,0.0,0.0,-2.8521,-3.338,-3.7169,-3.834,-3.8489,-3.8317,-3.7931,-3.6352,-3.4358,-3.1905,-2.9062,0.0,0.0,0.0,0.0,0.0,0.0,0.0,0.0,0.0,0.0,0.0,0.0,0.0,0.0,0.0,0.0,0.0,0.0,0.0,0.0,0.0,0.0,0.0,0.0,0.0,0.0,0.0,0.0,0.0,0.0,0.0,0.0,0.0,0.0,0.0,0.0,0.0,0.0,0.0,0.0,0.0,0.0,0.0,0.0,0.0,0.0,0.0,0.0,0.0,0.0,0.0,0.0,0.0,-3.0251,-3.11,-3.1161,-3.2025,-3.278,-3.3212,-2.9805,-2.8567,-2.8699,-2.5362,0.0,0.0,0.0,0.0,0.0,0.0,0.0,0.0,0.0,0.0,0.0,0.0,0.0,0.0,0.0,0.0,0.0,0.0,0.0,0.0,0.0,0.0,-2.9167,-3.0559,-3.1782,-3.1659,-2.8007,0.0,0.0,0.0,0.0,0.0,0.0,0.0,0.0,0.0,0.0,0.0,-2.9758,-3.4067,-3.747,-3.8939,-3.9101,-3.8822,-3.8172,-3.7355,-3.5906,-3.3577,-3.1292,-2.8596,0.0,0.0,0.0,0.0,0.0,0.0,0.0,0.0,0.0,0.0,0.0,0.0,0.0,0.0,0.0,0.0,0.0,0.0,0.0,0.0,0.0,0.0,0.0,0.0,0.0,0.0,0.0,0.0,0.0,0.0,0.0,0.0,-1.7585,-1.818,0.0,0.0,0.0,0.0,0.0,0.0,0.0,0.0,0.0,0.0,0.0,0.0,0.0,-2.7877,-2.9468,-3.1617,-3.3235,-3.4309,-3.6628,-3.7862,-3.8085,-3.8351,-3.8519,-3.8575,-3.7921,0.0,-3.1487,-3.1012,0.0,0.0,0.0,0.0,0.0,0.0,0.0,0.0,0.0,0.0,0.0,0.0,0.0,0.0,0.0,0.0,0.0,0.0,0.0,0.0,0.0,0.0,-3.6497,-3.6731,-3.744,-3.7488,-3.5307,-3.0357,-2.6292,-2.6217,-2.5105,-2.3355,0.0,0.0,0.0,0.0,0.0,0.0,-3.2046,-3.5584,-3.8095,-3.8994,-3.9101,-3.9064,-3.8952,-3.8191,-3.7015,-3.5287,-3.3522,-3.1403,-2.8847,-2.6993,0.0,0.0,0.0,0.0,0.0,0.0,0.0,0.0,0.0,0.0,0.0,0.0,0.0,0.0,0.0,0.0,0.0,0.0,0.0,0.0,0.0,0.0,0.0,0.0,0.0,0.0,0.0,0.0,0.0,-1.7172,-1.8582,-1.8616,-1.8758,-1.8556,0.0,0.0,0.0,0.0,0.0,0.0,0.0,0.0,0.0,-3.0248,-3.1374,-3.2852,-3.477,-3.6701,-3.7912,-3.8452,-3.9952,-4.0753,-4.0877,-4.1423,-4.1693,-4.1698,-4.2064,-4.0686,-3.796,-3.5201,-3.2747,-3.052,0.0,0.0,0.0,0.0,-2.8284,-2.8869,-3.1496,-3.2109,-3.1645,-3.1162,0.0,0.0,0.0,0.0,0.0,0.0,0.0,-3.0888,-3.3791,-3.6228,-3.8246,-3.9644,-4.008,-4.0003,-3.9412,-3.6462,-3.3043,-3.0015,-2.8614,-2.6709,-2.2858,-2.3329,0.0,0.0,0.0,-3.063,-3.3336,-3.6147,-3.822,-3.8994,-3.9101,-3.9101,-3.9101,-3.8358,-3.7411,-3.6253,-3.4599,-3.2797,-3.0827,-2.8516,-2.6259,0.0,0.0,0.0,0.0,0.0,0.0,0.0,0.0,0.0,0.0,0.0,0.0,0.0,0.0,0.0,0.0,0.0,0.0,0.0,0.0,0.0,0.0,0.0,0.0,0.0,0.0,0.0,0.0,-1.8867,-2.0029,-1.9593,-2.077,-2.1,0.0,0.0,0.0,0.0,0.0,0.0,-2.8003,-3.0305,-3.252,-3.4534,-3.5749,-3.7322,-3.9288,-4.0627,-4.1424,-4.1702,-4.2316,-4.2616,-4.2634,-4.3299,-4.3613,-4.3651,-4.4135,-4.3984,-4.3011,-3.8872,-3.6739,-3.587,-3.3245,-3.2091,-3.1965,-3.2801,-3.2976,-3.3243,-3.6513,-3.7257,-3.6662,-3.5999,-3.481,-3.3224,-3.0976,0.0,0.0,0.0,0.0,-3.4078,-3.7144,-3.8559,-3.9662,-4.1723,-4.1991,-4.1782,-4.189,-4.1031,-3.8891,-3.4261,-3.2728,-3.0805,-2.6524,-2.7095,0.0,-2.6024,-2.9558,-3.3078,-3.4919,-3.6946,-3.8438,-3.9045,-3.9101,-3.9101,-3.9101,-3.8544,-3.7856,-3.7058,-3.5627,-3.4209,-3.2797,-3.0398,-2.8323,-2.6684,0.0,0.0,0.0,0.0,0.0,0.0,0.0,0.0,0.0,0.0,0.0,0.0,0.0,0.0,0.0,0.0,0.0,0.0,0.0,0.0,0.0,0.0,0.0,0.0,0.0,0.0,0.0,0.0,0.0,-2.1912,-2.4344,0.0,0.0,0.0,0.0,-2.6639,-2.8823,-3.0927,-3.2772,-3.4768,-3.6896,-3.9099,-3.9611,-4.0624,-4.2271,-4.2505,-4.3118,-4.4128,-4.4237,-4.4285,-4.4266,-4.4379,-4.4444,-4.4426,-4.434,-4.4281,-4.4094,-4.2178,-3.9965,-3.7703,-3.6755,-3.5937,-3.5343,-3.616,-3.7392,-3.8822,-3.9863,-4.0193,-4.0155,-4.01,-3.7963,-3.5491,-3.6086,-3.4606,0.0,0.0,-3.6379,-3.8176,-4.0701,-4.1936,-4.2791,-4.3676,-4.3856,-4.3639,-4.2909,-4.2087,-4.0948,-3.9073,-3.7472,-3.5572,-3.2953,0.0,-3.1764,-3.2425,-3.341,-3.4971,-3.7405,-3.8488,-3.9064,-3.9101,-3.9101,-3.9101,-3.9101,-3.9064,-3.8692,-3.7894,-3.7039,-3.6197,-3.5343,-3.3413,-3.1377,-2.9266,-2.7261,0.0,0.0,0.0,0.0,0.0,0.0,0.0,0.0,0.0,0.0,0.0,0.0,0.0,0.0,0.0,0.0,0.0,0.0,0.0,0.0,0.0,0.0,0.0,0.0,0.0,0.0,0.0,0.0,-2.5192,-2.7447,0.0,-2.6684,-2.8585,-3.0152,-3.0758,-3.3552,-3.5713,-3.6823,-3.8682,-4.0173,-4.115,-4.1979,-4.2823,-4.3654,-4.3789,-4.4302,-4.5194,-4.5242,-4.5537,-4.6067,-4.6,-4.6034,-4.6096,-4.5888,-4.5808,-4.5798,-4.5075,-4.362,-4.1757,-4.094,-4.0438,-4.0234,-4.0513,-4.0996,-4.159,-4.2426,-4.2723,-4.263,-4.211,-4.0791,-3.9486,-3.977,-3.9231,-3.8767,-3.9881,-4.0602,-4.1385,-4.2768,-4.3356,-4.3647,-4.3927,-4.4005,-4.3915,-4.3639,-4.3358,-4.2965,-4.237,-4.0085,-3.7634,-3.5714,-3.5999,-3.624,-3.5491,-3.6978,-3.8706,-4.0085,-4.0531,-4.0513,-3.9993,-3.9937,-3.9714,-3.9138,-3.8618,-3.7968,-3.7169,-3.6383,-3.5547,-3.4711,-3.3493,-3.2011,-3.0214,-2.8989,-2.6106,0.0,0.0,0.0,0.0,0.0,0.0,0.0,0.0,0.0,0.0,0.0,0.0,0.0,0.0,0.0,0.0,0.0,0.0,0.0,0.0,0.0,0.0,0.0,0.0,0.0,-2.5811,-2.8045,-2.8011,-3.0576,-3.176,-3.0258,-3.2465,-3.4244,-3.4847,-3.7327,-3.9061,-3.9599,-4.1156,-4.2122,-4.2339,-4.3491,-4.4249,-4.4575,-4.5017,-4.5513,-4.6029,-4.6048,-4.6352,-4.6904,-4.6836,-4.6836,-4.6904,-4.6685,-4.6637,-4.6666,-4.6549,-4.5853,-4.4798,-4.4259,-4.4039,-4.4023,-4.3745,-4.3633,-4.367,-4.3912,-4.4005,-4.3912,-4.3373,-4.2835,-4.2407,-4.2407,-4.2407,-4.2519,-4.3039,-4.3199,-4.3323,-4.3872,-4.4005,-4.4005,-4.4005,-4.4005,-4.4005,-4.4005,-4.4005,-4.4005,-4.4005,-4.2017,-4.0011,-3.8934,-3.9417,-3.9491,-3.8149,-3.9565,-4.0903,-4.1144,-4.1423,-4.1386,-4.0861,-4.0564,-4.016,-3.9584,-3.8284,-3.7373,-3.7113,-3.5826,-3.4791,-3.4216,-3.3157,-3.1849,-3.0233,-2.8839,-2.6516,-2.3206,0.0,0.0,0.0,0.0,0.0,0.0,0.0,0.0,0.0,0.0,0.0,0.0,0.0,0.0,0.0,0.0,0.0,0.0,0.0,0.0,0.0,0.0,0.0,-2.6061,-2.8335,-3.0163,-3.039,-3.3794,-3.5578,-3.4214,-3.6822,-3.8651,-3.886,-3.9975,-4.0784,-4.1107,-4.206,-4.2671,-4.2827,-4.4177,-4.4964,-4.5121,-4.6177,-4.6722,-4.6742,-4.6817,-4.6828,-4.6788,-4.6846,-4.6831,-4.6772,-4.6693,-4.668,-4.668,-4.6592,-4.6557,-4.6557,-4.652,-4.6506,-4.6401,-4.5621,-4.5342,-4.5212,-4.4376,-4.4061,-4.4042,-4.4042,-4.4023,-4.4005,-4.4005,-4.4005,-4.4005,-4.4005,-4.4005,-4.4005,-4.4005,-4.4005,-4.4005,-4.4005,-4.4005,-4.4005,-4.4005,-4.4005,-4.4005,-4.4005,-4.3373,-4.2835,-4.2835,-4.2184,-4.1404,-4.0624,-4.1181,0.0,-4.062,-4.1181,-4.1664,-4.1609,-4.0903,-4.042,-4.0346,-3.8098,-3.7021,-3.7801,-3.5535,-3.416,-3.4197,-3.2685,-3.1106,-2.9527,-2.7083,-2.5773,-2.5672,0.0,0.0,0.0,0.0,0.0,0.0,0.0,0.0,0.0,0.0,0.0,0.0,0.0,0.0,0.0,0.0,0.0,0.0,0.0,0.0,0.0,-2.6994,-2.9372,-2.91,-3.2099,-3.4587,-3.5261,-3.7352,-3.8617,-3.8269,-3.9553,-4.0408,-4.0467,-4.1314,-4.1866,-4.1966,-4.2426,-4.2963,-4.3581,-4.4453,-4.5206,-4.5817,-4.6408,-4.7025,-4.7645,-4.7663,-4.7969,-4.8517,-4.8488,-4.8471,-4.8506,-4.8342,-4.8327,-4.8396,-4.8291,-4.8238,-4.8108,-4.6973,-4.6492,-4.6475,-4.624,-4.6164,-4.6141,-4.59,-4.5435,-4.4934,-4.4934,-4.4525,-4.4005,-4.4005,-4.4005,-4.4005,-4.4005,-4.4005,-4.4005,-4.4005,-4.4005,-4.4005,-4.4005,-4.4005,-4.4005,-4.4005,-4.4005,-4.4005,-4.4005,-4.3819,-4.367,-4.367,-4.3485,-4.3262,-4.3039,-4.3206,-4.3262,-4.3039,-4.3206,-4.289,-4.172,-4.1386,-4.0773,-3.9547,-3.7764,-3.6792,-3.7021,-3.4711,-3.3584,-3.4179,-3.3224,-3.2462,-3.2017,-2.9619,-2.8057,0.0,0.0,0.0,0.0,0.0,0.0,0.0,0.0,0.0,0.0,0.0,0.0,0.0,0.0,0.0,0.0,0.0,0.0,0.0,0.0,0.0,0.0,-3.055,-3.2957,-3.3493,-3.5294,-3.7079,-3.8512,-3.9662,-4.0475,-4.0798,-4.1303,-4.1591,-4.1591,-4.2341,-4.2804,-4.2804,-4.3238,-4.386,-4.4628,-4.5334,-4.6063,-4.6803,-4.7343,-4.7868,-4.8383,-4.8434,-4.8677,-4.9075,-4.9079,-4.9098,-4.9062,-4.896,-4.8943,-4.9015,-4.8926,-4.8909,-4.8816,0.0,0.0,0.0,0.0,-4.6776,-4.6494,-4.6494,-4.6197,-4.5788,-4.5788,-4.5454,-4.5045,-4.5045,-4.4804,-4.4544,-4.4544,-4.4283,-4.4005,-4.4005,-4.4005,-4.4005,-4.4005,-4.4005,-4.4005,-4.4005,-4.4005,-4.4005,-4.4005,-4.4005,0.0,-4.4005,-4.4005,-4.3893,-4.3559,-4.3782,-4.3875,-4.354,-4.3782,-4.3633,-4.2705,-4.2296,-4.1702,-4.0736,-3.8525,0.0,0.0,0.0,-3.3398,-3.3194,-3.2425,0.0,0.0,0.0,0.0,0.0,-3.0219,0.0,0.0,-2.8907,-2.8278,0.0,0.0,0.0,0.0,0.0,0.0,0.0,0.0,0.0,0.0,0.0,0.0,0.0,0.0,0.0,0.0,-3.4543,-3.6872,-3.8204,-3.7956,-3.8408,-4.039,-4.0958,-4.1441,-4.2053,-4.2246,-4.2343,-4.2433,-4.3108,-4.3533,-4.3604,-4.4228,0.0,0.0,0.0,-4.7113,-4.788,-4.8519,-4.8874,-4.8927,-4.9032,-4.9049,-4.8926,-4.9049,-4.9032,-4.8926,-4.8909,-4.8909,-4.8909,-4.8909,-4.8909,-4.8909,-4.8909,-4.8909,-4.8816,-4.8091,-4.7386,-4.6773,-4.6773,0.0,0.0,-4.6643,-4.6568,-4.6494,-4.6494,-4.5992,-4.5435,-4.5435,-4.4878,-4.4265,-4.4172,-4.4153,-4.4116,-4.4023,-4.4005,-4.4005,-4.4005,-4.4005,-4.4005,-4.4005,-4.4005,-4.4005,-4.4005,-4.4005,-4.3763,-4.3039,-4.354,-4.3745,-4.302,-4.3559,-4.3968,-4.3875,-4.3225,0.0,-4.2667,-3.99,-3.8432,-3.9064,-3.6185,-3.38,-3.2277,-3.1626,-3.1626,-3.2351,-3.2351,-3.3447,-3.564,-3.564,-3.6105,-3.6816,-3.0813,-2.9791,0.0,0.0,0.0,0.0,0.0,0.0,0.0,0.0,0.0,0.0,0.0,0.0,0.0,0.0,0.0,-3.316,-3.5842,-3.8259,-3.9817,-3.9993,-4.0167,-4.0689,-4.1389,-4.1937,-4.2228,-4.2287,-4.2555,-4.3233,-4.3408,-4.3747,-4.4353,-4.4514,-4.5086,-4.6137,-4.6318,-4.7062,-4.8437,-4.8476,-4.8697,-4.9056,-4.9084,0.0,-4.9062,-4.9098,-4.91,-4.9068,-4.8962,-4.8909,-4.8909,-4.8909,-4.8909,-4.8909,-4.8909,-4.8909,-4.889,-4.8723,-4.8574,-4.8444,-4.8444,-4.8017,-4.746,-4.746,-4.7033,-4.6494,-4.6494,-4.6382,0.0,-4.6271,-4.6141,-4.5862,-4.5212,-4.5045,-4.4859,-4.4172,-4.4005,-4.4005,-4.4005,-4.4005,-4.4005,-4.4005,-4.4005,-4.4005,-4.4005,-4.4005,-4.3949,-4.3782,-4.3893,-4.3949,-4.3782,-4.3893,-4.3745,-4.3095,-4.289,-4.2537,-4.1887,-4.0643,-3.9677,-3.912,-3.7281,-3.5789,-3.4822,-3.5268,-3.5603,-3.5751,-3.5751,-3.5993,-3.6476,-3.6476,-3.7206,-3.8562,-3.5999,-3.5215,0.0,0.0,0.0,0.0,0.0,0.0,0.0,0.0,0.0,0.0,0.0,-2.7406,-2.9502,0.0,-3.4415,-3.647,-3.8223,-3.9708,-4.0884,-4.1068,-4.1177,-4.1382,-4.1782,-4.2118,-4.2287,-4.2662,-4.3072,-4.3483,-4.4214,-4.4821,-4.5195,-4.5588,-4.6157,-4.688,-4.6898,-4.7413,-4.8477,-4.8596,-4.897,-4.9596,-4.9768,-4.999,-5.0241,-4.9795,-4.9609,-4.9591,-4.9182,-4.8962,-4.8909,-4.8909,-4.8909,-4.8909,-4.8909,-4.8909,-4.8909,-4.8909,-4.8909,-4.8909,-4.8909,-4.8649,-4.8296,-4.8296,-4.8036,-4.7701,-4.7701,-4.7408,-4.7094,-4.709,-4.681,-4.6401,-4.5992,-4.5602,-4.5194,-4.4748,-4.4321,-4.4005,-4.4005,-4.4005,-4.4005,-4.4005,-4.4005,-4.4005,-4.4005,-4.4005,-4.4005,-4.4005,-4.4005,-4.4005,-4.4005,-4.4005,-4.3856,-4.3448,-4.3392,-4.3243,-4.2835,-4.2054,-4.107,-3.9825,-3.8581,-3.7455,-3.6477,-3.6459,-3.6828,-3.7636,-3.7654,-3.8146,-3.9138,-3.9138,-3.9565,-4.0327,-3.9528,-3.8954,0.0,0.0,0.0,0.0,0.0,0.0,0.0,0.0,-2.5215,-2.7728,-2.9499,-3.1378,-3.3887,-3.5537,-3.7288,-3.9564,-4.0376,-4.0924,-4.1516,-4.1604,-4.171,-4.1962,-4.2055,-4.2142,-4.2287,-4.3036,-4.3551,-4.3693,-4.5017,-4.5873,-4.6016,-4.6641,-4.716,-4.749,-4.7511,-4.7822,-4.8528,-4.8774,-4.9297,-5.0084,-5.0444,-5.0872,-5.125,-5.0655,-5.0375,-5.032,-4.9645,-4.9181,-4.8926,-4.8926,-4.8926,-4.8909,-4.8909,-4.8909,-4.8909,-4.8909,-4.8909,-4.8909,-4.8909,-4.8909,-4.8909,-4.8909,-4.8909,-4.8909,-4.8909,-4.8448,-4.7931,-4.7926,-4.746,-4.6921,-4.6773,-4.6252,-4.5677,-4.5361,-4.4748,-4.4209,-4.4042,-4.4005,-4.4005,-4.4005,-4.4005,-4.4005,-4.4005,-4.4005,-4.4005,-4.4005,-4.4005,-4.4005,-4.4005,-4.4005,-4.4005,-4.4005,-4.4005,-4.4005,-4.4005,-4.3262,-4.224,-4.0954,-4.0048,-3.9145,-3.8141,-3.7544,-3.7786,-3.8925,-3.9102,-3.9951,-4.1482,-4.156,-4.1683,-4.1832,-4.1832,-4.1404,-1.834,-1.8864,-1.9996,-2.2158,-2.3028,-2.4662,0.0,0.0,-3.0366,-3.3421,-3.4921,-3.6015,-3.7119,-3.8724,-3.9984,-4.0358,-4.1033,-4.1516,-4.1587,-4.1604,-4.171,-4.1962,-4.2005,-4.2094,-4.2287,-4.3036,-4.3765,-4.4424,-4.5302,-4.6105,-4.6819,-4.6944,-4.716,-4.749,-4.7511,-4.7989,-4.9013,-4.894,-4.9283,-5.0019,-5.0521,-5.0813,-5.089,-5.1194,-5.1338,-5.1301,-5.05,-4.9755,-4.9084,-4.9084,-4.9015,-4.8909,-4.8909,-4.8909,-4.8909,-4.8909,-4.8909,-4.8909,-4.8909,-4.8909,-4.8909,-4.8909,-4.8909,-4.8909,-4.8909,-4.8836,-4.8761,-4.8779,-4.8704,-4.8481,-4.7757,-4.7497,-4.707,-4.5639,-4.5231,-4.4934,-4.4172,-4.4005,-4.4005,-4.4005,-4.4005,-4.4005,-4.4005,-4.4005,-4.4005,-4.4005,-4.4005,-4.4005,-4.4005,-4.4005,-4.4005,-4.4005,-4.4005,-4.4005,-4.4005,-4.3262,-4.2723,-4.2537,-4.1757,-4.1089,-4.0618,-4.0843,-4.0738,-4.0202,-4.0891,-4.1206,-4.1071,-4.1422,-4.1962,-4.2667,-4.2667,-4.2233,-2.1906,-2.2702,-2.3637,-2.5575,-2.733,-2.9272,-3.1805,-3.2392,-3.3303,-3.6486,-3.7511,-3.833,-3.9943,-4.0673,-4.1135,-4.1443,-4.1551,-4.1604,-4.1604,-4.167,-4.1797,-4.1984,-4.2012,-4.2121,-4.2287,-4.3429,-4.4264,-4.4567,-4.5784,-4.6641,-4.6962,-4.6998,-4.7165,-4.7542,-4.7969,-4.8475,-4.9079,-4.9603,-5.015,-5.0659,-5.133,-5.1822,-5.2151,-5.214,-5.1898,-5.1468,-5.0649,-5.0109,-4.9755,-4.9288,-4.9032,-4.8909,-4.8909,-4.8909,-4.8909,-4.8909,-4.8909,-4.8909,-4.8909,-4.8909,-4.8909,-4.8909,-4.8909,-4.8909,-4.8909,-4.8909,-4.8909,-4.8909,-4.8909,-4.8816,-4.85,-4.8054,-4.7404,-4.6271,-4.5639,-4.5064,-4.4191,-4.4005,-4.4005,-4.4005,-4.4005,-4.4005,-4.4005,-4.4005,-4.4005,-4.4005,-4.4005,-4.4005,-4.4005,-4.4005,-4.4005,-4.4005,-4.4005,-4.4005,-4.4005,-4.3689,-4.3503,-4.3503,-4.2738,-4.2137,-4.1769,-4.1224,-4.0979,-4.1144,-4.1498,-4.1906,-4.2398,-4.2794,-4.3169,-4.3503,-4.3503,-4.3178,-2.4123,-2.5436,-2.6662,-2.8525,-3.088,-3.2915,-3.3675,-3.4394,-3.5653,-3.8202,-3.8946,-3.9651,-4.1333,-4.156,-4.164,-4.2114,-4.1856,-4.1604,-4.1604,-4.1714,-4.1841,-4.1984,-4.2076,-4.2145,-4.2287,-4.3518,-4.4371,-4.4567,-4.5891,-4.6766,-4.698,-4.6998,-4.7187,-4.7545,-4.8255,-4.88,-4.9173,-5.0101,-5.0707,-5.1066,-5.1766,-5.2386,-5.2871,-5.2912,-5.2531,-5.1803,-5.1207,-5.0705,-5.0239,-4.9679,-4.9218,-4.8909,-4.8909,-4.8909,-4.8909,-4.8909,-4.8909,-4.8909,-4.8909,-4.8909,-4.8909,-4.8909,-4.8909,-4.8909,-4.8909,-4.8909,-4.8909,-4.8909,-4.8909,-4.8891,-4.8874,-4.8447,-4.7797,-4.6981,-4.6164,-4.5347,-4.4525,-4.4172,-4.4005,-4.4005,-4.4005,-4.4005,-4.4005,-4.4005,-4.4005,-4.4005,-4.4005,-4.4005,-4.4005,-4.4005,-4.4005,-4.4005,-4.4005,-4.4005,-4.4005,-4.4005,-4.4005,-4.4005,-4.3444,-4.2921,-4.2458,-4.1669,-4.1372,-4.1674,-4.2014,-4.2522,-4.323,-4.3761,-4.4005,-4.4005,-4.4005,-4.3777,-2.3504,-2.5564,-2.7889,-3.0538,-3.2626,-3.4555,-3.6526,-3.7238,-3.7742,-3.8623,-3.9415,-4.0129,-4.0641,-4.1162,-4.1641,-4.2114,-4.1856,-4.1604,-4.1604,-4.1714,-4.1841,-4.1984,-4.2076,-4.2145,-4.2287,-4.3054,-4.3818,-4.4549,-4.5374,-4.6177,-4.6944,-4.6998,-4.716,-4.749,-4.8083,-4.8744,-4.9376,-5.0073,-5.0569,-5.0892,-5.1391,-5.1861,-5.2368,-5.3328,-5.3349,-5.266,-5.2641,-5.1747,-5.0295,-5.0258,-4.9722,-4.8909,-4.8909,-4.8909,-4.8909,-4.8909,-4.8909,-4.8909,-4.8909,-4.8909,-4.8909,-4.8909,-4.8909,-4.8909,-4.8909,-4.8909,-4.8909,-4.8909,-4.8909,-4.8891,-4.8822,-4.8786,-4.8564,-4.7767,-4.6897,-4.6079,-4.54,-4.4599,-4.4005,-4.4005,-4.4005,-4.4005,-4.4005,-4.4005,-4.4005,-4.4005,-4.4005,-4.4005,-4.4005,-4.4005,-4.4005,-4.4005,-4.4005,-4.4005,-4.4005,-4.4005,-4.4005,-4.4005,-4.3986,-4.3607,-4.283,-4.3122,-4.2774,-4.1635,-4.2755,-4.3176,-4.2829,-4.361,-4.4005,-4.4005,-4.4005,-4.3777,-2.5466,-2.7988,-3.0531,-3.3219,-3.4941,-3.6347,-3.7823,-3.8255,-3.8569,-3.9359,-3.8897,-3.8732,-4.0055,-4.0015,-4.0057,-4.0867,-4.1331,-4.1604,-4.1604,-4.1797,-4.1945,-4.1984,-4.2139,-4.2246,-4.2287,-4.3036,-4.38,-4.4531,-4.5356,-4.6159,-4.6944,-4.7258,-4.7457,-4.7545,-4.8941,-4.9607,-4.9469,-5.0622,-5.1109,-5.0891,-5.1388,-5.1862,-5.232,-5.2652,-5.2852,-5.2941,-5.2447,-5.2084,-5.1805,-5.1301,-5.054,-4.9707,-4.9707,-4.9373,-4.8909,-4.8909,-4.8909,-4.8909,-4.8909,-4.8909,-4.8909,-4.8909,-4.8909,-4.8909,-4.8909,-4.8909,-4.8909,-4.8909,-4.8909,-4.8891,-4.8874,-4.8856,-4.8652,-4.7854,-4.7428,-4.7018,-4.6271,-4.5454,-4.4859,-4.4859,-4.4395,-4.4005,-4.4005,-4.4005,-4.4005,-4.4005,-4.4005,-4.4005,-4.4005,-4.4005,-4.4005,-4.4005,-4.4005,-4.4005,-4.4005,-4.4005,-4.4005,-4.4005,-4.3751,-4.3479,-4.3212,-4.2815,-4.2409,-4.2005,-4.24,-4.2676,-4.281,-4.3354,-4.3744,-4.4005,-4.4005,-4.3777,-2.8316,-3.0525,-3.2477,-3.5313,-3.6572,-3.74,-3.8499,-3.8723,-3.8762,-3.9029,-3.7764,-3.7044,-3.853,-3.8036,-3.7819,-3.9092,-3.9758,-4.0341,-4.0912,-4.1078,-4.1371,-4.1959,-4.2451,-4.2733,-4.2733,-4.3447,-4.4086,-4.4549,-4.5356,-4.6159,-4.6944,-4.7236,-4.7544,-4.7879,-4.9121,-4.9798,-4.9829,-5.0852,-5.1281,-5.1155,-5.1635,-5.2011,-5.2317,-5.2688,-5.2929,-5.3091,-5.2769,-5.2637,-5.2568,-5.2085,-5.1378,-5.0525,-5.0228,-4.9782,-4.9299,-4.902,-4.8909,-4.8909,-4.8909,-4.8909,-4.8909,-4.8909,-4.8909,-4.8909,-4.8909,-4.8909,-4.8909,-4.8909,-4.8909,-4.8891,-4.8874,-4.8856,-4.8727,-4.8207,-4.7873,-4.7537,-4.7051,-4.629,-4.5639,-4.5361,-4.4841,-4.4376,-4.4061,-4.4005,-4.4005,-4.4005,-4.4005,-4.4005,-4.4005,-4.4005,-4.4005,-4.4005,-4.4005,-4.4005,-4.4005,-4.4005,-4.4005,-4.4005,-4.3615,-4.3339,-4.3195,-4.2537,-4.2129,-4.1984,-4.2133,-4.24,-4.281,-4.3195,-4.361,-4.4005,-4.4005,-4.386,-3.1714,-3.299,-3.3788,-3.6734,-3.7469,-3.7721,-3.8572,-3.8698,-3.841,-3.7636,-3.6052,-3.5101,0.0,0.0,-3.5202,-3.6936,-3.7462,-3.8216,-3.9773,-3.9846,-4.0332,-4.1958,-4.2952,-4.3497,-4.3551,-4.421,-4.4656,-4.4656,-4.5374,-4.6159,-4.7015,-4.7074,-4.7487,-4.8403,-4.8799,-4.9433,-5.036,-5.0735,-5.1147,-5.1599,-5.2033,-5.2291,-5.2316,-5.3295,-5.3496,-5.313,-5.3558,-5.3346,-5.2659,-5.2661,-5.2197,-5.1379,-5.0562,-5.0209,-5.0079,-4.9317,-4.9039,-4.902,-4.8983,-4.8927,-4.8909,-4.8909,-4.8909,-4.8909,-4.8909,-4.8909,-4.8909,-4.8909,-4.8909,-4.8891,-4.8822,-4.8804,-4.8804,-4.8804,-4.823,-4.7673,-4.7759,-4.7125,-4.6345,-4.5565,-4.5361,-4.5026,-4.4209,-4.4023,-4.4005,-4.4005,-4.4005,-4.4005,-4.4005,-4.4005,-4.4005,-4.4005,-4.4005,-4.4005,-4.4005,-4.4005,-4.4005,-4.4005,-4.3627,-4.323,-4.2847,-4.2422,-4.2029,-4.1653,-4.2026,-4.242,-4.2829,-4.3212,-4.361,-4.4005,-4.4005,-4.3989,-3.2283,-3.4145,-3.5703,-3.6781,-3.7283,-3.7632,-3.8168,-3.8039,-3.7401,-3.595,-3.3875,-3.223,-3.2004,-3.2975,-3.4276,-3.5713,-3.8277,-4.0402,-4.1191,-4.1368,0.0,-4.2739,0.0,-4.3708,-4.4209,-4.4987,-4.5499,-4.5499,-4.5677,-4.6318,-4.7518,-4.7979,-4.8365,-4.8762,-4.963,-5.0073,-5.0044,-5.062,-5.1157,-5.1587,-5.1715,-5.197,-5.2318,-5.2555,-5.2835,-5.3108,-5.324,-5.3345,-5.3477,-5.3478,-5.3032,-5.2271,-5.2048,-5.1602,-5.1045,-5.0841,-5.0766,-5.0673,-5.0023,-4.941,-4.8909,-4.8909,-4.8909,-4.8909,-4.8909,-4.8909,-4.8909,-4.8909,-4.8909,-4.8891,-4.8874,-4.8874,-4.8874,-4.8874,-4.8725,-4.8558,-4.8593,-4.7961,-4.733,-4.7125,-4.6122,-4.5244,-4.5013,-4.4442,-4.4005,-4.4005,-4.4005,-4.4005,-4.4005,-4.4005,-4.4005,-4.4005,-4.4005,-4.4005,-4.4005,-4.4005,-4.4005,-4.4005,-4.3627,-4.3335,-4.3248,-4.258,-4.23,-4.2482,-4.23,-4.2541,-4.3248,-4.3354,-4.361,-4.4005,-4.4005,-4.3677,-3.4318,-3.5594,-3.6537,-3.7498,-3.7644,-3.7326,-3.6487,-3.6135,-3.5179,-3.2412,-3.0479,-2.9074,-2.8381,-3.0374,-3.2522,0.0,0.0,0.0,-4.1121,-4.1372,-4.1839,0.0,-4.3916,0.0,-4.4947,-4.5806,-4.6274,-4.6143,-4.6527,-4.7085,-4.7855,-4.8437,-4.8924,-4.9321,-4.993,-5.027,-5.0339,-5.0919,-5.143,-5.1903,-5.2146,-5.241,-5.2658,-5.2866,-5.301,-5.3097,-5.3301,-5.3558,-5.3813,-5.3813,-5.3534,-5.3088,-5.2735,-5.2327,-5.1881,-5.1528,-5.1398,-5.1323,-5.0841,-5.0376,-4.9875,-4.915,-4.8909,-4.8909,-4.8909,-4.8909,-4.8909,-4.8909,-4.8909,-4.8909,-4.8909,-4.8909,-4.8909,-4.8909,-4.8909,-4.8909,-4.8909,-4.8556,-4.811,-4.7774,-4.6696,-4.5709,-4.536,-4.4888,-4.4432,-4.4061,-4.4005,-4.4005,-4.4005,-4.4005,-4.4005,-4.4005,-4.4005,-4.4005,-4.4005,-4.4005,-4.4005,-4.4005,-4.3627,-4.3406,-4.3406,-4.281,-4.256,-4.281,-4.258,-4.2772,-4.3406,-4.3406,-4.361,-4.4005,-4.4005,-4.366,-3.6577,-3.6926,-3.6828,-3.821,-3.8078,-3.6963,-3.4476,-3.3797,-3.2496,-2.8334,-2.6857,-2.6033,-2.517,-2.7711,-3.035,-3.1677,0.0,-3.7759,-4.0543,-4.0917,-4.1527,-4.3229,-4.4711,-4.564,-4.5747,-4.6501,-4.6911,-4.6661,-4.7494,-4.8033,-4.805,-4.8679,-4.9356,-5.0004,-5.0021,-5.0321,-5.0873,-5.1378,-5.1833,-5.2305,-5.2854,-5.3121,-5.3198,-5.361,-5.3586,-5.3221,-5.363,-5.3813,-5.3813,-5.3813,-5.3813,-5.3738,-5.3032,-5.2754,-5.2679,-5.1974,-5.1714,-5.1695,-5.1602,-5.1491,-5.1138,-4.9577,-4.9076,-4.9057,-4.8946,-4.8909,-4.8909,-4.8909,-4.8909,-4.8909,-4.8909,-4.8909,-4.8909,-4.8909,-4.8909,-4.8909,-4.8909,-4.8909,-4.8686,-4.7978,-4.7216,-4.6415,-4.5587,-4.5369,-4.4989,-4.4135,-4.4005,-4.4005,-4.4005,-4.4005,-4.4005,-4.4005,-4.4005,-4.4005,-4.4005,-4.4005,-4.4005,-4.4005,-4.366,-4.3474,-4.3474,-4.3087,-4.2885,-4.2959,-4.2922,-4.3087,-4.3474,-4.3474,-4.366,-4.4005,-4.4005,-4.3761,-3.6197,-3.6972,-3.744,-3.7334,-3.7466,-3.6877,-3.4127,-3.2695,0.0,0.0,-2.5213,-2.4248,-2.2788,-2.5208,-2.8495,-3.177,-3.477,-3.7986,-4.1583,-4.2334,-4.2917,0.0,-4.5004,-4.5871,-4.6529,-4.684,-4.698,-4.6934,-4.7589,-4.8125,-4.8395,-4.9246,-5.0039,-5.0716,-5.0734,-5.0777,-5.0891,-5.1373,-5.1834,-5.231,-5.2842,-5.3308,-5.3693,-5.3774,-5.3754,-5.3674,-5.3774,-5.3813,-5.3813,-5.3813,-5.3813,-5.3794,-5.3664,-5.359,-5.3571,-5.3441,-5.3385,-5.3292,-5.2624,-5.1955,-5.1231,-5.0228,-4.993,-4.9837,-4.9132,-4.8909,-4.8909,-4.8909,-4.8909,-4.8909,-4.8909,-4.8909,-4.8909,-4.8909,-4.8909,-4.8909,-4.8909,-4.8909,-4.8853,-4.8723,-4.8036,-4.7235,-4.6427,-4.5744,-4.4989,-4.4135,-4.4005,-4.4005,-4.4005,-4.4005,-4.4005,-4.4005,-4.4005,-4.4005,-4.4005,-4.4005,-4.4005,-4.4005,-4.3923,-4.3892,-4.3892,-4.3508,-4.3457,-4.3777,-4.3457,-4.3491,-4.3892,-4.3892,-4.3923,-4.4005,-4.4005,-4.361,-3.664,-3.7015,-3.7203,-3.7657,-3.7148,-3.5524,-3.1842,0.0,0.0,0.0,-2.2375,-2.2058,-2.087,-2.3672,0.0,-2.9724,-3.2484,-3.5851,-4.0275,-4.1368,-4.2388,-4.4196,-4.5425,-4.6299,-4.676,-4.6911,-4.6957,-4.6888,-4.7565,-4.8221,-4.869,-4.9793,-5.0567,-5.0873,-5.0891,-5.0891,-5.0891,-5.1625,-5.2096,-5.2318,-5.31,-5.3589,-5.3813,-5.3813,-5.3813,-5.3813,-5.3813,-5.3813,-5.3813,-5.3813,-5.3813,-5.3813,-5.3813,-5.3813,-5.3813,-5.3813,-5.3813,-5.3683,-5.2884,-5.2345,-5.1806,-5.0525,-4.9837,-4.9447,-4.9039,-4.8909,-4.8909,-4.8909,-4.8909,-4.8909,-4.8909,-4.8909,-4.8909,-4.8909,-4.8909,-4.8909,-4.8909,-4.8909,-4.8909,-4.8909,-4.8593,-4.8071,-4.725,-4.6806,-4.6122,-4.4859,-4.4674,-4.4506,-4.4061,-4.4005,-4.4005,-4.4005,-4.4005,-4.4005,-4.4005,-4.4005,-4.4005,-4.4005,-4.4005,-4.4005,-4.4005,-4.3809,-4.3793,-4.4005,-4.3809,-4.3809,-4.4005,-4.4005,-4.4005,-4.3986,-4.3777,-4.3371,-3.6721,-3.7019,-3.7143,-3.812,-3.6985,-3.4428,-2.996,-2.7725,0.0,-2.0481,-2.0019,-2.0274,-1.9622,0.0,-2.5291,0.0,-2.9942,-3.3368,-3.847,-4.0024,-4.1601,0.0,-4.562,0.0,-4.6824,-4.6934,-4.6975,-4.6842,-4.7565,-4.8316,-4.9064,-5.0251,-5.0918,-5.0945,-5.0935,-5.0953,-5.0953,-5.1871,-5.233,-5.2306,-5.3316,-5.3813,-5.3813,-5.3813,-5.3813,-5.3813,-5.3813,-5.3813,-5.3813,-5.3813,-5.3813,-5.3813,-5.3813,-5.3813,-5.3813,-5.3813,-5.3701,-5.346,-5.2828,-5.2364,-5.1862,-5.0543,-4.967,-4.9132,-4.8946,-4.8909,-4.8909,-4.8909,-4.8909,-4.8909,-4.8909,-4.8909,-4.8909,-4.8909,-4.8909,-4.8909,-4.8909,-4.8909,-4.8909,-4.8909,-4.8909,-4.863,-4.783,-4.7683,-4.7144,-4.5528,-4.5287,-4.4989,-4.4116,-4.4005,-4.4005,-4.4005,-4.4005,-4.4005,-4.4005,-4.4005,-4.4005,-4.4005,-4.4005,-4.4005,-4.4005,-4.4005,-4.4005,-4.4005,-4.4005,-4.4005,-4.4005,-4.4005,-4.4005,-4.3989,-4.3677,-4.3265,-3.5356,-3.6888,-3.8187,-3.8007,-3.6957,-3.4786,-3.0361,0.0,-2.4542,-2.0356,-1.9618,-1.9669,-1.9518,-2.0451,-2.2508,-2.6368,-2.8642,-3.1876,-3.7462,-3.9704,-4.1708,-4.4183,0.0,0.0,-4.6903,-4.698,-4.698,-4.698,-4.763,-4.8522,-4.9738,-5.0497,-5.0945,-5.1079,-5.1086,-5.1085,-5.1085,-5.2004,-5.2426,-5.2306,-5.3316,-5.3813,-5.3813,-5.3813,-5.3813,-5.3813,-5.3813,-5.3813,-5.3813,-5.3813,-5.3813,-5.3813,-5.3813,-5.3813,-5.3813,-5.3813,-5.3348,-5.2698,-5.2624,-5.1602,-5.0302,-5.0153,-5.006,-4.9856,-4.9132,-4.8909,-4.8909,-4.8909,-4.8909,-4.8909,-4.8909,-4.8909,-4.8909,-4.8909,-4.8909,-4.8909,-4.8909,-4.8909,-4.8909,-4.8909,-4.8909,-4.8649,-4.7831,-4.7701,-4.7144,-4.5528,-4.5287,-4.4989,-4.4116,-4.4005,-4.4005,-4.4005,-4.4005,-4.4005,-4.4005,-4.4005,-4.4005,-4.4005,-4.4005,-4.4005,-4.4005,-4.4005,-4.4005,-4.4005,-4.4005,-4.4005,-4.4005,-4.4005,-4.4005,-4.4005,-4.3955,-4.3525,-3.5401,-3.6946,-3.7842,-3.7985,-3.5942,-3.3035,-2.9779,0.0,-2.3279,-2.0198,-1.9578,-1.959,-1.9567,-1.9829,-2.1097,-2.4236,-2.5191,-2.7501,-3.3106,-3.5482,-3.8083,-4.1973,-4.3924,-4.5472,-4.6873,-4.6998,-4.6998,-4.6998,-4.7627,-4.8402,-4.9366,-5.0045,-5.0638,-5.1105,-5.1167,-5.1176,-5.1105,-5.2029,-5.2426,-5.2307,-5.3306,-5.3813,-5.3813,-5.3813,-5.3813,-5.3813,-5.3813,-5.3813,-5.3813,-5.3813,-5.3813,-5.3813,-5.3813,-5.3813,-5.3813,-5.3813,-5.3292,-5.2531,-5.2048,-5.1101,-5.0023,-4.954,-4.9392,-4.9317,-4.9002,-4.8732,-4.855,-4.855,-4.855,-4.855,-4.855,-4.8714,-4.8909,-4.8909,-4.8909,-4.8909,-4.8909,-4.8909,-4.8909,-4.8909,-4.8909,-4.8797,-4.8481,-4.8426,-4.8036,-4.6903,-4.6735,-4.6271,-4.4952,-4.4785,-4.4581,-4.4061,-4.4005,-4.4005,-4.4005,-4.4005,-4.4005,-4.4005,-4.4005,-4.4005,-4.4005,-4.4005,-4.4005,-4.4005,-4.4005,-4.4005,-4.4005,-4.4005,-4.4005,-4.3989,-4.3491,-4.3105,-3.4239,-3.6019,-3.7073,-3.7444,-3.4881,-3.1654,-2.918,-2.5835,-2.2548,-2.0124,-1.9626,-1.9631,-1.9621,-1.984,-2.0667,-2.2637,-2.328,-2.5301,-3.0389,-3.2547,-3.5331,-3.9896,-4.2111,-4.3989,-4.5784,-4.6587,-4.6998,-4.6998,-4.7446,-4.8015,-4.8742,-4.9256,-5.0057,-5.1176,-5.1315,-5.1347,-5.1388,-5.218,-5.2576,-5.2559,-5.3401,-5.3813,-5.3813,-5.3813,-5.3717,-5.3582,-5.3582,-5.3582,-5.3582,-5.3582,-5.366,-5.3813,-5.3813,-5.3664,-5.346,-5.346,-5.2772,-5.1788,-5.1212,-5.0469,-4.9652,-4.9076,-4.8909,-4.8891,-4.875,-4.8532,-4.8325,-4.8439,-4.8476,-4.8476,-4.8476,-4.8678,-4.8909,-4.8909,-4.8909,-4.8909,-4.8909,-4.8909,-4.8909,-4.8909,-4.8909,-4.8909,-4.8909,-4.8909,-4.863,-4.7813,-4.7701,-4.72,-4.5825,-4.5454,-4.5064,-4.4451,-4.4153,-4.4005,-4.4005,-4.4005,-4.4005,-4.4005,-4.4005,-4.4005,-4.4005,-4.4005,-4.4005,-4.4005,-4.4005,-4.4005,-4.4005,-4.4005,-4.4005,-4.3971,-4.3301,-4.2847,-3.1102,-3.3743,-3.6047,-3.619,-3.4009,-3.1162,-2.8758,-2.566,-2.2613,-2.0203,-1.9693,-1.9693,-1.9693,-2.0392,-2.1223,-2.1995,-2.3887,-2.6637,-3.054,-3.2198,-3.4466,0.0,-3.9787,-4.1266,-4.3325,-4.5641,-4.6998,-4.6998,-4.6998,-4.7299,-4.7975,-4.8146,-4.9233,-5.1434,-5.1515,-5.1658,-5.1988,-5.2537,-5.2903,-5.3099,-5.3582,-5.3813,-5.3813,-5.3813,-5.3542,-5.3117,-5.3117,-5.3117,-5.3117,-5.3117,-5.3383,-5.3813,-5.3813,-5.3311,-5.2605,-5.2605,-5.1565,-5.0135,-5.0135,-4.9596,-4.8909,-4.8909,-4.8909,-4.8839,-4.842,-4.8306,-4.8382,-4.8767,-4.8891,-4.8891,-4.8891,-4.8909,-4.8909,-4.8909,-4.8909,-4.8909,-4.8909,-4.8909,-4.8909,-4.8909,-4.8909,-4.8909,-4.8909,-4.8909,-4.863,-4.7813,-4.7701,-4.7404,-4.6587,-4.5788,-4.5287,-4.5287,-4.4506,-4.4005,-4.4005,-4.4005,-4.4005,-4.4005,-4.4005,-4.4005,-4.4005,-4.4005,-4.4005,-4.4005,-4.4005,-4.4005,-4.4005,-4.4005,-4.4005,-4.3989,-4.3575,-4.2977,-2.8431,-3.0401,-3.1853,-3.1597,-2.9585,-2.7298,-2.6031,-2.3625,-2.13,-2.0026,-1.9738,-1.97,-1.9757,-1.9951,-2.0937,-2.3468,-2.4322,-2.6028,-2.9887,0.0,0.0,-3.8416,-4.2407,-4.5165,-4.5842,-4.6551,-4.6998,-4.6998,-4.6998,-4.7326,-4.8099,-4.8182,-4.8704,-4.9834,-4.9948,-5.026,-5.0827,-5.1601,-5.2214,-5.2687,-5.3432,-5.3813,-5.3813,-5.3813,-5.3717,-5.3562,-5.3242,-5.3096,-5.3096,-5.3096,-5.318,-5.3308,-5.3067,-5.2828,-5.2531,-5.1974,-5.1063,-5.0098,-5.0098,-4.9577,-4.8909,-4.8909,-4.8714,-4.8476,-4.8344,-4.8093,-4.7856,-4.7979,-4.7999,-4.8154,-4.875,-4.8909,-4.8909,-4.8909,-4.8909,-4.8909,-4.8909,-4.8909,-4.8909,-4.8909,-4.8909,-4.8909,-4.8909,-4.8909,-4.8816,-4.8556,-4.8519,-4.824,-4.7423,-4.6624,-4.59,-4.5361,-4.4525,-4.4005,-4.4005,-4.4005,-4.4005,-4.4005,-4.4005,-4.4005,-4.4005,-4.4005,-4.4005,-4.4005,-4.4005,-4.4005,-4.4005,-4.4005,-4.3728,-4.3177,-4.3051,-4.256,0.0,-2.7639,-2.8809,-2.8569,-2.687,-2.5055,-2.4286,-2.2451,-2.0724,-1.9957,-1.9763,-1.9751,-1.9794,-2.027,-2.1357,-2.345,-2.4414,-2.6097,-2.9575,0.0,0.0,-3.8941,-4.312,-4.5815,-4.6165,-4.67,-4.6975,-4.6924,-4.6975,-4.7194,-4.764,-4.7734,-4.7891,-4.8222,-4.8936,-4.9573,-5.0145,-5.0849,-5.1428,-5.1908,-5.2602,-5.3088,-5.3348,-5.3348,-5.342,-5.3504,-5.2909,-5.2553,0.0,-5.2226,-5.216,-5.2204,-5.2176,-5.1955,-5.1602,-5.1101,-5.0376,-4.9652,-4.9652,-4.9317,-4.8909,-4.8909,-4.8514,-4.8035,-4.8035,-4.7972,-4.7827,-4.7654,-4.785,-4.8232,-4.8767,-4.8909,-4.8909,-4.8909,-4.8909,-4.8909,-4.8909,-4.8909,-4.8909,-4.8909,-4.8909,-4.8909,-4.8909,-4.8909,-4.8909,-4.8909,-4.8909,-4.8723,-4.8221,-4.7181,-4.6308,-4.5807,-4.4692,-4.4005,-4.4005,-4.4005,-4.4005,-4.4005,-4.4005,-4.4005,-4.4005,-4.4005,-4.4005,-4.4005,-4.4005,-4.4005,-4.4005,-4.386,-4.344,-4.281,-4.2638,-4.2397,0.0,-2.5153,-2.6544,-2.6488,-2.5297,-2.3955,-2.3212,-2.1938,0.0,-1.9957,-1.9807,-1.9839,-1.9957,-2.1197,-2.2304,-2.2605,-2.4457,-2.6867,0.0,-3.1674,0.0,-3.9896,-4.2382,-4.3984,-4.4784,-4.6143,-4.6924,-4.6796,-4.69,-4.6921,-4.6791,-4.6903,-4.6921,-4.6791,-4.8312,-4.934,-4.9762,-5.0165,-5.0538,-5.0869,-5.1269,-5.1824,-5.2512,-5.2512,-5.2674,-5.2939,-5.2162,-5.1563,-5.1143,-5.0746,-5.0655,-5.0734,-5.1157,-5.0822,-5.0098,-5.0042,-4.954,-4.8909,-4.8909,-4.8909,-4.8891,-4.882,-4.8251,-4.7548,-4.7506,-4.7806,-4.8095,-4.7742,-4.8219,-4.882,-4.8873,-4.8909,-4.8909,-4.8909,-4.8909,-4.8909,-4.8909,-4.8909,-4.8909,-4.8909,-4.8909,-4.8909,-4.8909,-4.8909,-4.8909,-4.8909,-4.8909,-4.8909,-4.8909,-4.7553,-4.655,-4.6513,-4.5064,-4.4079,-4.4005,-4.4005,-4.4005,-4.4005,-4.4005,-4.4005,-4.4005,-4.4005,-4.4005,-4.4005,-4.4005,-4.3989,-4.3974,-4.3575,-4.3177,-4.2753,-4.2362,-4.2409,-1.9555,0.0,-2.2193,-2.1568,-2.1115,-2.0785,0.0,-2.0345,-2.0045,0.0,0.0,0.0,-2.1551,-2.1525,-2.2342,-2.5533,-2.6841,-2.849,-3.1486,-3.5491,-3.9028,-4.1552,-4.3872,-4.5085,-4.463,-4.5962,-4.6779,-4.6648,-4.669,-4.6684,-4.6649,-4.6684,-4.6684,-4.6649,-4.7133,-4.7772,-4.8588,-4.8955,-4.9592,-5.0527,-5.0869,-5.1287,-5.1749,-5.1749,-5.1787,-5.1862,-5.1298,-5.0949,-5.073,-5.065,-5.0617,-5.0602,-5.0454,-5.0283,-5.0042,-4.941,-4.9057,-4.8909,-4.8909,-4.8909,-4.8785,-4.8117,-4.7509,-4.6999,-4.6625,-4.6613,-4.6906,-4.7871,-4.8026,-4.8058,-4.8732,-4.8909,-4.8909,-4.8909,-4.8909,-4.8909,-4.8909,-4.8909,-4.8909,-4.8909,-4.8909,-4.8909,-4.8909,-4.8909,-4.8909,-4.8909,-4.8909,-4.8909,-4.8909,-4.8036,-4.7181,-4.6568,-4.5602,-4.4711,-4.4061,-4.4005,-4.4005,-4.4005,-4.4005,-4.4005,-4.4005,-4.4005,-4.4005,-4.4005,-4.4005,-4.386,-4.3525,-4.3457,-4.3051,-4.234,-4.2239,-4.2409,-1.7799,-1.9375,-2.0788,-2.0321,-2.0243,-2.0307,-2.03,0.0,0.0,0.0,0.0,0.0,0.0,0.0,0.0,-2.5992,-2.8135,-3.0644,0.0,-3.7594,-4.0503,-4.2111,-4.4017,-4.5141,-4.4929,-4.6,-4.6667,-4.6524,-4.6571,-4.6578,-4.6525,-4.6578,-4.6578,-4.6525,-4.6637,-4.6991,-4.7552,-4.7975,-4.8581,-4.935,-4.9709,-5.0286,-5.0998,-5.0964,-5.1025,-5.1139,-5.0485,-4.9923,-4.9434,-4.9279,-4.9091,-4.8932,-4.9173,-4.9289,-4.9288,-4.9076,-4.8891,-4.8785,-4.8945,-4.8962,-4.8803,-4.8175,-4.7674,-4.7288,-4.7049,-4.6661,-4.6533,-4.7671,-4.7806,-4.781,-4.8656,-4.8761,-4.8687,-4.8872,-4.8909,-4.8909,-4.8909,-4.8909,-4.8909,-4.8909,-4.8909,-4.8909,-4.8909,-4.8909,-4.8909,-4.8909,-4.8909,-4.8909,-4.8909,-4.8203,-4.7534,-4.7107,-4.6327,-4.5658,-4.5194,-4.4804,-4.4432,-4.4023,-4.4005,-4.4005,-4.4005,-4.3825,-4.3644,-4.3457,-4.3457,-4.3335,-4.3123,-4.2941,-4.2619,-4.2195,-4.2378,-4.278,-1.7221,-1.9251,-2.102,-2.0716,-2.0821,-2.0943,-2.076,0.0,0.0,0.0,0.0,0.0,0.0,-2.3308,0.0,0.0,-2.9512,-3.3138,-3.6757,-3.8885,-4.0592,-4.1951,-4.3433,-4.4529,-4.4997,-4.5882,-4.6401,-4.6357,-4.6475,-4.6475,-4.6387,-4.6475,-4.6475,-4.6363,-4.6501,-4.6637,-4.6772,-4.7244,-4.7671,-4.8015,-4.8346,-4.9047,-5.0017,-4.9948,-5.0065,-5.0294,-4.9553,-4.8774,-4.8002,-4.7735,-4.7399,-4.7133,-4.7935,-4.8288,-4.8384,-4.8786,-4.875,-4.855,-4.884,-4.8804,-4.8605,-4.8309,-4.7939,-4.763,-4.7677,-4.7151,-4.6682,-4.7409,-4.7542,-4.7701,-4.8569,-4.8549,-4.8398,-4.873,-4.8856,-4.8909,-4.8909,-4.8909,-4.8909,-4.8909,-4.8909,-4.8909,-4.8909,-4.8838,-4.8803,-4.8803,-4.875,-4.8695,-4.8695,-4.8103,-4.764,-4.7511,-4.6882,-4.6437,-4.6308,-4.5568,-4.4827,-4.42,-4.4006,-4.3892,-4.3809,-4.3491,-4.3141,-4.281,-4.281,-4.2772,-4.2715,-4.238,-4.2228,-4.2287,-4.2644,-4.3272,-1.7903,-2.0126,-2.1657,-2.0225,-2.0432,-2.0821,-2.0126,0.0,0.0,0.0,0.0,0.0,0.0,-2.5507,-2.6839,0.0,-3.3104,-3.5968,-3.8994,-4.0295,-4.1022,-4.1258,-4.268,-4.3604,-4.3452,-4.4744,-4.5747,-4.6193,-4.6263,-4.6263,-4.6246,-4.6263,-4.6263,-4.6246,-4.6374,-4.6495,-4.6637,-4.6806,-4.7165,-4.7578,-4.7645,-4.7888,-4.8281,-4.8262,-4.8218,-4.8168,-4.802,-4.7861,-4.7669,-4.7747,-4.7731,-4.7689,-4.7933,-4.8052,-4.8073,-4.8151,-4.8131,-4.8111,-4.8151,-4.7893,-4.7521,-4.7478,-4.7151,-4.6783,-4.6806,-4.6919,-4.7169,-4.7644,-4.7399,-4.7226,-4.8153,-4.8363,-4.8323,-4.8382,-4.866,-4.8909,-4.8909,-4.8909,-4.8909,-4.8909,-4.8909,-4.8909,-4.8909,-4.8624,-4.8401,-4.8401,-4.8056,-4.7797,-4.7797,-4.7688,-4.7361,-4.6668,-4.6486,-4.6103,-4.5375,-4.4631,-4.4413,-4.4902,-4.4016,-4.3354,-4.3014,-4.2904,-4.2848,-4.281,-4.281,-4.2638,-4.23,-4.2218,-4.2381,-4.2695,-4.2768,-4.357,-1.7401,-1.9031,-2.0377,-2.0913,-2.2396,-2.372,-2.3742,0.0,0.0,0.0,0.0,0.0,0.0,0.0,-2.9642,-3.416,-3.6258,-3.7918,-3.9655,-4.0225,-4.0617,-4.1064,-4.2072,-4.2867,-4.3172,-4.4168,-4.5059,-4.5668,-4.5721,-4.5848,-4.6179,-4.6196,-4.6221,-4.6319,-4.6374,-4.6495,-4.6725,-4.6772,-4.7057,-4.7542,-4.7478,-4.7632,-4.7962,-4.7921,-4.7738,-4.7428,-4.7485,-4.7313,-4.7066,-4.7129,-4.7151,-4.7196,-4.7496,-4.7648,-4.7674,-4.7772,-4.7895,-4.8034,-4.7809,-4.7705,-4.7687,-4.771,-4.7436,-4.708,-4.7044,-4.6972,-4.7012,-4.7643,-4.758,-4.7481,-4.8135,-4.8115,-4.7922,-4.7918,-4.8263,-4.8569,-4.8569,-4.875,-4.8909,-4.8909,-4.8909,-4.882,-4.8605,-4.842,-4.821,-4.7975,-4.7736,-4.7611,-4.7611,-4.7611,-4.7446,-4.7083,-4.7047,-4.6721,-4.5868,-4.5488,-4.4871,-4.3912,-4.3777,-4.3356,-4.25,-4.2482,-4.2362,-4.2154,-4.2154,-4.205,-4.1895,-4.2298,-4.2613,-4.2833,-4.3658,-4.4431,-1.7385,-1.8379,-1.9481,-2.1901,0.0,-2.5241,-2.6766,-2.6389,0.0,0.0,0.0,0.0,0.0,-3.0172,-3.2994,-3.7039,-3.8614,-3.9613,-4.0368,-4.0457,-4.069,-4.1312,-4.1825,-4.245,-4.322,-4.3758,-4.4324,-4.5035,-4.507,-4.5341,-4.5978,-4.6013,-4.615,-4.6429,-4.6447,-4.6613,-4.6916,-4.6842,-4.7057,-4.7567,-4.7356,-4.7449,-4.7842,-4.7677,-4.7403,-4.7071,-4.7107,-4.6921,-4.659,-4.6637,-4.6637,-4.6684,-4.7075,-4.7262,-4.7313,-4.7421,-4.7609,-4.7793,-4.7493,-4.7557,-4.777,-4.7834,-4.7645,-4.7363,-4.7331,-4.7049,-4.6923,-4.7514,-4.7683,-4.7773,-4.8077,-4.7885,-4.7557,-4.7467,-4.7879,-4.8306,-4.8306,-4.855,-4.875,-4.875,-4.866,-4.8495,-4.8191,-4.8035,-4.7836,-4.7485,-4.7335,-4.727,-4.727,-4.727,-4.727,-4.727,-4.727,-4.6946,-4.6176,-4.6241,-4.5414,-4.3202,-4.3552,-4.3324,-4.2107,-4.205,-4.1987,-4.1885,-4.1885,-4.1973,-4.2148,-4.2763,-4.3167,-4.3377,-4.4553,-4.5185,-1.8955,-1.9712,-2.0395,-2.2807,-2.2368,0.0,-2.6306,-2.5995,0.0,-2.8899,0.0,0.0,0.0,-3.445,-3.6963,-3.7831,-3.9641,-4.1223,-4.2004,-4.2129,-4.2147,-4.2218,-4.2254,-4.2545,-4.3235,-4.3326,-4.3669,-4.4319,-4.4372,-4.4691,-4.5411,-4.5446,-4.5805,-4.6572,-4.659,-4.6806,-4.7258,-4.6962,-4.703,-4.7493,-4.7053,-4.7012,-4.7345,-4.6898,-4.6684,-4.6643,-4.6661,-4.6637,-4.6613,-4.6731,-4.6795,-4.6795,-4.6957,-4.7025,-4.7025,-4.7048,-4.7048,-4.707,-4.7066,-4.7048,-4.707,-4.707,-4.7048,-4.7043,-4.7025,-4.7173,-4.7338,-4.7335,-4.7515,-4.7679,-4.7647,-4.7634,-4.7488,-4.7044,-4.7648,-4.8306,-4.8306,-4.8325,-4.8344,-4.8344,-4.7977,-4.7695,-4.7653,-4.7291,-4.6999,-4.6954,-4.6596,-4.6319,-4.6319,-4.6319,-4.6319,-4.6319,-4.6319,-4.6002,-4.527,-4.5826,-4.5545,-4.3909,-4.3571,-4.2903,-4.1688,-4.1631,-4.1978,-4.271,-4.2705,-4.3061,-4.3728,-4.3781,-4.4202,-4.494,-4.5045,-4.5484,-1.8445,-1.9807,-2.1105,-2.302,-2.3814,0.0,0.0,-2.9419,-2.9983,-3.2263,-3.3419,0.0,-3.3868,-3.6357,-3.846,-3.8491,-4.038,-4.1933,-4.2272,-4.2308,-4.2308,-4.2308,-4.2308,-4.2397,-4.2634,-4.2697,-4.2946,-4.3616,-4.3687,-4.3984,-4.4696,-4.4708,-4.4896,-4.5288,-4.5288,-4.5378,-4.5561,-4.5886,-4.6235,-4.6629,-4.6753,-4.6824,-4.6852,-4.6778,-4.6708,-4.6731,-4.6801,-4.6842,-4.6865,-4.6911,-4.6911,-4.6934,-4.698,-4.6998,-4.6998,-4.6998,-4.6998,-4.6998,-4.6998,-4.6998,-4.6998,-4.6998,-4.6998,-4.698,-4.6888,-4.6875,-4.6931,-4.7129,-4.72,-4.7182,-4.7174,-4.7165,-4.7066,-4.6572,-4.6954,-4.7439,-4.7439,-4.7671,-4.7856,-4.7856,-4.7715,-4.7506,-4.7204,-4.7022,-4.6794,-4.6501,-4.6301,-4.6196,-4.6196,-4.6196,-4.6196,-4.6196,-4.5775,-4.5582,-4.5758,-4.5624,-4.5273,-4.4676,-4.4048,-4.3296,-4.2377,-4.2359,-4.25,-4.2775,-4.3254,-4.3623,-4.3904,-4.4395,-4.4799,-4.5115,-4.5565,-4.5933,-1.8472,-1.9713,-2.1132,0.0,0.0,0.0,-3.0694,-3.2073,-3.3235,-3.5911,-3.6664,-3.6758,-3.6463,-3.7906,-3.9168,-3.9158,-4.0922,-4.2308,-4.2308,-4.2308,-4.2308,-4.2308,-4.2308,-4.2308,-4.2308,-4.2308,-4.2498,-4.2946,-4.2981,-4.3294,-4.4006,-4.4041,-4.4192,-4.4529,-4.4529,-4.4577,-4.4689,-4.5094,-4.5436,-4.5723,-4.5989,-4.6367,-4.6893,-4.6842,-4.6819,-4.6865,-4.6957,-4.6998,-4.6998,-4.6998,-4.6998,-4.6998,-4.6998,-4.6998,-4.6998,-4.6998,-4.6998,-4.6998,-4.6998,-4.6998,-4.6998,-4.6998,-4.6998,-4.698,-4.6888,-4.6772,-4.6708,-4.6898,-4.6858,-4.6724,-4.6695,-4.6771,-4.6771,-4.6301,-4.6572,-4.6908,-4.6908,-4.7138,-4.7378,-4.7378,-4.727,-4.7066,-4.6724,-4.6672,-4.6572,-4.6246,-4.6196,-4.6196,-4.6196,-4.6196,-4.6196,-4.6196,-4.574,-4.5635,-4.6161,-4.574,-4.5466,-4.5466,-4.4711,-4.3834,-4.2851,-4.2816,-4.2921,-4.3149,-4.3641,-4.4132,-4.4641,-4.5185,-4.5466,-4.5466,-4.5951,-4.6196,-1.9381,-1.9622,-2.041,0.0,0.0,0.0,-3.192,-3.3269,-3.4723,-3.9688,-3.9742,-3.9058,-3.9601,-3.9376,-3.9291,-3.9812,-4.1252,-4.2308,-4.2308,-4.2308,-4.2308,-4.2308,-4.2308,-4.2308,-4.2308,-4.2308,-4.2308,-4.2308,-4.2308,-4.2644,-4.3465,-4.35,-4.3818,-4.4549,-4.4567,-4.4742,-4.5077,-4.476,-4.4696,-4.4877,-4.4696,-4.562,-4.7472,-4.7007,-4.6865,-4.6998,-4.6998,-4.6998,-4.6998,-4.6998,-4.6998,-4.6998,-4.6998,-4.6998,-4.6998,-4.6998,-4.6998,-4.6998,-4.6998,-4.6998,-4.6998,-4.6998,-4.6998,-4.6998,-4.6998,-4.6911,-4.6772,-4.6637,-4.6501,-4.6374,-4.6246,-4.6531,-4.6788,-4.6301,-4.6572,-4.6886,-4.6886,-4.6886,-4.6886,-4.6886,-4.6525,-4.6196,-4.6196,-4.6196,-4.6196,-4.6196,-4.6196,-4.6196,-4.6196,-4.6196,-4.6196,-4.6196,-4.6196,-4.6196,-4.6196,-4.6196,-4.6196,-4.6196,-4.5495,-4.4413,-4.2886,-4.2833,-4.3184,-4.3904,-4.3921,-4.4676,-4.6196,-4.6196,-4.6196,-4.6196,-4.6196,-4.6196,-1.8554,-2.0822,0.0,-2.431,0.0,0.0,0.0,-3.467,0.0,0.0,-4.0092,-3.9126,-3.9375,-4.0022,-4.0374,-3.9964,-4.1238,-4.2308,-4.2308,-4.2308,-4.2308,-4.2308,-4.2308,-4.2308,-4.2308,-4.2308,-4.2308,-4.2308,-4.2308,-4.2415,-4.2626,-4.2662,-4.2751,-4.2965,-4.2983,-4.2986,-4.2989,-4.3451,-4.3736,-4.3786,-4.4288,-4.5112,-4.6163,-4.6119,-4.644,-4.6998,-4.6998,-4.6998,-4.6998,-4.6998,-4.6998,-4.6998,-4.6998,-4.6998,-4.6998,-4.6998,-4.6998,-4.6998,-4.6998,-4.6998,-4.6998,-4.6998,-4.6998,-4.6998,-4.6998,-4.6911,-4.6772,-4.6637,-4.6501,-4.6374,-4.6246,-4.6301,-4.6374,-4.6221,-4.6319,-4.6423,-4.6423,-4.6423,-4.6423,-4.6423,-4.6295,-4.6196,-4.6196,-4.6196,-4.6196,-4.6196,-4.6196,-4.6196,-4.6196,-4.6196,-4.6196,-4.6196,-4.6196,-4.6196,-4.6196,-4.6196,-4.6196,-4.6196,-4.5165,-4.4488,-4.4407,-4.4431,-4.4518,-4.4746,-4.5256,-4.574,-4.6196,-4.5768,-4.5572,-4.5572,-4.5117,-4.5161,-1.9766,-2.2239,0.0,-2.6822,-3.0006,-3.3388,-3.6012,0.0,0.0,0.0,-4.1166,-4.0203,-4.0583,-4.09,-4.1054,-4.0872,-4.1668,-4.2308,-4.2308,-4.2308,-4.2308,-4.2308,-4.2308,-4.2308,-4.2308,-4.2308,-4.2308,-4.2308,-4.2308,-4.2308,-4.2308,-4.2308,-4.2308,-4.2308,-4.2308,-4.2267,-4.2166,-4.2664,-4.2896,-4.2917,-4.3376,-4.4035,-4.4782,-4.5151,-4.5588,-4.6052,-4.6052,-4.623,-4.6516,-4.6516,-4.6712,-4.6998,-4.6998,-4.6998,-4.6998,-4.6998,-4.6998,-4.6998,-4.6998,-4.6998,-4.6998,-4.6998,-4.6998,-4.6998,-4.6998,-4.6934,-4.6842,-4.6661,-4.6542,-4.6447,-4.6246,-4.6196,-4.6196,-4.6196,-4.6196,-4.6196,-4.6196,-4.6196,-4.6196,-4.6196,-4.6196,-4.6196,-4.6196,-4.6196,-4.6196,-4.6196,-4.6196,-4.6196,-4.6196,-4.6196,-4.6196,-4.6196,-4.6196,-4.6196,-4.6196,-4.598,-4.5819,-4.5819,-4.4656,-4.4225,-4.4793,-4.4248,-4.41,-4.4386,-4.4601,-4.4852,-4.5181,-4.4793,-4.4618,-4.4635,-4.4466,-4.4584,-2.1878,0.0,0.0,-3.016,-3.174,0.0,-3.856,-4.0544,-4.1741,-4.3246,-4.2505,-4.1804,-4.2488,-4.1803,-4.137,-4.2121,-4.2246,-4.2267,-4.2267,-4.2287,-4.2308,-4.2308,-4.2308,-4.2308,-4.2308,-4.2308,-4.2308,-4.2308,-4.2308,-4.2308,-4.2308,-4.2308,-4.2308,-4.2308,-4.2308,-4.2308,-4.2308,-4.2308,-4.2308,-4.2308,-4.2308,-4.268,-4.3429,-4.4157,-4.4531,-4.4603,-4.4603,-4.5013,-4.5695,-4.5695,-4.6123,-4.6766,-4.6766,-4.6766,-4.6783,-4.6855,-4.6873,-4.689,-4.6962,-4.6998,-4.6998,-4.6998,-4.6998,-4.6998,-4.6998,-4.6998,-4.6934,-4.6661,-4.659,-4.6501,-4.6182,-4.6109,-4.6074,-4.6003,-4.6109,-4.6196,-4.6196,-4.6196,-4.6196,-4.6196,-4.6196,-4.6196,-4.6196,-4.6196,-4.6196,-4.6196,-4.6196,-4.6196,-4.6196,-4.6196,-4.6196,-4.6196,-4.6119,-4.6017,-4.6017,-4.5398,-4.5051,-4.512,-4.3939,-4.3534,-4.4288,-4.301,-4.2642,-4.3308,-4.2792,-4.2864,-4.352,-4.3467,-4.3474,-4.3532,-4.3973,-4.4226,-1.9916,-2.3105,0.0,0.0,-3.3611,-3.7123,-3.9265,-4.02,-4.0962,-4.2182,-4.1994,-4.1654,-4.1813,-4.1643,-4.1564,-4.1723,-4.187,-4.1998,-4.1998,-4.2184,-4.2308,-4.2308,-4.2308,-4.2308,-4.2308,-4.2308,-4.2308,-4.2308,-4.2308,-4.2308,-4.2308,-4.2308,-4.2308,-4.2308,-4.2308,-4.2308,-4.2308,-4.2308,-4.2308,-4.2308,-4.2308,-4.2376,-4.2573,-4.3393,-4.405,-4.4603,-4.4591,-4.4702,-4.4852,-4.4858,-4.4951,-4.5102,-4.5102,-4.5102,-4.5173,-4.5838,-4.607,-4.6159,-4.6766,-4.6998,-4.6998,-4.6998,-4.6998,-4.6998,-4.6998,-4.6911,-4.6819,-4.6637,-4.6501,-4.6281,-4.5532,-4.5343,-4.5185,-4.4536,-4.5302,-4.6196,-4.6196,-4.6196,-4.6196,-4.6196,-4.6196,-4.6196,-4.6196,-4.6196,-4.6196,-4.6196,-4.6196,-4.6196,-4.6196,-4.6196,-4.6196,-4.6196,-4.5314,-4.4722,-4.4722,-4.3614,-4.3197,-4.3766,-4.2561,-4.2399,-4.3652,-4.3351,-4.3264,-4.3542,-4.3399,-4.3233,-4.2971,-4.2496,-4.2483,-4.2869,-4.2534,-4.2822,-2.1005,0.0,0.0,-3.2133,0.0,-3.7751,-3.8946,-3.9265,-3.9512,-4.0275,-4.1047,-4.1604,-4.1604,-4.1596,-4.16,-4.1587,-4.1701,-4.1789,-4.1892,-4.2019,-4.2163,-4.2287,-4.2308,-4.2308,-4.2308,-4.2308,-4.2308,-4.2308,-4.2308,-4.2308,-4.2308,-4.2308,-4.2308,-4.2308,-4.2308,-4.2308,-4.2308,-4.2308,-4.2308,-4.2308,-4.2308,-4.2308,-4.2305,-4.2733,-4.3144,-4.35,-4.3494,-4.3725,-4.4068,-4.406,-4.4296,-4.4603,-4.4603,-4.4603,-4.4638,-4.5066,-4.5231,-4.5302,-4.5713,-4.5856,-4.5909,-4.6302,-4.6427,-4.6498,-4.6804,-4.6865,-4.6754,-4.6566,-4.6453,-4.6198,-4.5315,-4.5098,-4.4904,-4.4097,-4.4518,-4.5196,-4.5582,-4.5653,-4.5775,-4.6126,-4.6196,-4.6196,-4.6196,-4.6196,-4.6196,-4.6196,-4.6196,-4.6196,-4.6196,-4.6196,-4.5982,-4.5349,-4.4705,-4.4053,-4.34,-4.275,-4.2573,-4.2931,-4.2047,-4.1816,-4.2553,-4.2291,-4.2304,-4.2739,-4.2478,-4.2082,-4.1506,-4.1199,-4.1178,-4.1446,-4.1691,-4.2076,-2.1988,0.0,-2.8349,-3.4233,-3.6269,0.0,-3.7914,-3.8104,-3.8163,-3.8377,-3.9951,-4.1261,-4.1261,-4.1407,-4.1481,-4.1475,-4.1513,-4.1615,-4.1823,-4.1892,-4.1998,-4.2267,-4.2308,-4.2308,-4.2308,-4.2308,-4.2308,-4.2308,-4.2308,-4.2308,-4.2308,-4.2308,-4.2308,-4.2308,-4.2308,-4.2308,-4.2308,-4.2308,-4.2308,-4.2308,-4.2308,-4.2308,-4.2308,-4.2308,-4.2308,-4.2308,-4.2308,-4.268,-4.3304,-4.3304,-4.3661,-4.4193,-4.4193,-4.4193,-4.421,-4.4353,-4.4407,-4.4424,-4.4549,-4.4603,-4.4728,-4.5552,-4.5802,-4.5922,-4.6611,-4.6778,-4.6708,-4.6471,-4.6293,-4.598,-4.5122,-4.4799,-4.4501,-4.3693,-4.35,-4.3763,-4.4694,-4.4992,-4.5291,-4.5881,-4.6109,-4.6196,-4.6196,-4.6196,-4.6196,-4.6196,-4.6196,-4.6196,-4.6196,-4.6,-4.5469,-4.4405,-4.401,-4.3364,-4.2243,-4.2132,-4.2191,-4.2323,-4.1768,-4.1496,-4.1626,-4.1065,-4.0991,-4.1493,-4.1072,-4.0545,-3.9973,-3.9973,-4.0012,-4.0132,-4.1072,-4.148,0.0,0.0,-2.9075,0.0,-3.4924,-3.6434,0.0,0.0,-3.8023,-3.7703,-3.8886,-3.9968,-3.9968,-4.0504,-4.0995,-4.0989,-4.1152,-4.134,-4.1604,-4.1784,-4.1998,-4.2267,-4.2308,-4.2308,-4.2308,-4.2308,-4.2308,-4.2308,-4.2308,-4.2308,-4.2308,-4.2308,-4.2308,-4.2308,-4.2308,-4.2308,-4.2308,-4.2308,-4.2308,-4.2308,-4.2308,-4.2308,-4.2308,-4.2308,-4.2308,-4.2308,-4.2308,-4.2361,-4.2448,-4.2448,-4.2519,-4.2608,-4.2608,-4.2608,-4.268,-4.3393,-4.364,-4.3729,-4.4371,-4.4603,-4.4728,-4.5552,-4.5802,-4.5922,-4.6611,-4.6708,-4.659,-4.6429,-4.5868,-4.5086,-4.4255,-4.3588,-4.2903,-4.2096,-4.192,-4.2306,-4.3746,-4.4606,-4.5133,-4.5238,-4.5758,-4.6196,-4.6196,-4.6196,-4.6196,-4.6196,-4.6196,-4.6196,-4.6196,-4.5254,-4.4482,-4.4328,-4.2787,-4.1711,-4.1544,-4.1045,-4.1051,-4.1669,-4.1162,-4.1097,-4.1762,-4.1246,-4.0754,-4.0339,-4.0268,-3.994,-3.9421,-3.9421,-3.9654,-4.0099,-4.0268,-4.0582,-2.0192,-2.4367,-2.8558,0.0,-3.3499,-3.4412,-3.5534,-3.6145,-3.655,-3.6774,-3.7698,-3.8715,-3.9543,-3.999,-4.038,-4.0819,-4.0965,-4.1111,-4.134,-4.1458,-4.1657,-4.204,-4.2082,-4.2124,-4.2287,-4.2308,-4.2308,-4.2308,-4.2308,-4.2308,-4.2308,-4.2308,-4.2308,-4.2308,-4.2308,-4.2308,-4.2308,-4.2308,-4.2308,-4.2308,-4.2308,-4.2308,-4.2308,-4.2308,-4.2308,-4.2308,-4.2308,-4.2308,-4.2308,-4.2308,-4.2308,-4.2308,-4.2308,-4.2308,-4.2343,-4.2697,-4.2822,-4.2876,-4.3197,-4.3304,-4.3447,-4.425,-4.4777,-4.5187,-4.582,-4.6236,-4.6471,-4.6326,-4.5725,-4.4904,-4.4097,-4.336,-4.2605,-4.1797,-4.1604,-4.1797,-4.2464,-4.3237,-4.4079,-4.494,-4.5712,-4.6196,-4.6196,-4.6196,-4.6196,-4.6196,-4.6196,-4.6196,-4.6196,-4.5074,-4.4182,-4.3835,-4.2349,-4.1262,-4.0934,-4.1032,-4.1123,-4.1086,-4.1227,-4.1154,-4.0753,-4.0586,-4.0191,-3.949,-3.9885,-3.9836,-3.9299,-3.9299,-3.9411,-3.9643,-3.9823,-3.9826,0.0,0.0,-2.6177,-3.0208,-3.143,-3.2232,0.0,-3.5146,-3.5428,-3.6146,-3.6766,-3.7599,-3.8888,-3.9296,-3.9679,-4.0474,-4.0601,-4.074,-4.1128,-4.1209,-4.1373,-4.1831,-4.1895,-4.2019,-4.2267,-4.2308,-4.2308,-4.2308,-4.2308,-4.2308,-4.2308,-4.2308,-4.2308,-4.2308,-4.2308,-4.2308,-4.2308,-4.2308,-4.2308,-4.2308,-4.2308,-4.2308,-4.2308,-4.2308,-4.2308,-4.2308,-4.2308,-4.2308,-4.2308,-4.2308,-4.2308,-4.2308,-4.2308,-4.2308,-4.2308,-4.2308,-4.2308,-4.2308,-4.2308,-4.2308,-4.243,-4.3251,-4.3825,-4.4356,-4.5161,-4.5735,-4.6128,-4.6193,-4.5512,-4.4659,-4.4062,-4.3202,-4.2342,-4.1745,-4.1604,-4.1657,-4.1868,-4.2535,-4.3483,-4.4834,-4.5712,-4.6196,-4.6196,-4.6196,-4.6196,-4.6196,-4.6196,-4.6077,-4.5743,-4.4758,-4.3767,-4.3,-4.2026,-4.1271,-4.0815,-4.1318,-4.146,-4.1013,-4.1232,-4.0929,-3.9992,-3.9918,-3.9655,-3.9094,-3.9622,-3.9693,-3.9299,-3.9299,-3.9272,-3.9164,-3.9394,-3.915,0.0,-1.9373,0.0,-2.548,-2.8216,-3.0404,-3.2546,-3.4209,-3.5492,-3.6167,-3.6335,-3.6611,-3.7461,-3.818,-3.8905,-3.9629,-3.975,-4.0101,-4.1059,-4.1209,-4.1373,-4.1831,-4.1895,-4.2019,-4.2267,-4.2308,-4.2308,-4.2308,-4.2308,-4.2308,-4.2308,-4.2308,-4.2308,-4.2308,-4.2308,-4.2308,-4.2308,-4.2308,-4.2308,-4.2308,-4.2308,-4.2308,-4.2308,-4.2308,-4.2308,-4.2308,-4.2308,-4.2308,-4.2308,-4.2308,-4.2308,-4.2308,-4.2308,-4.2308,-4.2308,-4.2308,-4.2308,-4.2308,-4.2308,-4.2308,-4.243,-4.3251,-4.3433,-4.361,-4.4984,-4.5382,-4.5476,-4.6052,-4.5109,-4.3939,-4.3904,-4.2798,-4.1657,-4.1604,-4.1604,-4.1815,-4.2587,-4.3325,-4.4097,-4.494,-4.5712,-4.6196,-4.6196,-4.6196,-4.6196,-4.6196,-4.6196,-4.5768,-4.4542,-4.3826,-4.2955,-4.1632,-4.1544,-4.1578,-4.1547,-4.1701,-4.1778,-4.1729,-4.0767,-4.0153,-4.0099,-3.9605,-3.9305,-3.9299,-3.9332,-3.9348,-3.9299,-3.9299,-3.9121,-3.8832,-3.8838,-3.8688,0.0,0.0,0.0,-2.3405,-2.5776,-2.808,-3.0231,-3.203,-3.3696,-3.5252,-3.5614,-3.5885,-3.659,-3.7374,-3.8151,-3.887,-3.9388,-3.9848,-4.0176,-4.0683,-4.118,-4.1653,-4.1697,-4.1849,-4.2267,-4.2308,-4.2308,-4.2308,-4.2308,-4.2308,-4.2308,-4.2308,-4.2308,-4.2308,-4.2308,-4.2308,-4.2308,-4.2308,-4.2308,-4.2308,-4.2308,-4.2308,-4.2308,-4.2308,-4.2308,-4.2308,-4.2308,-4.2308,-4.2308,-4.2308,-4.2308,-4.2308,-4.2308,-4.2308,-4.2308,-4.2308,-4.2308,-4.2308,-4.2308,-4.2308,-4.2361,-4.2626,-4.2928,-4.3275,-4.378,-4.4152,-4.4466,-4.4659,-4.3992,-4.3202,-4.3202,-4.2412,-4.1604,-4.1604,-4.1604,-4.1585,-4.1528,-4.2141,-4.3001,-4.412,-4.4673,-4.5097,-4.5428,-4.5881,-4.6039,-4.5572,-4.5898,-4.5725,-4.4465,-4.3355,-4.253,-4.214,-4.1049,-4.0742,-4.1652,-4.1447,-4.1138,-4.0734,-4.0322,-3.9957,-3.9588,-3.9404,-3.9299,-3.9299,-3.9094,-3.8985,-3.8985,-3.8985,-3.8821,-3.856,-3.8315,-3.8173,-1.6335,0.0,0.0,0.0,-2.3263,-2.5258,-2.8451,-3.0266,-3.1894,-3.3975,-3.4874,-3.5383,-3.5849,-3.6559,-3.734,-3.8113,-3.8632,-3.9128,-3.9635,-4.0239,-4.0879,-4.1525,-4.167,-4.1849,-4.2267,-4.2308,-4.2287,-4.2246,-4.2267,-4.2287,-4.2246,-4.2287,-4.2308,-4.2308,-4.2308,-4.2308,-4.2308,-4.2124,-4.2023,-4.2023,-4.2023,-4.2023,-4.2044,-4.2207,-4.2308,-4.2308,-4.2308,-4.2308,-4.2308,-4.2308,-4.2308,-4.2308,-4.2308,-4.2308,-4.2308,-4.2308,-4.2308,-4.2308,-4.2308,-4.2308,-4.2308,-4.2308,-4.2498,-4.2784,-4.3032,-4.3296,-4.3588,-4.3834,-4.3377,-4.2816,-4.2816,-4.2201,-4.1604,-4.1604,-4.1453,-4.1232,-4.089,-4.1423,-4.2251,-4.309,-4.361,-4.4081,-4.4605,-4.5115,-4.5225,-4.4596,-4.4921,-4.4717,-4.3306,-4.2547,-4.2041,-4.1666,-4.0734,-4.0515,-4.1444,-4.1036,-4.0529,-4.0132,-3.9924,-3.966,-3.9315,-3.9175,-3.9121,-3.9121,-3.8821,-3.8611,-3.8483,-3.8611,-3.8516,-3.8234,-3.8001,-3.7857,0.0,0.0,0.0,-1.9845,-2.0632,-2.2028,-2.7111,-2.8949,-3.0179,-3.2353,-3.4007,-3.5076,-3.5166,-3.5766,-3.6537,-3.7311,-3.7471,-3.7997,-3.9428,-3.9869,-4.0411,-4.1424,-4.1692,-4.1927,-4.2231,-4.2251,-4.221,-4.2103,-4.2225,-4.2246,-4.2103,-4.2225,-4.2308,-4.2308,-4.2308,-4.2287,-4.2287,-4.1753,-4.1494,-4.1472,-4.1472,-4.149,-4.1534,-4.2044,-4.2287,-4.2308,-4.2287,-4.2287,-4.2287,-4.2287,-4.2287,-4.2287,-4.2287,-4.2287,-4.2287,-4.2287,-4.2287,-4.2308,-4.2308,-4.2308,-4.2308,-4.2308,-4.2178,-4.2147,-4.2855,-4.2926,-4.2898,-4.3623,-4.3325,-4.274,-4.2758,-4.2201,-4.1604,-4.1582,-4.1186,-4.0778,-4.0754,-4.1357,-4.1933,-4.1974,-4.2543,-4.32,-4.3734,-4.3863,-4.3728,-4.3308,-4.3276,-4.2677,-4.1019,-4.1412,-4.1361,-4.0053,-4.0512,-4.0954,-4.0971,-4.0409,-4.0066,-4.0066,-3.9588,-3.9299,-3.9299,-3.8969,-3.8805,-3.8805,-3.8516,-3.8234,-3.7915,-3.8234,-3.8205,-3.7886,-3.7886,-3.7756,-1.5151,0.0,0.0,0.0,0.0,0.0,-2.2383,-2.4662,-2.7191,-2.9885,-3.1287,-3.2513,-3.4113,-3.5012,-3.5576,-3.58,-3.6769,-3.7642,-3.8047,-3.8627,-3.9242,-3.9855,-3.9979,-4.0379,-4.1337,-4.1431,-4.1622,-4.2068,-4.2124,-4.2145,-4.2103,-4.2225,-4.2308,-4.2308,-4.2308,-4.2124,-4.1727,-4.1561,-4.1316,-4.0972,-4.0972,-4.1157,-4.1512,-4.1644,-4.192,-4.2287,-4.1878,-4.1709,-4.1731,-4.2145,-4.2065,-4.1709,-4.1709,-4.1709,-4.1709,-4.1709,-4.198,-4.2308,-4.2308,-4.2308,-4.2308,-4.2308,-4.2205,-4.2111,-4.2257,-4.1943,-4.1603,-4.2098,-4.1811,-4.1429,-4.1831,-4.178,-4.1498,-4.11,-4.0896,-4.0587,-3.98,-3.9813,-4.0262,-4.1231,-4.158,-4.1801,-4.2053,-4.2864,-4.3152,-4.2205,-4.2576,-4.2416,-4.0966,-4.0987,-4.0794,-4.0003,-3.9691,-3.978,-4.0306,-3.982,-3.9516,-3.9516,-3.9388,-3.9175,-3.8942,-3.886,-3.8694,-3.8516,-3.8189,-3.7972,-3.7915,-3.7972,-3.7873,-3.7612,-3.7612,-3.7553,-1.58,-1.6694,-1.7802,-1.7216,0.0,0.0,-2.1101,-2.2855,-2.5003,-2.7966,-2.9488,-3.0749,-3.2388,-3.3532,-3.4235,-3.4254,-3.5528,-3.677,-3.7409,-3.7945,-3.8517,-3.9228,-3.937,-3.9714,-4.0517,-4.061,-4.0746,-4.1029,-4.1105,-4.1286,-4.1606,-4.1724,-4.1928,-4.2308,-4.2308,-4.2044,-4.1512,-4.1311,-4.0949,-4.0473,-4.0473,-4.0618,-4.0885,-4.1111,-4.1378,-4.1661,-4.1356,-4.1202,-4.1225,-4.1552,-4.149,-4.1202,-4.1202,-4.1202,-4.1202,-4.1202,-4.1401,-4.1683,-4.1683,-4.1683,-4.1683,-4.1683,-4.1552,-4.1378,-4.1346,-4.0966,-4.0642,-4.0873,-4.0707,-4.0538,-4.0849,-4.0919,-4.0849,-4.0546,-4.0302,-3.9952,-3.9322,-3.9017,-3.9149,-4.0153,-4.0411,-4.0551,-4.0858,-4.1567,-4.182,-4.101,-4.1291,-4.1247,-4.0311,-4.0164,-4.0047,-3.971,-3.9358,-3.9286,-3.9732,-3.9493,-3.9299,-3.9299,-3.9175,-3.8996,-3.8805,-3.8567,-3.8359,-3.8205,-3.7873,-3.7727,-3.7727,-3.7727,-3.7655,-3.751,-3.751,-3.751,-1.693,-1.7086,-1.7776,-1.8273,-1.8001,0.0,-2.147,-2.2388,-2.3367,-2.6102,-2.7781,-2.9006,-2.9903,-3.1284,-3.2248,-3.2162,-3.3645,-3.5387,-3.7029,-3.7477,-3.7965,-3.8929,-3.9209,-3.943,-3.975,-3.977,-3.9708,-3.9598,-3.9696,-4.0075,-4.0826,-4.0862,-4.1279,-4.2126,-4.2121,-4.1871,-4.1445,-4.0926,-4.0417,-3.9919,-3.9876,-3.9902,-4.0028,-4.0497,-4.0754,-4.0802,-4.0731,-4.0707,-4.0707,-4.0659,-4.0659,-4.0707,-4.0707,-4.0707,-4.0707,-4.0707,-4.0754,-4.0802,-4.0802,-4.0802,-4.0802,-4.0802,-4.0635,-4.0424,-4.04,-4.0178,-3.9927,-3.9927,-3.9952,-4.0003,-4.0003,-4.0003,-3.9978,-3.9927,-3.9558,-3.9179,-3.9125,-3.8722,-3.856,-3.9034,-3.9259,-3.9523,-3.9969,-4.0178,-4.0195,-3.9884,-3.9824,-3.9694,-3.9352,-3.9299,-3.9299,-3.9299,-3.9299,-3.9272,-3.9245,-3.9245,-3.9245,-3.9191,-3.8931,-3.875,-3.8706,-3.8173,-3.7886,-3.7857,-3.7612,-3.751,-3.751,-3.751,-3.751,-3.751,-3.751,-3.751,-1.8855,-1.9265,-1.9704,-1.8665,-1.9575,0.0,-1.8596,-2.0073,-2.1999,-2.2593,-2.341,-2.4455,-2.5838,-2.7365,-2.8178,-2.7524,-3.0265,-3.3214,-3.5335,-3.6187,-3.6807,-3.7369,-3.7486,-3.7909,-3.893,-3.8928,-3.9043,-3.9562,-3.9572,-3.9663,-3.9848,-3.9966,-4.0422,-4.1306,-4.0978,-4.0832,-4.0926,-4.0186,-3.9705,-3.9441,-3.9169,-3.9375,-4.0003,-4.0103,-4.04,-4.0778,-4.0351,-4.0153,-4.0128,-3.9747,-3.9825,-4.0153,-4.0153,-4.0153,-4.0153,-4.0153,-4.0424,-4.0802,-4.0802,-4.0802,-4.0802,-4.0802,-4.0689,-4.0546,-4.0424,-4.0003,-3.9489,-3.9375,-3.9671,-4.0003,-4.0003,-4.0003,-3.9902,-3.9454,-3.9286,-3.9071,-3.8655,-3.8476,-3.8448,-3.8699,-3.9007,-3.9206,-3.9071,-3.9454,-3.9662,-3.9441,-3.9432,-3.9379,-3.9299,-3.9299,-3.9299,-3.9299,-3.9299,-3.9175,-3.8914,-3.8887,-3.8821,-3.8588,-3.8504,-3.8347,-3.8087,-3.7972,-3.7815,-3.7583,-3.7539,-3.751,-3.751,-3.751,-3.751,-3.751,-3.751,-3.751,-1.9907,-1.9947,-2.0308,-1.9906,-2.0136,0.0,0.0,-1.9912,-2.077,-2.1908,-2.2145,-2.2613,-2.4124,-2.5348,-2.6023,-2.5626,-2.842,-3.08,-3.1196,-3.3542,-3.5339,-3.5656,-3.6044,-3.6529,-3.7242,-3.7633,-3.8003,-3.8333,-3.8287,-3.8483,-3.9031,-3.8891,-3.9226,-4.0185,-3.975,-3.9616,-3.986,-3.932,-3.9051,-3.904,-3.8887,-3.9007,-3.9401,-3.9575,-3.9705,-3.98,-3.9705,-3.9549,-3.9418,-3.9335,-3.9441,-3.9644,-3.9644,-3.9644,-3.9644,-3.9644,-3.9808,-4.0037,-4.0037,-4.0037,-4.0037,-3.9944,-3.98,-3.9671,-3.9532,-3.9232,-3.8898,-3.8832,-3.9007,-3.9206,-3.9206,-3.9206,-3.9125,-3.8843,-3.8805,-3.875,-3.8532,-3.8504,-3.8532,-3.8655,-3.886,-3.898,-3.8914,-3.9212,-3.9425,-3.9325,-3.9299,-3.9299,-3.9299,-3.9299,-3.9299,-3.9299,-3.9299,-3.9148,-3.8832,-3.8805,-3.8683,-3.842,-3.8234,-3.8075,-3.7915,-3.7786,-3.7642,-3.751,-3.751,-3.751,-3.751,-3.751,-3.751,-3.751,-3.751,-3.751,-2.1142,-2.0793,-2.1041,-2.1159,-2.0682,-2.0303,0.0,0.0,0.0,-2.1509,-2.1354,-2.1302,-2.2509,-2.3371,-2.3867,-2.3712,-2.635,-2.7869,-2.6341,-2.9799,-3.2734,-3.3429,-3.4544,-3.5264,-3.5336,-3.5814,-3.6237,-3.6498,-3.6354,-3.6763,-3.7931,-3.7711,-3.8025,-3.9044,-3.8521,-3.8419,-3.8821,-3.8463,-3.8424,-3.8722,-3.8667,-3.8694,-3.8805,-3.9067,-3.9094,-3.8914,-3.9121,-3.9094,-3.8914,-3.9121,-3.9245,-3.9299,-3.9299,-3.9299,-3.9299,-3.9299,-3.9299,-3.9299,-3.9299,-3.9299,-3.9272,-3.9067,-3.8887,-3.8738,-3.8588,-3.8492,-3.8391,-3.8391,-3.8391,-3.8391,-3.8391,-3.8391,-3.8391,-3.8391,-3.842,-3.8464,-3.8576,-3.8616,-3.8699,-3.8805,-3.8832,-3.8887,-3.8969,-3.9121,-3.9272,-3.9299,-3.9299,-3.9299,-3.9299,-3.9245,-3.9202,-3.9202,-3.9164,-3.8985,-3.8667,-3.8639,-3.85,-3.825,-3.7976,-3.7828,-3.7828,-3.7612,-3.751,-3.751,-3.751,-3.751,-3.751,-3.751,-3.751,-3.751,-3.751,-3.751,-2.377,-2.3659,-2.3536,-2.1597,-2.2207,-2.2457,-1.9303,0.0,-1.9981,-1.8924,0.0,-1.8631,-1.8803,0.0,0.0,-1.9079,-2.2044,-2.3852,-2.214,-2.4643,-2.7567,-3.0037,-3.2697,-3.4159,-3.372,-3.3017,-3.3097,-3.4354,-3.3875,-3.4289,-3.6007,-3.6446,-3.714,-3.8201,-3.7394,-3.7435,-3.8522,-3.7797,-3.779,-3.8448,-3.816,-3.8286,-3.8805,-3.8832,-3.9013,-3.9245,-3.8969,-3.8996,-3.9218,-3.8942,-3.904,-3.9299,-3.9299,-3.9299,-3.9299,-3.9299,-3.9299,-3.9299,-3.9299,-3.9299,-3.9272,-3.9067,-3.8821,-3.8588,-3.8448,-3.8391,-3.8391,-3.8391,-3.8391,-3.8391,-3.8391,-3.8391,-3.8391,-3.8391,-3.8476,-3.856,-3.8588,-3.8683,-3.8805,-3.8942,-3.8969,-3.8969,-3.8996,-3.9023,-3.9077,-3.9272,-3.9299,-3.9299,-3.9299,-3.904,-3.886,-3.886,-3.8628,-3.8391,-3.803,-3.8001,-3.7902,-3.7612,-3.7569,-3.7569,-3.7569,-3.751,-3.751,-3.751,-3.751,-3.751,-3.751,-3.751,-3.751,-3.751,-3.751,-3.751,-2.4162,-2.4564,-2.4962,-2.2976,-2.2983,-2.2767,-2.013,-1.9361,-1.9123,-1.8901,0.0,0.0,0.0,0.0,0.0,0.0,-2.0779,-2.1723,-2.0094,-2.2367,-2.4842,-2.6569,-2.8252,-2.9937,-3.1671,-3.2221,-3.2907,-3.4032,-3.3448,-3.3807,-3.5535,-3.5294,-3.5557,-3.656,-3.5689,-3.5819,-3.715,-3.6686,-3.701,-3.8103,-3.7972,-3.803,-3.8286,-3.8472,-3.8544,-3.8483,-3.8528,-3.8544,-3.8483,-3.8722,-3.8887,-3.904,-3.9218,-3.9299,-3.9299,-3.9299,-3.9299,-3.9299,-3.9299,-3.9299,-3.9245,-3.8969,-3.8711,-3.8476,-3.842,-3.8391,-3.8391,-3.8391,-3.8391,-3.8391,-3.8391,-3.8391,-3.842,-3.8504,-3.856,-3.8644,-3.8794,-3.8876,-3.8914,-3.8887,-3.8887,-3.8832,-3.8683,-3.8777,-3.886,-3.8782,-3.8903,-3.8958,-3.881,-3.8794,-3.875,-3.8572,-3.8476,-3.8262,-3.7915,-3.7915,-3.7786,-3.751,-3.751,-3.751,-3.751,-3.751,-3.751,-3.751,-3.751,-3.751,-3.751,-3.751,-3.751,-3.751,-3.751,-3.751,-2.4932,-2.5435,-2.5952,-2.36,-2.2971,-2.2376,-2.0296,-1.9413,-1.9041,-1.9098,-1.9184,0.0,0.0,0.0,-1.9424,-1.9218,0.0,-2.0207,-1.8612,-2.033,-2.2153,-2.3246,-2.4409,-2.6154,-2.8733,-2.9934,-3.1031,-3.229,-3.2123,-3.2824,-3.4695,-3.4364,-3.4427,-3.5177,-3.4478,-3.4632,-3.5792,-3.5599,-3.6071,-3.7211,-3.7403,-3.7556,-3.7642,-3.8051,-3.8177,-3.8046,-3.8205,-3.8205,-3.816,-3.8528,-3.8777,-3.8942,-3.9202,-3.9299,-3.9299,-3.9299,-3.9299,-3.9299,-3.9299,-3.9245,-3.9121,-3.8887,-3.8628,-3.8391,-3.8391,-3.8363,-3.8351,-3.8351,-3.8323,-3.825,-3.825,-3.8307,-3.8363,-3.8504,-3.8588,-3.8683,-3.886,-3.8914,-3.8887,-3.8722,-3.8694,-3.86,-3.8319,-3.8516,-3.8628,-3.842,-3.8572,-3.8628,-3.8436,-3.8488,-3.8472,-3.829,-3.8193,-3.8033,-3.7815,-3.7786,-3.7714,-3.751,-3.751,-3.751,-3.751,-3.751,-3.751,-3.751,-3.751,-3.751,-3.751,-3.751,-3.751,-3.751,-3.751,-3.751,-2.7006,-2.6868,-2.6635,-2.2726,-2.2002,-2.1488,-1.8709,-1.9544,-2.0474,-1.8947,-2.0348,-2.1493,-2.0221,-1.998,-1.9739,-1.9024,-1.9336,0.0,0.0,-1.7812,-1.8844,-2.0082,-2.2276,-2.3942,-2.4623,-2.4743,-2.5675,-2.7841,-2.8885,-3.045,-3.2855,-3.3677,-3.4203,-3.4433,-3.4231,-3.4304,-3.4739,-3.4755,-3.5004,-3.5486,-3.6137,-3.6626,-3.697,-3.7626,-3.8075,-3.8363,-3.8046,-3.8234,-3.8748,-3.852,-3.8755,-3.9299,-3.9299,-3.9299,-3.9299,-3.9299,-3.9299,-3.9299,-3.9299,-3.9094,-3.8805,-3.8805,-3.8628,-3.8391,-3.8391,-3.8323,-3.8209,-3.8209,-3.8049,-3.7934,-3.7934,-3.8049,-3.8237,-3.8363,-3.86,-3.8777,-3.8639,-3.8722,-3.8722,-3.8448,-3.8391,-3.8307,-3.7972,-3.8205,-3.8391,-3.8391,-3.8408,-3.8391,-3.8391,-3.8103,-3.7943,-3.7915,-3.7685,-3.7539,-3.751,-3.751,-3.751,-3.751,-3.751,-3.751,-3.751,-3.751,-3.751,-3.751,-3.751,-3.751,-3.751,-3.751,-3.751,-3.751,-3.751,-3.751,-2.898,-2.9496,-2.944,-2.5524,-2.4457,-2.3454,-1.9933,-1.9997,-2.0377,-1.8896,-2.0271,-2.1317,-1.9927,-1.9661,-1.9454,-1.8814,-1.864,-1.8251,0.0,-1.7266,-1.7548,-1.7942,-2.0715,-2.275,-2.3133,-2.4418,-2.6167,-2.8416,-2.842,-2.949,-3.2164,-3.2651,-3.3037,-3.3458,-3.3546,-3.3863,-3.4424,-3.444,-3.4987,-3.6045,-3.5853,-3.6289,-3.7292,-3.7009,-3.7226,-3.7804,-3.7685,-3.7759,-3.795,-3.8033,-3.8189,-3.8415,-3.8628,-3.8699,-3.8727,-3.8903,-3.9094,-3.9272,-3.9148,-3.8969,-3.8777,-3.8683,-3.856,-3.8363,-3.8278,-3.8237,-3.818,-3.8049,-3.7963,-3.7905,-3.7905,-3.7963,-3.8078,-3.8351,-3.8375,-3.8399,-3.8567,-3.8572,-3.8432,-3.8132,-3.8075,-3.796,-3.77,-3.773,-3.7788,-3.7788,-3.7947,-3.7988,-3.7817,-3.7844,-3.7828,-3.7655,-3.7553,-3.751,-3.751,-3.751,-3.751,-3.751,-3.751,-3.751,-3.751,-3.751,-3.751,-3.751,-3.751,-3.751,-3.751,-3.751,-3.751,-3.751,-3.751,-3.751,-3.0301,-3.0827,-3.0767,-2.7388,-2.637,-2.5235,-2.1543,-2.159,-2.2027,-2.0512,-2.1313,-2.2293,-2.2334,-2.0938,-1.9816,-1.9897,-1.9037,-1.8111,0.0,-1.704,-1.685,-1.6926,-1.9042,-2.0656,-2.1072,-2.2632,-2.4661,-2.7233,-2.7504,-2.8602,-3.109,-3.1907,-3.239,-3.2602,-3.3071,-3.3514,-3.3941,-3.3941,-3.4399,-3.5287,-3.5094,-3.56,-3.6767,-3.6516,-3.6817,-3.751,-3.751,-3.7541,-3.7648,-3.7831,-3.7976,-3.811,-3.8323,-3.8391,-3.842,-3.8694,-3.9013,-3.9272,-3.9067,-3.8914,-3.8777,-3.8588,-3.842,-3.8294,-3.8135,-3.8049,-3.7992,-3.7876,-3.7788,-3.7759,-3.7759,-3.7788,-3.7905,-3.8148,-3.816,-3.8144,-3.8315,-3.8274,-3.8119,-3.7815,-3.7756,-3.7698,-3.7539,-3.751,-3.751,-3.751,-3.7655,-3.7714,-3.7539,-3.7655,-3.7685,-3.751,-3.751,-3.751,-3.751,-3.751,-3.751,-3.751,-3.751,-3.751,-3.751,-3.751,-3.751,-3.751,-3.751,-3.751,-3.751,-3.751,-3.751,-3.751,-3.751,-3.751]}]]